ECMWFNIL_sfc_thetae_000.txt.gz
Theta_e
329 324 324 324 323 324 323 324 322 323 324 322 322 321 321 321 321 323 324 323 321 321 320 320 320 320 321 321 320 315 317 319 317 318 316 316 316 314 314 312 312 313
328 326 324 324 325 324 324 326 323 322 324 323 324 323 323 321 321 323 322 322 320 321 321 320 321 319 320 318 320 316 317 318 316 318 317 316 315 315 314 313 312 316
328 328 325 323 324 324 324 328 326 323 325 325 327 325 324 322 321 323 322 321 320 320 321 321 320 321 320 319 320 318 317 318 316 319 318 317 316 314 315 315 314 312
329 330 327 327 329 326 325 325 328 324 327 325 327 326 324 323 322 323 323 323 322 321 321 321 321 320 318 317 320 318 317 317 317 317 316 316 317 315 314 314 314 312
331 332 332 330 330 329 326 324 327 325 326 325 329 326 324 323 323 322 322 322 323 320 321 321 320 321 320 317 318 317 317 317 316 317 315 316 315 315 315 314 312 313
332 329 329 328 331 332 330 324 329 331 328 323 327 326 325 324 322 321 321 321 322 321 320 319 318 319 319 318 319 316 317 315 314 317 315 312 312 314 312 315 312 312
332 329 329 328 331 328 328 329 329 326 328 329 326 325 325 323 323 321 320 319 320 320 319 318 317 318 317 318 318 317 316 317 313 314 313 312 312 312 312 313 310 310
325 329 331 329 328 326 326 326 327 327 332 326 327 325 324 322 321 322 321 320 319 319 319 317 318 316 317 318 316 316 315 319 313 313 313 311 311 308 310 312 313 309
329 327 330 333 327 327 326 325 327 328 328 323 321 327 326 323 321 323 322 319 319 320 318 318 317 316 316 317 315 315 314 316 315 312 311 313 310 310 309 309 310 310
329 328 329 331 329 329 328 328 329 328 329 325 326 326 325 326 324 321 322 320 319 319 319 319 318 317 317 316 315 314 313 313 312 313 313 313 310 308 307 309 308 309
330 331 330 327 326 326 324 325 325 324 323 322 323 323 323 321 321 321 322 321 320 319 319 318 318 317 316 315 315 316 314 313 312 310 312 312 311 311 313 310 310 309
327 327 326 327 326 324 323 324 324 325 324 321 321 320 319 320 322 321 319 318 318 318 318 318 318 317 316 315 314 315 315 314 313 312 312 311 312 312 310 310 310 310
317 319 327 325 326 327 326 326 324 324 324 325 323 321 321 319 319 318 319 319 318 319 318 318 318 318 317 316 315 314 314 313 314 313 314 312 312 310 311 310 309 309
317 318 319 324 327 327 325 325 322 320 320 323 322 321 320 318 318 318 317 318 319 318 319 318 318 318 318 317 315 315 314 314 314 313 312 312 312 311 311 310 309 309
319 319 321 325 325 325 325 323 321 320 320 320 323 322 322 321 320 320 319 317 317 319 319 319 319 319 319 317 316 314 315 314 313 312 312 311 310 310 310 308 307 307
318 321 317 318 317 320 322 321 321 322 320 323 322 321 320 320 320 320 318 317 318 319 318 319 321 321 315 309 310 314 314 313 313 312 311 310 309 307 307 306 307 306
318 314 316 317 317 319 319 318 320 321 320 320 320 318 317 317 319 319 317 317 317 318 317 320 319 319 309 301 302 305 313 313 312 312 312 311 309 307 304 305 305 303
313 315 315 313 316 313 311 312 314 316 318 320 321 321 321 321 320 319 318 319 319 319 320 319 318 312 305 300 299 300 306 314 313 312 311 310 309 307 306 304 303 304
311 313 312 314 310 312 314 315 314 316 317 319 319 321 317 316 317 319 319 321 322 320 319 318 313 298 299 299 298 299 301 306 311 310 308 309 307 306 306 307 307 308
313 312 311 311 311 312 314 313 314 314 317 319 318 318 318 318 319 319 319 320 321 320 317 309 306 296 295 296 295 296 299 302 307 310 307 306 307 306 302 305 304 302
310 309 309 310 312 314 315 314 313 314 314 316 317 317 317 316 316 316 317 318 319 314 308 305 303 293 294 294 293 294 296 301 307 311 307 306 306 307 305 303 303 305
310 311 313 312 312 312 313 312 314 314 313 315 316 317 317 316 316 317 316 316 318 312 307 303 298 291 292 292 291 292 296 302 306 309 306 305 305 306 305 304 305 304
310 312 312 313 312 311 311 312 312 313 312 313 314 315 315 315 314 315 316 316 315 311 307 303 297 292 290 290 290 293 297 301 304 303 304 305 303 304 303 303 304 303
311 311 311 310 312 309 311 312 312 311 310 313 311 312 313 314 315 313 314 313 310 308 306 302 297 292 290 290 291 293 296 300 300 301 302 302 305 307 306 304 306 306
312 312 312 312 310 311 313 312 312 312 311 312 311 312 313 314 312 312 310 309 306 304 303 302 297 293 290 289 290 292 296 298 301 301 300 300 300 300 301 303 300 303
313 311 309 309 308 312 313 312 312 311 312 310 312 312 311 311 311 311 308 306 304 303 302 301 296 294 293 290 290 291 293 299 300 300 298 298 299 301 299 301 302 296

ECMWFNIL_sfc_thetae_003.txt.gz
Theta_e
317 316 315 315 315 316 315 315 315 314 313 313 312 312 312 313 315 314 314 313 312 310 311 310 311 310 314 312 311 312 312 311 311 310 310 309 306 306 307 305 305 304
316 317 316 316 315 316 315 316 315 314 313 313 314 313 313 314 314 315 312 312 312 312 311 312 312 310 309 309 309 309 310 310 309 312 309 308 307 305 305 305 305 305
316 316 316 315 315 315 315 316 316 315 314 315 315 315 314 314 315 314 313 312 312 311 311 311 311 312 311 310 310 311 310 308 308 311 310 309 308 307 306 307 306 305
316 316 316 315 315 315 315 314 315 316 316 316 315 315 315 316 316 314 314 318 312 312 311 311 311 312 309 310 310 309 310 310 310 308 308 309 309 307 306 308 307 304
318 316 317 317 316 316 316 315 313 315 317 317 316 315 315 316 315 314 314 313 312 312 312 311 311 310 309 309 310 308 309 309 309 308 307 308 307 308 308 306 306 306
321 319 318 319 317 315 316 316 314 316 317 318 317 315 314 316 315 314 314 314 313 313 312 311 311 312 309 307 309 307 309 308 307 309 308 306 306 308 311 308 307 306
319 320 320 320 319 317 315 316 315 316 317 319 318 315 315 316 315 315 314 315 314 314 312 311 310 310 310 307 310 307 308 306 306 308 307 306 305 305 306 306 305 306
317 319 319 318 317 317 317 316 316 317 317 319 317 316 316 316 315 315 315 315 315 314 313 312 311 311 309 309 309 307 306 311 307 306 306 305 304 304 304 308 306 303
317 318 318 316 316 315 315 316 317 315 315 316 317 317 316 315 315 315 315 315 315 314 314 313 312 312 310 311 309 308 306 309 308 304 305 305 304 303 304 304 303 302
315 319 320 317 315 315 316 317 318 318 318 318 317 316 316 316 316 316 316 314 313 313 313 313 313 312 311 311 310 310 308 309 306 305 305 306 305 304 305 304 303 303
319 320 320 318 318 318 317 317 316 316 317 316 315 315 315 314 315 314 314 314 314 314 313 313 313 312 312 311 311 310 309 309 307 306 306 307 304 304 307 304 304 303
320 319 319 318 317 316 316 317 317 316 316 315 316 315 314 315 316 316 316 315 315 315 315 315 315 314 313 312 311 310 310 309 308 307 307 306 305 305 305 305 304 304
318 320 319 318 317 318 318 317 317 316 316 315 315 315 316 315 315 316 316 317 316 315 316 317 317 317 315 313 312 311 310 309 308 307 307 307 306 307 305 304 304 304
312 313 315 317 318 319 318 317 316 315 316 317 316 315 315 316 316 315 315 316 316 316 316 316 315 315 315 314 313 311 310 309 309 307 307 306 306 305 305 304 303 303
313 314 315 314 317 318 319 316 314 313 316 315 314 313 314 312 314 315 314 314 315 316 315 315 315 316 316 315 313 312 311 310 309 308 307 307 306 305 304 304 302 302
312 314 314 314 313 313 315 314 314 313 314 313 314 314 313 314 314 315 315 314 314 314 315 315 315 316 314 309 309 313 311 311 311 309 308 307 306 304 302 302 302 302
307 305 305 307 310 311 310 312 312 313 312 314 315 315 315 315 315 315 314 314 314 314 314 315 315 316 308 304 301 304 311 311 310 309 309 307 305 303 301 300 301 303
303 303 304 305 305 305 306 308 310 311 311 312 315 315 315 315 313 313 313 313 313 313 312 313 313 309 304 302 301 299 305 311 309 309 308 307 305 303 302 300 300 301
301 303 304 302 303 305 305 305 305 307 309 310 310 311 310 311 312 312 313 313 313 311 311 312 312 306 300 300 299 297 299 306 310 309 307 306 304 303 301 300 300 301
301 303 303 303 305 306 306 305 306 306 308 310 311 311 310 310 310 309 309 309 310 309 304 300 300 294 294 295 297 295 298 303 307 306 304 303 303 303 301 301 301 300
302 301 300 301 302 302 303 305 304 304 305 304 308 309 308 308 308 308 307 306 303 302 300 297 294 292 291 292 294 295 297 300 306 305 302 301 301 301 300 299 298 300
301 300 300 300 300 301 301 301 302 304 302 302 304 305 307 306 305 307 305 305 302 300 297 293 291 291 292 293 295 295 297 303 305 303 301 302 302 301 300 299 300 301
301 300 300 299 300 299 299 300 301 301 300 301 300 301 302 304 304 304 304 304 301 299 295 292 290 290 292 293 293 294 296 299 300 300 299 299 300 301 301 302 301 300
301 301 300 300 299 299 299 299 300 300 299 299 300 299 300 303 302 302 302 304 301 298 295 292 289 290 291 292 293 293 296 297 297 297 297 297 298 300 302 302 302 305
300 300 300 300 299 299 300 300 300 300 300 300 300 299 300 300 303 302 300 298 299 298 299 292 289 290 291 291 292 294 296 297 298 297 296 296 296 297 298 300 295 294
300 299 299 300 299 298 299 301 300 301 300 299 298 299 299 299 301 300 298 297 297 297 296 292 289 288 290 291 292 293 294 297 297 295 294 294 294 294 294 294 293 291

ECMWFNIL_sfc_thetae_006.txt.gz
Theta_e
315 315 313 314 315 315 312 311 310 308 308 308 308 308 308 308 310 309 308 308 308 307 307 308 309 309 310 308 308 309 309 308 307 306 305 305 303 303 304 302 300 299
314 314 315 314 315 314 313 312 311 309 309 309 309 309 309 310 311 310 308 309 309 307 307 307 308 308 307 308 308 307 307 306 306 310 306 304 303 303 303 302 301 299
314 313 313 313 314 314 313 313 312 310 309 309 310 310 310 312 311 308 308 308 308 308 307 307 307 307 306 306 307 308 306 305 305 306 306 304 304 303 303 302 302 301
314 313 313 313 314 313 313 313 311 311 309 310 310 311 312 313 311 309 309 314 308 307 307 307 308 307 306 306 307 305 305 306 307 307 306 305 306 304 304 305 304 303
315 314 314 313 314 314 312 312 311 311 310 311 310 311 313 312 309 309 310 309 308 307 307 307 307 307 307 306 306 306 305 306 305 305 305 304 305 305 305 304 302 303
315 315 315 314 314 313 312 313 312 312 311 311 311 312 312 312 310 310 310 308 308 309 308 307 307 307 306 306 305 306 307 306 304 304 305 304 304 305 307 304 303 301
314 314 314 315 314 314 313 313 313 313 313 313 312 311 312 311 310 310 310 310 309 310 309 308 308 308 306 306 305 304 305 304 304 304 305 303 304 303 305 303 304 303
315 315 315 315 313 314 313 313 312 314 314 313 311 311 313 312 311 311 311 310 309 309 309 309 308 309 307 306 307 304 305 305 305 305 303 303 302 302 302 304 302 302
316 316 316 315 313 313 313 313 312 314 315 313 311 311 312 312 311 311 311 311 310 310 309 309 308 309 308 306 307 305 305 306 305 304 304 303 302 301 302 303 301 301
315 316 316 315 313 313 314 313 313 315 315 314 312 311 312 311 311 311 311 311 310 309 309 309 309 309 308 307 307 307 305 306 305 303 303 304 304 302 302 302 301 299
313 313 314 313 312 312 312 312 313 315 315 313 312 312 312 312 312 311 311 311 312 311 310 310 309 309 308 308 307 307 306 306 306 304 303 304 304 303 305 302 302 301
314 313 313 314 315 315 315 315 314 314 312 312 313 312 312 312 312 312 312 311 311 311 312 312 312 311 311 310 309 308 307 306 306 305 304 304 304 303 304 303 302 302
312 312 313 314 316 316 316 316 315 314 314 311 313 312 311 310 310 311 311 312 312 312 313 313 313 313 313 312 311 310 309 308 306 305 304 304 304 304 303 303 302 302
312 313 313 314 315 315 315 315 315 314 313 313 313 311 312 313 312 312 312 311 311 311 311 311 311 312 313 313 313 313 311 310 309 307 305 304 304 304 303 303 303 303
311 313 313 314 315 316 314 313 314 315 315 314 313 312 312 311 313 314 313 313 312 311 309 309 310 311 312 312 312 312 312 311 310 308 307 305 304 304 303 302 302 302
312 313 314 313 313 313 315 315 314 314 314 314 315 315 314 314 313 314 313 313 311 310 308 309 310 310 310 307 308 311 310 311 310 309 308 306 306 305 303 302 302 301
309 309 309 311 310 311 312 312 312 311 311 311 312 313 313 313 313 311 311 311 310 308 307 308 309 312 306 302 300 301 309 309 308 308 308 307 306 305 303 302 301 301
307 308 307 307 306 306 307 309 310 309 308 308 309 310 312 311 311 311 310 309 308 307 306 306 306 307 300 299 298 297 299 307 309 308 308 307 306 305 303 301 301 300
302 303 303 302 303 303 302 301 302 303 303 304 306 308 306 307 308 306 306 306 307 307 305 306 306 293 293 296 297 297 297 299 307 308 307 306 306 305 303 301 300 300
301 301 300 300 300 300 300 299 299 300 302 302 303 304 305 304 304 304 305 305 305 305 306 297 295 294 293 296 297 297 296 297 305 306 307 305 305 306 304 300 301 300
300 299 299 299 298 297 298 297 297 298 299 298 300 301 300 301 302 302 302 304 302 299 295 292 294 292 292 293 294 294 295 299 303 303 302 302 302 302 301 300 300 300
298 297 297 296 296 296 296 296 296 297 298 298 296 296 299 301 301 299 300 298 297 295 292 290 291 293 292 293 294 294 296 299 299 299 298 299 299 299 299 299 299 299
298 297 297 296 296 296 295 297 297 297 296 296 295 293 296 296 297 298 299 299 296 293 290 288 290 293 292 293 293 294 296 297 297 297 297 298 298 299 298 299 299 300
297 298 297 296 295 295 296 295 294 295 295 295 298 297 296 295 297 297 298 297 296 292 291 290 289 292 292 292 293 294 295 296 295 295 294 295 295 296 298 299 298 303
297 297 297 296 296 295 295 294 295 296 295 295 295 294 296 295 296 295 295 294 293 293 296 291 289 291 292 292 293 294 295 294 294 293 292 292 293 295 294 293 292 294
296 298 296 296 297 295 295 296 295 295 296 295 292 294 294 293 294 294 293 292 292 292 292 289 290 289 291 292 293 293 294 295 294 292 291 290 291 293 292 290 291 291

ECMWFNIL_sfc_thetae_009.txt.gz
Theta_e
315 314 313 312 311 312 310 308 306 306 306 305 304 305 305 306 306 304 305 305 305 305 305 305 305 306 308 306 306 306 306 304 303 301 302 302 300 300 300 298 297 299
314 314 314 313 312 312 310 309 307 306 306 306 305 305 305 306 306 306 306 306 306 304 304 305 305 306 306 306 305 305 304 304 304 305 302 301 300 300 299 298 298 297
314 314 313 312 313 311 310 309 308 306 307 306 305 305 307 307 307 304 306 306 304 304 305 305 305 305 306 305 305 305 304 303 303 301 303 301 300 301 300 300 298 299
315 314 313 313 313 312 310 309 307 307 306 307 306 307 307 309 306 305 306 311 305 305 304 305 305 305 305 305 304 304 303 303 303 302 302 301 301 301 300 301 302 301
316 314 313 314 314 313 311 310 308 307 307 308 307 307 309 308 305 305 306 306 305 304 304 305 304 304 305 304 304 303 303 304 304 303 302 302 301 302 301 302 300 300
316 314 313 313 314 313 311 311 310 309 308 307 308 309 307 308 306 305 306 305 304 305 304 304 304 304 304 303 303 304 305 305 304 303 303 302 301 302 304 301 300 300
315 314 313 313 313 313 312 312 311 310 309 309 308 308 308 308 306 305 306 305 304 305 304 305 304 303 303 304 304 303 304 304 303 303 303 301 303 301 302 300 300 299
315 315 313 312 312 313 312 312 311 311 310 308 308 309 309 310 307 306 306 305 304 304 304 304 305 304 303 303 304 304 303 304 304 303 302 302 302 301 301 303 301 299
315 314 312 311 311 311 311 311 311 311 311 310 309 309 309 310 308 307 307 306 305 305 304 304 305 304 303 304 303 303 303 302 304 303 302 302 301 301 302 301 300 301
312 313 313 311 310 311 311 310 310 311 312 311 310 309 309 308 307 307 307 306 305 305 304 305 305 305 304 303 305 303 304 303 302 302 302 302 302 301 301 302 301 299
312 313 313 312 311 309 309 309 310 311 311 309 308 308 309 309 309 309 308 307 308 307 306 306 306 306 306 304 304 304 304 304 303 302 302 303 303 302 304 302 302 300
311 312 312 311 311 309 309 310 312 312 312 311 311 310 310 310 310 310 310 308 308 308 307 307 306 306 306 305 305 306 306 305 305 303 302 302 302 302 303 302 302 301
311 311 312 312 312 312 312 313 312 312 312 312 312 312 312 312 312 311 311 311 310 310 310 310 309 308 306 305 307 306 306 305 303 303 304 303 303 303 303 302 301 301
311 312 313 313 313 313 313 313 312 312 311 311 312 312 313 313 313 313 312 312 312 311 312 311 311 310 308 307 307 307 305 304 304 303 303 303 302 302 302 303 303 302
311 312 313 313 314 314 314 314 313 313 313 313 313 312 313 313 312 313 313 313 313 314 313 312 310 310 311 310 308 307 307 307 306 306 306 305 304 303 303 302 302 302
312 313 313 313 312 313 313 313 313 313 313 313 313 313 313 312 312 312 312 312 313 313 312 310 310 310 309 306 306 307 306 308 307 306 306 306 305 304 303 303 302 302
311 312 313 312 312 313 312 312 312 312 312 312 312 312 312 312 312 312 312 312 312 311 309 309 309 309 303 300 301 300 304 305 306 306 305 306 305 304 304 303 302 301
309 310 310 309 308 308 310 311 312 311 311 311 311 311 312 311 311 311 310 310 310 308 307 308 307 300 296 299 298 297 300 305 305 306 306 305 305 305 304 303 302 300
306 308 307 306 306 307 308 310 310 310 308 307 307 308 307 308 309 308 309 308 307 308 308 305 304 296 293 295 296 296 297 299 304 305 306 306 305 304 303 302 301 299
302 302 303 304 304 304 305 308 308 308 306 304 304 304 306 306 306 306 307 306 306 306 302 296 295 295 293 294 295 295 295 295 299 300 301 302 302 302 301 299 298 299
299 298 299 299 298 298 299 300 303 300 301 302 303 304 304 304 304 303 302 302 301 299 296 293 294 293 293 294 295 295 295 296 297 297 296 295 296 298 297 297 297 299
297 295 295 295 295 295 295 296 295 296 297 296 295 295 295 295 295 296 299 297 296 295 293 291 291 293 292 293 293 293 295 296 294 294 294 294 294 294 295 296 297 298
296 296 296 294 294 294 294 294 294 293 293 293 293 292 294 295 297 295 295 295 293 291 292 290 292 293 293 293 293 293 294 295 294 295 294 294 294 294 295 295 296 296
296 297 296 295 294 295 294 293 292 292 292 293 294 293 294 294 292 294 292 293 292 290 291 292 290 292 293 292 293 293 295 294 293 293 292 292 292 291 291 292 296 302
295 295 296 296 296 295 294 293 293 294 292 291 293 293 292 292 294 294 292 290 289 290 297 290 288 291 292 292 292 293 294 292 293 292 291 288 290 289 289 289 290 294
295 296 295 295 295 295 295 296 296 295 292 293 290 293 293 291 293 293 291 289 288 287 288 287 288 288 290 292 292 292 293 293 292 292 290 288 289 290 289 288 289 290

ECMWFNIL_sfc_thetae_012.txt.gz
Theta_e
313 312 311 311 310 310 308 306 305 305 305 304 305 305 306 306 307 305 306 305 306 305 305 305 306 306 307 306 306 305 305 304 303 302 302 302 301 301 301 301 302 302
313 314 315 313 312 312 309 308 306 305 305 304 305 305 305 306 306 305 305 306 307 304 304 305 305 305 305 305 305 304 304 303 304 305 301 301 300 301 301 301 302 301
314 314 314 312 312 312 310 308 306 305 305 305 304 305 306 307 305 305 305 306 305 304 305 305 305 306 305 305 305 305 304 303 303 303 303 301 301 301 301 301 302 303
314 315 315 314 314 312 310 308 307 306 305 306 305 306 308 310 305 305 305 310 305 305 305 305 306 305 305 305 304 304 303 304 303 303 303 303 303 302 302 303 304 304
315 316 317 316 315 313 311 309 307 306 307 307 306 307 310 307 305 305 306 305 305 304 305 305 305 305 305 304 304 303 304 304 303 303 303 303 303 304 304 304 303 303
317 317 316 316 314 313 311 310 309 308 308 307 307 309 307 307 306 305 306 305 304 305 305 304 304 304 304 304 303 304 305 304 304 303 303 304 304 304 304 303 303 303
316 316 315 313 313 313 312 311 311 310 309 309 309 307 307 307 306 305 305 306 305 307 305 305 305 305 304 304 304 304 304 304 304 304 303 303 305 304 304 302 303 303
315 315 314 312 312 312 312 311 310 310 310 310 309 309 308 308 307 306 306 305 305 305 305 306 305 305 304 304 304 304 305 306 304 304 304 303 304 305 303 303 302 303
315 314 313 312 311 311 312 311 310 310 310 309 310 309 309 308 307 306 306 305 305 306 305 306 306 305 304 304 304 304 304 305 305 304 304 304 304 303 303 303 302 303
313 313 313 313 311 310 311 310 310 309 310 309 308 308 308 308 307 306 306 306 305 305 305 305 305 306 305 305 304 304 305 304 304 304 304 304 304 303 303 303 303 303
312 312 312 313 313 311 310 310 310 310 311 309 308 308 308 308 308 307 307 307 307 306 307 306 306 307 307 306 305 305 305 305 304 304 304 304 304 303 305 304 304 303
311 311 312 312 311 310 310 311 311 311 311 311 311 310 310 309 309 309 309 308 309 309 309 309 309 309 308 307 307 307 307 306 305 305 305 304 304 304 304 304 304 304
310 310 310 311 311 310 310 311 311 312 312 311 312 312 311 311 311 311 311 310 311 312 313 313 312 311 310 309 309 308 307 307 306 306 305 305 304 304 305 304 304 304
309 310 311 311 311 312 312 312 312 312 312 312 312 312 312 312 312 312 312 312 312 312 312 313 313 312 312 311 310 309 308 308 307 306 306 306 305 305 305 305 304 304
311 311 312 312 312 312 312 312 312 312 312 312 313 312 313 313 313 313 313 312 312 312 313 313 313 312 313 311 311 311 310 309 308 307 307 306 306 306 305 304 304 305
311 312 312 312 312 312 312 312 312 312 312 313 313 314 313 313 313 314 313 312 312 313 313 313 312 312 311 306 306 311 311 310 310 309 309 308 308 308 307 306 305 305
311 312 312 312 312 312 311 312 312 312 312 312 312 312 312 312 313 313 312 312 313 312 312 312 312 311 304 300 299 300 307 309 309 309 308 308 308 308 308 308 307 306
309 311 310 310 311 311 311 311 311 311 311 311 311 311 311 311 311 312 311 312 312 311 311 311 310 305 299 298 297 297 300 308 309 308 308 307 307 307 307 307 307 306
307 307 307 307 308 309 310 310 310 310 310 310 310 311 310 310 310 310 310 310 310 309 309 308 307 298 296 297 296 296 295 299 306 306 306 307 306 306 306 306 305 305
304 304 304 304 304 305 307 308 308 308 308 308 307 307 308 307 307 307 307 307 307 308 307 306 305 298 294 294 294 294 294 295 301 302 303 304 304 304 305 304 304 303
301 301 301 301 301 302 303 306 306 304 305 304 305 305 305 306 306 305 306 306 306 305 305 303 301 296 293 293 294 294 293 294 299 298 297 297 297 298 299 300 300 301
299 299 301 300 298 298 301 302 302 303 303 300 299 299 300 301 301 302 303 303 302 302 301 300 297 293 293 294 293 292 293 297 296 296 296 296 296 296 297 297 298 299
296 297 297 295 295 297 298 299 299 297 296 296 298 297 299 299 299 298 299 300 298 298 300 298 295 294 293 293 292 292 295 296 296 296 295 294 293 293 294 297 299 298
296 296 296 295 295 296 296 296 296 295 295 296 299 296 297 295 294 295 294 295 296 294 295 295 292 293 293 292 292 293 295 296 295 295 293 293 292 292 292 293 297 299
296 296 296 295 295 296 297 296 296 296 295 294 295 296 295 293 296 295 292 291 292 294 298 293 291 293 292 292 292 292 295 295 295 294 293 291 291 291 291 291 292 294
296 298 296 295 294 295 295 296 296 296 295 295 295 297 296 294 294 293 292 289 289 291 292 291 292 292 293 291 292 292 293 295 294 295 293 291 291 292 291 291 291 291

ECMWFNIL_sfc_thetae_015.txt.gz
Theta_e
323 324 323 322 322 323 321 319 319 320 321 322 323 323 322 321 320 321 322 322 322 321 320 321 320 320 320 320 321 319 319 320 318 318 319 319 318 318 317 316 319 316
321 322 321 321 320 319 318 319 317 319 320 321 321 320 320 320 319 320 321 321 320 320 319 319 319 319 319 319 320 319 317 318 315 316 319 318 317 318 317 318 318 317
321 323 322 320 319 319 319 318 317 318 319 319 319 320 320 320 319 319 320 320 320 318 318 318 318 318 317 318 319 319 318 317 316 316 317 316 317 316 316 316 316 317
322 322 322 320 321 319 317 316 315 316 318 318 319 320 320 320 320 319 320 318 319 318 318 318 318 317 316 316 318 316 316 314 314 315 314 314 315 315 315 316 316 315
322 321 318 317 318 320 318 316 315 316 318 318 318 319 320 319 319 319 319 318 319 318 318 318 318 317 316 316 317 316 316 314 314 315 313 313 314 315 316 316 316 315
323 322 320 321 320 319 316 316 315 315 316 317 319 319 321 320 319 318 319 318 318 318 318 318 318 318 317 316 317 317 316 314 315 315 313 313 312 314 312 315 314 313
322 321 322 322 321 319 318 318 317 315 316 318 318 319 320 319 318 318 318 318 317 317 317 318 318 318 318 317 316 316 316 316 315 314 313 313 314 314 313 314 312 311
323 323 323 322 320 319 319 319 318 317 316 316 317 319 320 318 318 319 318 317 317 316 316 316 316 316 317 317 315 317 317 317 317 314 313 313 315 312 314 314 315 311
324 323 322 322 320 319 319 319 319 318 317 316 317 317 318 320 319 318 317 317 316 316 315 316 316 316 317 316 316 316 316 318 318 316 315 314 314 313 311 313 313 313
323 323 322 321 319 319 319 320 319 319 318 317 317 317 316 319 318 317 316 316 316 315 315 315 316 317 316 315 315 315 315 315 316 317 316 316 315 313 312 313 313 312
322 322 321 321 321 321 320 319 320 319 319 318 317 317 317 318 318 317 317 316 316 315 315 315 316 316 316 316 316 316 315 315 315 315 317 316 316 316 314 315 315 314
322 321 321 322 322 321 320 320 321 321 320 319 317 317 317 317 317 317 316 316 317 317 317 317 318 319 318 318 318 319 318 318 317 316 316 315 315 315 315 316 317 315
320 321 321 322 322 322 321 319 319 321 320 319 319 318 318 317 317 318 319 318 319 319 319 321 320 320 321 322 321 320 320 319 319 318 317 317 316 315 315 316 316 315
320 321 321 321 322 323 322 320 320 320 319 320 319 319 319 318 318 319 322 320 320 320 321 321 321 321 322 320 320 320 320 320 320 320 319 319 320 318 317 316 316 316
321 321 321 321 321 322 321 320 320 320 320 319 320 321 321 320 320 319 319 319 320 321 320 321 320 320 321 322 319 317 318 318 319 320 320 320 320 320 320 319 318 317
320 321 321 321 321 321 321 321 320 319 319 319 319 320 320 320 319 319 319 319 319 320 321 320 321 320 314 308 309 314 314 315 317 319 319 320 320 319 320 321 320 319
319 320 320 320 320 321 321 320 319 320 319 319 320 319 319 317 318 318 318 318 319 319 319 318 319 316 305 301 300 302 314 318 318 319 320 320 319 319 319 320 321 320
318 319 319 319 319 319 320 319 319 319 319 320 320 319 317 317 317 316 316 317 318 318 320 320 318 308 300 300 299 297 302 317 319 318 318 319 319 319 319 319 319 320
318 318 318 318 318 319 319 320 319 318 318 318 318 320 319 317 317 318 318 318 318 318 319 319 319 301 298 298 298 297 296 304 317 317 317 318 318 318 318 317 317 317
316 317 317 317 317 317 318 318 318 318 318 319 319 319 318 318 319 318 319 319 319 319 319 319 320 300 297 297 297 295 294 298 313 314 315 315 314 314 314 315 315 315
315 315 316 316 316 316 317 317 317 317 318 318 318 318 318 317 317 318 319 319 319 319 319 318 318 297 296 296 295 294 292 298 315 313 312 312 310 309 309 310 311 312
312 314 315 316 316 315 315 316 317 316 315 315 315 316 317 318 318 319 318 318 318 318 317 316 313 294 294 293 293 291 295 313 313 312 311 310 309 308 308 309 309 309
308 310 312 313 314 314 315 315 316 315 315 314 314 315 315 316 317 317 317 317 315 316 317 316 311 296 292 292 291 293 302 312 311 309 308 307 306 306 307 308 308 308
305 307 309 308 307 309 312 314 316 317 316 313 314 313 312 312 312 312 313 315 314 315 316 314 309 298 292 292 293 295 303 311 310 309 307 305 304 304 305 304 301 298
305 306 307 307 307 308 310 312 312 312 313 312 313 314 313 311 310 311 310 310 312 313 306 311 308 299 292 293 293 292 302 312 309 308 306 305 304 302 303 303 301 296
306 305 306 307 307 307 306 308 309 309 307 307 308 308 307 307 307 308 306 305 305 307 307 310 309 307 300 291 293 293 296 311 311 309 307 305 305 303 302 302 301 299

ECMWFNIL_sfc_thetae_021.txt.gz
Theta_e
333 333 330 328 327 326 325 323 324 324 324 325 325 326 325 327 327 328 328 329 329 328 328 329 329 329 328 328 328 326 326 327 326 325 324 324 323 323 321 320 320 316
334 333 331 331 327 324 325 325 325 324 325 326 326 325 325 325 325 327 326 324 325 325 327 327 327 327 327 326 326 326 324 324 322 321 322 322 321 321 320 319 318 318
335 333 332 329 326 326 325 327 327 326 326 326 326 325 324 324 325 325 324 323 323 323 325 326 326 325 324 323 323 322 321 320 320 321 321 319 319 319 320 320 319 319
333 332 331 330 328 326 326 325 327 328 327 324 324 324 323 323 326 324 323 321 321 321 322 322 322 321 320 320 320 318 318 318 318 319 318 318 318 318 320 320 320 320
333 332 332 330 326 324 323 322 321 323 324 324 324 323 322 324 323 318 320 319 319 319 320 320 320 319 318 318 318 316 316 314 317 317 316 317 319 320 321 322 321 320
333 331 330 326 323 324 322 321 321 321 323 325 323 321 323 324 318 317 318 316 316 316 317 318 317 317 317 316 317 316 315 315 316 317 315 315 316 319 318 320 320 319
331 330 328 326 322 323 323 322 322 322 322 323 323 321 322 320 318 317 316 317 315 315 315 316 317 317 317 318 316 315 316 316 315 315 315 316 318 318 317 319 318 317
331 330 328 327 325 324 324 324 324 323 324 321 322 321 319 317 318 318 318 316 315 314 314 314 315 316 317 317 316 316 317 318 317 316 316 316 317 317 318 317 318 316
329 327 326 327 326 326 325 323 327 327 326 322 321 321 320 318 319 319 318 317 316 316 314 314 315 315 317 317 317 317 316 318 318 317 316 316 316 315 315 317 317 316
327 326 325 325 325 325 324 326 327 326 325 323 320 320 320 320 320 318 318 319 318 317 316 315 315 317 318 316 316 316 317 317 317 318 317 317 315 315 314 316 317 317
327 326 324 324 325 324 325 327 327 326 325 322 321 321 320 321 320 318 317 318 319 318 317 317 317 317 318 318 319 319 318 319 318 318 319 319 318 318 319 318 318 319
327 327 326 325 325 325 325 326 326 325 325 325 322 321 320 321 322 318 317 317 317 317 318 318 318 317 317 319 319 321 321 321 321 321 321 320 320 320 319 320 321 320
326 326 326 326 325 325 326 326 326 325 324 323 323 322 322 321 321 319 319 318 316 316 317 317 317 317 318 318 318 319 320 321 322 322 322 322 321 321 322 321 321 321
327 327 327 326 326 326 326 327 326 325 324 324 324 323 323 322 320 320 321 319 319 317 317 318 318 317 318 318 318 320 321 322 323 324 323 324 325 324 324 323 323 322
327 328 327 327 326 326 326 326 326 326 325 324 325 325 325 324 323 321 320 319 319 319 318 318 318 318 319 320 320 321 323 323 325 325 325 325 324 324 325 325 324 324
326 328 327 328 328 327 327 327 326 325 325 325 325 325 325 325 325 324 322 320 319 319 319 320 319 321 320 310 312 322 322 322 325 324 323 322 322 321 323 324 325 323
327 327 328 327 325 326 327 326 326 326 326 325 324 325 325 326 322 324 324 322 320 320 320 322 322 324 302 302 301 305 320 322 321 322 321 321 320 320 320 323 322 320
326 326 325 326 326 326 326 326 327 327 326 326 326 325 325 326 325 323 324 324 323 322 322 323 325 307 299 300 302 303 309 323 322 319 319 319 318 318 319 321 321 322
323 325 324 325 325 325 326 326 325 325 325 324 325 326 325 323 323 324 325 324 324 323 322 324 327 299 298 298 300 300 302 310 319 320 318 318 317 317 318 319 320 319
322 321 321 323 324 324 324 323 323 323 325 325 325 325 324 324 325 324 323 323 324 324 324 326 324 301 297 297 297 297 298 305 319 320 319 318 318 320 320 319 319 319
316 319 320 322 323 323 323 322 322 324 324 325 324 325 324 322 324 321 322 322 323 323 324 323 323 300 298 296 297 297 297 301 319 320 321 322 322 321 321 320 319 319
312 313 314 315 318 321 321 322 323 323 323 325 325 325 325 324 323 323 322 321 322 322 321 319 320 301 300 298 297 297 297 314 318 320 323 321 320 321 320 318 317 317
311 312 312 313 313 315 317 319 320 321 323 325 324 324 324 324 323 321 322 321 321 320 320 321 322 307 298 299 298 296 300 316 318 320 320 319 318 316 314 316 317 317
310 310 310 311 312 312 313 315 317 319 319 321 321 322 323 324 325 324 324 324 323 321 321 320 320 309 295 297 297 295 303 317 318 318 317 317 314 313 316 314 309 299
307 308 309 310 311 312 313 314 315 316 318 319 319 320 321 322 323 323 323 323 323 323 317 320 322 310 293 295 295 295 305 318 317 316 315 313 311 311 312 311 309 302
306 307 308 310 310 311 312 312 313 314 315 316 319 318 318 321 322 322 322 322 323 323 323 321 321 318 303 294 295 295 299 317 318 315 312 313 312 312 308 308 308 305

ECMWFNIL_sfc_thetae_024.txt.gz
Theta_e
331 331 330 331 331 328 330 326 327 330 331 331 329 328 329 329 329 329 330 331 330 330 330 331 331 330 330 327 328 325 326 328 327 327 327 325 324 322 319 318 320 315
334 333 331 332 327 327 329 330 329 330 330 330 328 326 327 328 330 328 326 327 328 329 330 331 331 331 329 327 328 326 324 322 319 322 322 320 318 320 320 321 320 320
333 332 332 329 326 327 328 329 331 331 330 327 327 326 325 329 328 329 330 327 325 326 329 328 326 325 325 325 324 324 323 321 320 320 320 319 320 320 320 318 316 317
333 332 331 329 327 326 328 329 329 329 327 326 325 325 325 326 329 327 325 325 324 326 326 327 327 326 321 321 323 323 321 320 320 320 319 320 320 320 321 322 320 318
332 331 331 328 328 328 328 328 327 327 326 326 325 325 324 324 324 323 324 324 323 322 324 324 322 321 323 321 319 318 318 317 320 319 318 317 319 321 320 320 319 319
331 331 329 327 326 325 324 324 324 325 326 325 325 323 323 323 323 322 320 318 321 320 321 321 321 321 321 319 319 317 318 318 318 317 316 316 318 320 319 320 318 317
332 332 330 326 325 324 322 322 323 324 326 326 323 324 324 323 322 320 317 318 317 318 318 320 321 321 321 319 319 320 318 316 317 315 315 317 318 318 318 319 316 316
331 331 328 324 325 324 323 322 322 323 325 324 325 324 324 322 320 322 319 318 315 315 317 317 320 319 320 320 319 318 318 320 319 317 316 316 317 317 318 318 319 315
331 329 327 325 326 325 323 321 323 323 322 323 323 324 324 322 321 322 320 318 317 317 315 316 318 319 321 321 319 319 318 320 321 317 317 319 317 315 314 317 316 315
328 329 328 325 325 325 325 325 324 324 322 322 321 321 319 320 322 320 322 321 317 315 314 316 317 320 321 317 319 319 319 319 317 317 319 318 316 314 314 316 316 316
328 327 327 327 326 325 325 327 327 326 326 321 322 321 320 323 319 320 320 320 321 317 314 314 317 318 319 318 321 321 320 320 317 317 319 318 318 316 319 317 318 317
327 326 325 326 326 326 326 328 327 326 326 325 320 318 323 324 319 320 315 317 317 319 316 315 315 318 317 316 316 320 321 321 320 320 320 319 321 317 318 320 320 320
325 325 326 326 327 327 328 328 329 330 325 324 322 321 320 323 322 319 320 318 316 318 319 317 316 316 318 320 319 319 320 320 322 322 322 322 321 320 320 321 322 322
327 328 327 327 327 328 326 327 327 329 329 328 328 323 320 318 321 322 320 320 318 317 319 318 318 317 317 319 319 321 322 323 323 322 321 322 322 322 323 322 323 322
328 329 329 328 326 327 327 328 328 329 328 327 328 328 326 321 321 321 322 318 319 318 317 318 318 318 318 317 317 318 320 321 322 321 322 322 323 323 321 320 322 324
326 328 328 328 330 330 329 329 328 330 329 326 326 327 327 327 325 322 319 319 318 318 318 320 319 321 318 310 312 318 319 321 323 323 323 321 322 321 320 320 320 321
325 325 325 324 329 327 328 328 329 330 330 328 327 327 327 327 327 324 323 321 318 317 318 321 321 322 303 303 305 308 320 322 322 322 320 320 319 320 320 320 320 319
325 323 323 323 326 326 324 326 328 326 326 326 327 327 326 327 327 324 323 325 325 322 322 321 320 306 298 300 303 306 311 322 322 321 321 320 318 318 318 320 320 320
321 321 322 323 323 323 326 325 324 324 324 324 323 326 327 326 327 326 324 325 325 323 321 320 316 297 299 299 300 302 304 314 321 320 318 318 317 317 317 320 320 320
320 320 320 322 324 323 323 323 322 321 323 323 321 324 325 325 325 324 324 324 323 323 321 315 315 306 297 299 299 300 299 307 320 319 318 317 317 316 317 319 318 317
313 315 318 320 322 322 324 321 320 320 321 321 321 323 323 322 323 323 322 321 322 322 319 317 318 305 298 297 298 298 297 302 317 320 319 318 317 317 318 318 319 318
309 310 311 312 315 321 321 321 322 323 323 325 324 324 324 324 323 323 321 320 321 322 318 317 317 304 299 296 296 296 296 311 315 317 318 318 318 320 320 319 319 318
307 308 309 310 311 312 312 315 321 322 323 324 323 323 323 323 322 322 322 321 321 320 318 317 318 307 301 299 297 296 299 312 314 314 314 315 317 318 319 318 317 316
304 305 307 308 309 309 311 312 313 314 317 322 320 320 321 320 320 321 321 321 320 319 319 318 318 310 300 299 298 296 302 312 313 313 313 314 317 316 315 312 308 303
304 304 306 307 307 309 311 311 311 311 313 314 316 319 318 319 320 320 319 318 320 319 315 316 318 311 297 298 297 296 301 311 314 314 312 313 315 313 312 310 304 299
304 305 306 306 306 307 309 310 311 311 312 312 313 313 313 315 316 316 317 319 319 318 318 317 317 318 313 298 297 297 297 310 314 314 313 313 314 309 309 306 303 301

ECMWFNIL_sfc_thetae_027.txt.gz
Theta_e
323 322 320 319 319 319 319 318 317 318 318 320 319 319 319 320 322 321 321 322 322 322 321 320 322 323 324 322 322 323 323 323 322 321 319 319 316 314 313 310 309 309
323 323 323 321 320 319 317 317 319 321 320 320 319 319 320 320 319 318 318 319 320 319 320 320 321 321 321 319 317 316 315 316 315 317 313 313 313 313 312 311 309 309
323 323 321 318 319 319 319 320 321 320 319 318 318 318 318 318 316 317 318 318 317 318 318 317 317 318 317 316 316 315 314 313 314 314 314 313 312 310 309 311 312 312
323 322 320 319 319 320 321 320 319 318 317 317 317 318 319 320 317 316 317 320 317 316 316 317 316 314 314 315 314 312 312 311 311 311 311 312 314 315 313 312 312 311
323 321 319 320 321 321 320 319 318 317 317 317 316 317 317 315 314 313 314 314 314 314 313 312 313 313 313 312 311 310 311 311 312 311 311 312 313 313 312 313 312 312
323 321 320 321 321 321 320 319 319 318 316 315 315 316 314 314 313 314 313 312 313 311 310 310 311 312 310 310 310 310 311 312 311 311 312 312 312 313 315 312 311 310
322 320 319 319 319 319 319 318 318 317 316 315 315 313 313 313 312 311 311 312 311 312 310 310 310 309 310 309 308 309 309 309 309 310 311 311 312 312 312 311 311 310
321 319 318 317 316 316 316 317 318 317 316 314 313 314 313 313 311 310 310 310 310 310 310 311 310 310 309 310 310 308 308 312 311 310 310 311 310 310 310 313 310 309
321 318 318 316 315 314 315 316 317 316 316 315 314 313 314 313 311 311 310 309 309 309 309 309 309 309 311 311 309 308 309 311 312 309 310 310 309 309 311 310 309 309
320 318 318 317 315 315 315 315 315 315 316 315 315 313 313 313 313 312 310 309 309 308 308 308 309 311 311 310 312 311 312 311 310 311 311 309 310 309 310 309 308 308
320 319 318 317 317 316 316 316 316 315 314 314 314 312 312 312 314 312 311 309 309 307 308 308 309 310 309 309 312 311 311 311 310 310 310 310 310 310 314 311 310 308
320 319 319 318 318 318 318 318 318 317 316 314 315 313 311 312 311 312 312 311 310 308 308 309 310 310 310 310 311 312 311 310 310 310 311 311 310 311 312 311 311 310
319 319 320 319 318 318 320 320 319 318 318 315 314 313 313 312 310 310 310 311 312 310 309 310 311 312 311 310 311 312 312 311 311 311 313 312 311 312 313 312 313 312
319 320 319 319 319 318 319 319 319 318 317 316 314 313 312 313 310 311 310 310 310 310 310 311 310 311 312 311 311 313 312 313 313 313 313 312 312 313 316 317 317 316
318 321 320 319 319 318 318 318 317 317 318 318 316 314 314 312 313 313 311 310 310 309 311 311 311 312 314 313 313 314 313 314 313 314 314 313 315 315 315 317 316 316
319 317 319 320 320 320 319 319 318 318 319 318 317 317 314 313 312 312 311 309 310 310 310 313 312 313 314 310 310 314 313 315 315 314 314 314 315 315 314 315 316 315
319 319 318 317 318 319 320 320 319 319 318 318 317 316 316 315 315 314 312 311 311 310 310 313 313 314 305 301 303 306 314 314 314 313 313 314 315 314 314 314 313 314
317 319 318 317 317 317 319 319 318 317 316 315 316 317 318 316 315 315 314 314 313 311 311 310 309 307 299 300 301 302 308 315 316 315 315 314 315 315 315 314 314 314
317 318 318 317 316 316 317 315 315 315 315 315 314 314 315 315 316 316 315 314 313 312 309 309 309 301 300 299 299 301 303 311 317 316 315 315 315 315 315 315 314 312
309 312 312 314 315 315 315 314 314 313 314 314 313 314 314 314 315 315 315 313 311 310 309 309 308 300 299 300 299 298 301 308 317 316 315 315 315 314 314 315 315 313
303 304 304 306 310 313 312 311 312 311 313 312 312 314 313 313 314 313 313 312 311 310 307 308 311 300 298 298 299 300 299 306 315 316 315 314 314 312 311 314 314 315
300 300 301 302 303 304 306 306 307 310 311 311 310 310 311 312 312 313 312 311 311 310 308 308 311 302 296 296 297 297 298 307 310 312 312 312 312 312 311 313 315 314
299 299 300 302 302 303 303 304 304 305 306 309 310 309 309 311 313 312 312 312 310 310 309 308 310 306 299 297 295 295 300 306 307 308 308 309 310 311 313 314 314 314
299 299 300 301 300 301 302 302 304 304 305 306 304 307 310 313 311 311 311 310 310 311 312 310 310 308 301 298 296 294 301 308 307 308 306 307 309 311 311 308 306 307
299 299 299 300 299 299 300 300 301 302 302 303 304 305 304 306 311 312 311 311 312 313 312 312 311 309 302 299 297 296 299 306 307 307 306 304 307 309 310 306 303 302
298 299 299 300 299 299 300 300 300 301 301 301 302 303 304 304 303 304 309 312 312 311 313 313 312 312 308 300 299 297 297 306 308 307 307 305 307 310 310 304 300 297

ECMWFNIL_sfc_thetae_030.txt.gz
Theta_e
318 318 318 317 316 316 315 315 315 316 315 316 315 313 314 314 317 317 316 317 317 317 318 319 319 319 322 320 321 322 321 319 319 318 318 318 315 316 316 316 313 313
317 318 319 318 317 316 315 315 315 316 316 316 315 315 315 316 316 317 316 317 316 316 317 318 317 318 318 319 319 318 316 315 313 316 313 311 310 310 309 308 308 307
317 317 317 316 316 315 314 315 316 317 317 316 316 317 317 315 314 314 315 315 314 314 316 316 316 315 315 314 314 314 312 311 310 311 311 308 307 307 307 308 308 307
318 317 316 316 315 315 316 317 315 316 316 316 316 316 316 316 314 315 316 318 314 313 313 313 313 312 313 312 312 311 310 310 309 309 311 310 310 310 309 309 309 308
318 316 316 316 317 318 317 316 315 315 315 315 315 315 316 313 313 313 313 312 312 310 311 311 311 311 311 310 310 309 309 309 309 310 310 309 308 310 309 309 309 309
316 317 317 318 317 316 316 315 315 314 314 313 314 313 311 311 311 312 311 310 309 309 309 309 310 309 309 309 309 309 310 310 309 311 310 310 309 309 311 309 308 308
316 317 317 318 316 316 315 314 314 314 313 313 312 311 310 310 311 310 310 309 308 309 308 308 308 307 307 307 308 308 308 309 308 310 310 308 309 308 309 308 309 308
317 317 317 317 316 315 315 314 313 313 312 312 311 310 310 310 309 309 309 308 307 307 307 306 307 306 306 307 308 307 306 310 309 309 308 307 307 307 307 309 306 306
317 317 317 316 315 315 315 315 313 312 312 311 311 310 310 309 308 308 308 307 307 307 307 305 306 305 306 307 306 306 307 307 309 308 308 308 307 307 308 306 306 306
316 316 316 316 315 315 315 314 314 313 312 311 311 310 310 308 307 307 307 306 307 306 306 306 306 307 306 306 306 306 307 308 307 307 308 308 308 308 307 307 307 307
317 316 315 315 314 315 315 314 313 313 312 312 311 309 309 308 308 306 306 306 307 306 305 305 306 307 306 306 306 307 308 308 307 307 307 307 308 307 310 307 307 307
318 318 317 314 315 315 315 314 313 313 312 312 311 309 308 309 310 307 308 306 305 305 305 305 307 306 306 307 308 308 308 307 307 307 307 307 307 308 308 307 307 308
318 318 317 317 315 315 315 314 313 312 312 312 311 309 309 309 308 308 308 306 306 305 306 307 307 307 306 307 308 308 308 308 307 307 307 307 306 308 307 307 307 307
316 317 318 318 318 317 317 316 315 313 313 311 312 310 310 309 308 309 308 307 306 306 307 307 308 307 306 307 308 308 307 307 307 308 308 307 306 307 308 308 308 308
316 317 317 318 318 319 318 317 316 316 315 313 312 311 312 311 309 308 308 308 307 306 306 308 309 309 309 308 308 308 307 307 307 309 308 307 306 307 309 309 309 309
316 316 316 315 317 317 317 317 316 316 315 314 313 312 310 311 309 309 307 308 307 306 306 308 309 310 311 307 307 310 308 310 309 309 308 308 310 309 309 310 311 310
316 316 315 315 315 315 315 316 316 316 315 315 314 314 312 310 311 310 307 307 308 307 307 308 309 310 305 300 300 304 310 310 309 309 308 311 311 311 311 311 309 309
313 314 314 314 315 315 315 315 315 315 314 314 313 315 314 313 313 310 309 307 307 306 307 309 309 307 301 299 300 300 306 311 310 310 311 311 311 312 312 311 311 310
310 314 313 313 312 313 313 313 312 313 313 314 313 313 312 313 311 311 311 309 308 307 306 308 308 305 301 298 298 299 301 308 312 311 311 311 312 312 311 311 311 310
301 303 305 308 310 310 311 311 312 312 312 311 310 311 310 311 309 311 309 309 308 307 306 305 305 303 298 298 297 297 297 302 313 312 312 312 313 313 312 312 312 311
299 300 300 302 304 304 304 304 306 308 309 309 308 310 310 311 310 310 309 308 309 308 307 308 308 303 296 296 297 296 296 296 307 312 312 312 313 313 313 313 313 313
298 298 298 298 299 299 299 300 301 302 303 305 306 306 307 307 308 309 309 312 312 310 309 309 311 302 296 295 296 296 297 304 307 310 311 311 311 312 312 313 313 313
298 298 298 297 297 297 297 297 298 298 298 301 300 300 302 304 306 307 307 307 308 310 310 310 309 305 297 295 295 295 298 307 310 311 312 311 310 310 310 311 313 313
298 298 297 297 296 296 296 296 296 296 297 298 297 298 298 300 303 304 306 306 306 306 307 308 309 307 299 296 295 294 299 308 308 310 309 309 308 309 309 309 310 311
297 297 297 297 297 296 296 296 295 296 296 296 296 296 296 297 299 300 300 300 303 304 309 309 309 307 301 297 296 295 298 304 305 307 307 305 307 307 306 306 303 304
297 297 298 297 297 296 296 296 296 295 295 296 295 296 296 296 297 296 297 298 298 301 303 305 307 309 308 301 298 296 296 305 305 305 305 305 305 307 308 305 301 300

ECMWFNIL_sfc_thetae_033.txt.gz
Theta_e
316 315 315 314 313 314 314 314 313 314 314 313 315 311 312 313 315 314 313 313 314 316 315 316 316 317 320 318 318 319 319 319 316 315 316 316 314 316 316 314 314 316
315 317 317 315 315 314 313 314 313 314 313 312 312 312 313 313 314 314 314 314 314 313 314 315 314 315 317 318 318 318 315 315 314 317 314 313 313 314 315 314 315 311
316 317 316 315 314 313 312 312 313 313 314 312 312 313 314 313 312 312 312 313 314 312 313 313 313 313 314 314 315 315 313 310 310 309 311 310 308 311 309 310 308 309
316 317 316 315 314 314 313 314 312 314 314 315 313 313 314 314 312 312 314 316 313 311 310 311 311 311 312 311 311 310 309 309 308 308 308 307 307 308 307 307 307 307
316 316 315 315 315 316 314 314 313 312 313 313 313 313 315 313 311 311 310 310 311 310 309 309 309 309 309 309 309 308 308 308 307 308 308 307 306 308 307 308 307 306
316 316 316 316 316 316 314 313 313 313 312 312 313 313 311 311 311 310 310 309 308 309 308 307 308 308 308 307 307 307 307 309 306 307 308 307 306 306 309 307 306 305
316 316 315 315 315 314 314 312 312 313 313 313 311 310 310 310 310 308 307 307 308 309 307 306 306 306 306 306 306 305 306 306 306 307 308 305 307 306 307 306 306 306
316 316 315 315 314 313 313 312 312 312 312 310 309 308 308 309 308 307 306 306 306 306 305 305 305 305 304 305 306 306 305 308 308 306 306 305 304 305 305 307 305 306
316 316 315 314 314 313 312 313 312 311 311 310 309 308 308 308 308 307 306 306 305 305 304 304 305 304 304 305 305 305 305 305 306 305 305 305 305 304 305 304 304 305
315 315 314 314 314 313 312 311 311 311 311 310 309 307 308 306 306 306 306 305 305 304 304 303 304 304 304 304 305 304 305 305 305 305 305 304 305 304 304 304 303 304
315 314 314 313 313 313 312 312 311 310 310 309 308 307 306 305 306 305 304 304 306 304 304 303 304 304 304 304 304 304 304 304 304 305 305 305 305 304 309 303 304 304
315 315 314 313 313 313 312 312 312 311 310 309 308 307 306 305 305 305 306 304 304 304 304 304 303 304 304 303 304 304 304 304 304 305 305 305 305 305 305 304 304 304
316 315 315 315 315 315 314 313 312 312 311 310 309 306 306 305 306 305 306 304 304 304 304 304 305 304 303 303 304 304 304 304 304 305 305 304 304 304 305 304 304 305
316 316 315 315 315 316 315 314 312 311 311 309 309 306 306 306 306 306 304 305 304 304 304 305 304 304 302 303 304 305 305 304 304 304 304 304 304 304 304 304 304 305
315 315 315 315 314 315 315 314 314 312 311 310 310 308 309 306 306 306 305 305 304 303 304 305 305 305 305 304 304 304 304 304 305 305 305 305 304 304 304 304 304 304
314 314 315 313 313 313 315 315 314 313 312 312 310 309 308 308 306 306 305 305 304 303 303 304 305 306 308 306 306 306 304 305 305 305 305 305 305 305 304 306 306 304
315 314 315 314 313 314 314 314 313 312 311 311 311 310 308 307 307 306 305 305 305 303 302 304 305 307 304 300 299 303 305 304 304 304 304 304 304 305 306 307 307 305
313 313 313 314 315 313 311 312 312 312 312 311 311 312 311 308 308 307 306 305 304 304 303 304 305 305 301 300 298 297 303 307 305 305 306 304 305 306 306 306 307 308
308 308 308 308 310 312 312 310 311 312 311 312 310 309 310 311 309 308 307 305 305 305 304 304 304 303 300 299 298 296 296 302 307 307 307 307 307 308 307 308 308 308
301 301 300 301 301 302 303 304 305 306 307 307 308 309 308 308 308 308 307 307 307 306 305 304 304 302 301 300 298 296 295 297 304 305 306 307 308 309 309 309 309 309
299 299 299 299 299 299 299 299 299 299 300 301 301 303 305 305 305 306 307 308 308 307 306 306 306 303 299 297 296 296 295 296 301 303 305 306 308 308 309 310 310 311
299 298 298 298 298 298 297 297 296 296 297 298 299 298 299 300 302 303 304 307 308 306 306 307 308 302 296 294 294 295 295 300 301 303 305 306 308 308 309 310 310 311
298 298 298 297 297 296 295 295 295 296 296 297 296 296 297 298 298 299 300 301 304 306 306 306 307 304 298 297 296 293 296 302 302 304 304 305 307 308 309 309 310 311
297 297 297 296 296 295 294 294 294 294 294 295 294 294 294 295 296 296 297 298 298 300 302 303 305 304 298 298 297 295 297 303 305 305 305 305 307 308 308 308 309 310
297 297 296 296 296 296 295 294 294 294 294 293 294 293 293 293 296 294 295 295 296 298 302 301 301 301 298 296 296 296 297 300 303 304 305 306 306 306 307 307 308 308
297 297 296 296 295 295 295 295 295 294 294 294 293 294 293 293 294 294 294 294 295 296 297 297 298 299 299 295 295 295 296 300 301 303 304 305 306 307 308 307 305 303

ECMWFNIL_sfc_thetae_036.txt.gz
Theta_e
321 320 319 318 317 318 316 316 315 316 316 316 316 315 316 316 317 315 314 315 316 316 317 318 320 320 321 321 321 322 321 320 319 318 319 318 318 318 318 317 318 318
319 318 318 316 316 316 315 316 316 316 315 315 315 314 314 316 315 315 315 316 316 315 316 317 318 318 319 320 321 321 320 320 319 319 318 318 317 318 318 317 318 316
317 317 316 315 315 314 314 314 315 315 315 314 314 316 316 315 314 312 313 315 315 314 315 315 316 317 318 319 319 320 318 317 316 317 318 318 315 318 318 317 316 317
317 317 316 315 315 314 313 314 313 314 314 314 315 316 316 315 314 314 316 319 314 313 312 313 314 315 316 315 316 315 314 314 313 314 314 312 314 316 314 315 315 315
315 314 314 314 314 314 314 314 314 314 314 314 313 314 316 314 313 312 312 312 312 311 311 311 311 312 312 312 312 311 311 310 310 310 310 309 310 311 310 313 312 313
314 315 314 314 314 314 314 314 314 314 313 313 314 314 313 313 312 311 312 312 311 310 310 309 310 310 310 310 310 310 310 310 309 309 309 309 309 309 310 309 310 311
314 314 314 314 314 314 314 313 313 314 313 314 313 312 312 312 311 310 310 311 310 311 310 309 309 308 309 309 309 308 308 309 308 309 308 308 310 309 309 308 309 308
314 314 314 313 313 313 312 312 312 312 312 312 312 310 311 310 309 309 308 309 309 308 308 307 307 307 307 309 309 309 309 309 308 308 308 307 308 309 308 308 308 308
315 315 314 312 312 312 311 312 311 311 312 311 310 309 309 309 308 307 307 308 307 307 306 306 306 306 307 308 308 309 309 308 308 308 308 308 309 308 307 307 307 307
315 314 313 313 312 312 311 311 311 311 311 310 309 309 309 308 307 307 306 307 307 306 305 305 305 306 306 306 307 308 309 308 307 307 307 307 308 307 306 307 307 307
314 314 313 313 312 312 311 311 311 311 311 309 309 308 307 307 307 306 306 306 307 306 305 305 305 306 306 306 306 306 307 308 307 307 307 306 306 306 310 307 308 308
313 313 314 313 313 312 312 312 311 311 310 310 309 308 306 306 306 307 307 305 305 305 305 305 305 305 305 305 306 306 306 306 307 308 307 307 306 306 307 306 308 307
312 314 314 313 313 312 312 312 311 310 310 309 309 308 307 306 305 305 307 305 304 304 305 305 305 305 305 305 305 306 306 307 307 306 306 307 307 307 307 306 307 307
314 314 314 314 314 314 313 312 311 310 309 309 308 307 307 307 306 306 306 305 304 305 305 306 305 305 304 305 305 306 306 306 306 307 306 306 306 306 307 307 306 307
314 314 314 314 314 314 313 312 312 311 311 310 309 309 309 308 307 306 306 306 305 304 304 305 306 305 305 305 306 306 305 306 306 307 307 307 306 306 306 306 306 306
314 313 314 313 313 313 313 313 312 312 312 311 310 309 308 308 307 307 307 307 306 305 304 305 305 305 309 305 305 307 305 306 306 306 306 307 308 307 306 307 307 307
314 313 313 313 313 313 313 312 312 311 311 310 310 309 307 308 307 307 306 306 307 306 305 305 306 307 303 299 299 302 305 306 307 306 306 307 307 307 308 308 307 308
310 311 312 312 312 312 312 311 311 311 310 310 310 310 310 308 307 306 305 305 305 304 303 304 305 303 298 298 297 297 301 306 305 306 307 307 307 307 307 307 308 308
301 300 301 302 303 305 305 304 303 303 304 305 306 307 308 309 309 309 309 307 305 305 305 305 306 299 297 297 298 297 297 300 305 306 306 307 307 307 308 308 308 308
299 299 298 298 299 299 298 298 299 299 300 300 302 303 303 303 304 305 307 308 308 307 307 307 307 298 294 294 294 294 294 297 304 306 307 307 308 308 308 308 308 309
298 298 297 297 298 298 297 297 296 297 297 298 298 299 299 300 300 300 302 304 305 306 306 307 304 294 294 294 294 294 294 297 302 303 304 306 307 308 309 309 310 310
298 297 296 297 297 297 296 296 295 295 295 296 297 296 297 297 298 298 299 300 302 303 304 303 301 293 293 294 294 294 297 304 303 303 304 304 305 307 308 309 310 310
297 297 296 296 296 296 296 295 295 295 295 296 295 295 295 295 296 296 297 298 299 300 300 300 300 295 293 293 294 294 299 305 305 305 305 305 305 307 308 309 310 310
297 297 296 296 295 295 295 295 296 296 295 295 294 294 294 295 295 295 295 296 296 297 299 298 298 296 293 293 293 293 298 303 304 304 305 305 306 307 307 308 309 308
297 296 296 295 294 294 295 295 295 295 295 295 294 294 294 294 295 293 293 294 295 296 298 296 297 297 293 292 292 293 297 301 303 303 303 304 305 306 307 308 308 307
296 296 295 295 295 295 295 295 296 295 295 295 295 294 294 294 293 293 292 293 293 293 294 295 295 296 295 292 292 292 293 299 300 301 301 302 303 305 306 307 307 307

ECMWFNIL_sfc_thetae_039.txt.gz
Theta_e
334 335 335 335 334 334 333 332 332 332 332 331 331 331 331 332 330 332 332 332 333 333 331 331 332 333 333 334 335 334 335 336 335 334 333 333 332 332 331 331 333 332
334 334 334 335 333 332 333 333 332 331 330 330 331 330 330 330 329 330 330 330 331 332 332 332 332 333 333 333 334 334 334 335 334 331 333 332 332 332 332 332 333 333
332 332 332 333 331 331 331 332 332 332 330 329 329 331 331 331 329 329 331 332 332 332 332 333 334 334 334 334 333 333 334 334 334 333 333 331 332 332 333 332 332 332
330 331 332 332 331 330 330 330 329 330 330 328 330 331 330 330 331 330 330 330 332 332 332 333 333 333 333 333 333 332 333 333 334 333 332 332 332 332 333 332 332 332
329 329 330 330 330 330 330 329 328 328 329 330 330 329 329 329 329 329 330 330 332 331 331 331 332 332 332 332 332 331 331 330 330 332 331 331 331 331 331 331 331 331
328 328 328 328 328 328 328 328 327 328 328 329 329 328 329 329 329 328 329 329 329 329 329 330 330 329 330 330 331 331 330 329 328 329 329 330 328 328 327 330 331 330
326 327 327 327 326 327 328 328 328 327 327 328 327 327 327 327 328 329 328 329 327 327 328 328 328 328 328 329 329 328 328 327 325 326 325 325 325 325 324 327 328 328
326 327 326 326 326 327 327 326 327 327 327 326 327 327 327 326 327 328 328 327 326 326 326 325 325 325 325 327 327 326 325 324 324 322 322 321 323 322 323 323 326 327
325 324 323 324 325 325 326 325 326 326 325 327 327 325 326 326 326 326 326 326 325 325 324 324 324 323 324 325 325 325 323 323 323 322 321 321 322 321 319 320 321 323
323 323 323 324 325 325 326 326 325 325 325 326 325 325 324 324 325 324 324 325 324 322 323 322 321 322 321 321 321 323 322 321 321 322 322 322 322 320 319 320 322 322
323 323 323 324 325 325 326 325 325 324 325 324 324 325 323 322 321 322 323 323 324 322 320 321 321 321 320 320 322 324 324 323 321 321 322 321 322 322 320 322 321 323
323 322 322 323 323 324 324 324 324 324 324 324 323 322 323 322 320 320 320 320 321 320 320 320 320 321 320 320 320 322 323 324 323 322 321 320 321 321 320 321 322 321
322 321 321 321 321 321 322 321 322 323 322 321 322 322 321 320 320 319 320 319 318 319 319 319 319 318 320 320 320 320 322 322 322 322 322 323 322 320 320 321 321 321
322 322 321 319 319 319 320 320 320 320 320 320 320 321 321 319 319 319 319 318 319 318 319 320 319 318 318 319 318 320 321 322 323 323 322 322 322 321 321 320 321 322
318 319 320 320 319 319 319 320 320 320 319 319 320 320 320 319 320 319 318 317 317 319 318 319 319 320 318 319 319 319 321 321 321 320 321 321 321 321 321 320 320 322
317 317 319 319 319 318 318 320 320 321 322 321 320 320 319 319 319 319 318 317 316 316 318 319 318 319 311 304 306 319 320 319 322 322 320 320 320 321 322 321 321 321
317 316 315 314 316 316 316 317 318 319 320 320 320 319 318 317 318 319 319 319 318 317 316 316 316 312 298 299 300 301 315 320 320 320 321 321 321 320 320 321 323 322
307 306 306 306 307 307 308 309 310 311 312 314 316 318 319 320 320 320 319 319 318 318 319 318 312 296 295 296 296 298 306 318 319 319 319 320 320 320 320 322 322 323
304 303 302 302 302 304 305 305 306 306 308 309 310 312 314 315 318 320 321 322 321 318 315 312 307 293 293 294 295 295 296 307 318 319 318 318 319 319 319 320 322 321
302 301 301 302 303 303 303 303 304 304 306 307 307 308 309 309 311 312 316 317 315 312 310 307 304 295 293 293 294 294 293 302 318 318 319 318 319 319 320 320 320 320
302 301 301 301 302 302 302 301 302 303 303 303 304 305 305 306 307 308 309 311 312 310 308 306 301 292 292 292 293 295 297 305 319 318 319 318 318 319 319 320 320 320
300 300 300 301 301 301 301 301 301 301 302 302 303 303 304 304 304 305 306 306 307 309 307 305 302 292 292 292 293 293 297 318 320 321 321 320 320 319 319 319 319 320
300 300 299 300 300 300 300 301 301 301 301 302 302 302 302 302 302 302 303 304 304 305 306 305 303 295 291 292 292 292 304 315 317 316 318 319 319 319 320 320 320 320
300 300 299 298 299 299 299 300 301 301 301 303 301 301 301 301 301 301 302 302 302 302 303 304 303 296 291 291 292 291 299 310 311 312 314 315 316 318 318 319 317 309
300 301 300 299 298 299 300 300 300 300 301 302 302 302 301 300 299 299 299 299 299 299 298 301 302 299 292 291 291 291 299 308 308 309 310 312 312 313 316 316 318 313
298 298 298 298 297 297 298 298 298 299 301 301 301 300 299 299 298 298 297 297 297 298 298 299 300 301 297 290 291 292 292 304 307 306 307 307 309 309 310 313 314 317

ECMWFNIL_sfc_thetae_042.txt.gz
Theta_e
333 334 336 335 335 337 336 335 335 334 335 334 333 333 333 335 336 335 335 336 336 335 335 336 336 336 336 338 339 337 336 338 338 338 339 339 337 337 335 335 334 333
332 337 336 335 337 336 336 336 336 334 334 334 333 333 334 335 336 335 335 334 335 335 336 336 336 336 335 337 339 338 336 337 337 337 338 338 337 337 337 336 337 336
335 337 336 336 336 334 334 335 336 334 333 333 335 335 334 336 335 334 334 334 333 333 336 336 336 335 334 333 337 339 336 337 337 337 337 335 336 336 337 338 337 337
335 338 335 337 335 334 335 333 333 333 333 332 332 332 333 335 334 334 334 333 333 333 334 335 335 335 334 334 334 334 337 337 336 337 336 337 337 336 336 337 336 336
337 337 335 335 334 334 334 332 331 331 330 330 333 334 332 333 332 331 332 332 333 332 333 333 333 334 334 334 333 334 338 336 338 337 335 335 336 336 337 336 336 335
339 336 335 333 335 334 332 331 331 331 331 332 332 331 331 331 330 330 331 331 331 331 331 332 332 332 333 333 335 337 336 335 336 336 335 334 334 336 335 336 335 334
339 337 335 334 334 334 332 332 332 333 333 333 331 331 331 330 329 329 329 329 329 328 329 330 331 332 333 333 335 336 335 336 335 334 331 329 331 332 331 335 334 333
339 338 336 335 334 333 332 332 332 332 333 332 331 331 330 328 329 330 330 329 328 327 328 329 330 331 332 333 331 334 335 336 334 330 328 326 328 327 330 331 335 333
338 338 335 336 334 333 332 330 331 332 332 331 329 329 330 329 330 330 329 329 328 327 327 329 329 328 331 330 330 330 330 332 332 330 327 327 327 325 324 328 332 333
337 336 336 335 333 331 331 331 331 331 331 330 330 330 329 330 330 329 328 329 328 326 326 327 328 329 329 328 328 327 327 329 330 328 327 326 325 323 322 324 325 327
335 335 335 335 333 331 331 332 331 331 331 329 330 329 329 329 328 328 328 327 328 325 324 325 326 326 326 327 327 327 326 326 325 323 325 325 325 323 324 323 324 324
329 331 333 333 332 331 331 331 331 331 330 330 329 328 329 328 327 326 324 324 325 325 323 324 324 325 324 324 325 326 326 325 324 324 323 324 324 322 322 324 324 323
323 324 327 330 331 330 331 330 330 331 330 329 329 329 328 326 325 325 325 324 325 325 323 323 323 323 324 324 324 325 325 324 324 324 323 324 323 322 322 322 322 322
320 322 324 324 326 329 330 329 330 330 329 329 329 328 326 324 324 323 323 323 323 323 324 324 323 322 323 323 323 323 324 324 324 324 323 323 324 323 323 323 323 324
323 323 323 323 323 325 326 327 328 328 329 329 328 326 325 324 323 321 320 320 320 322 321 321 322 322 321 323 322 321 322 323 323 322 323 323 323 323 324 323 323 324
322 323 324 324 324 324 324 324 325 326 326 326 325 325 324 322 321 320 319 319 319 320 322 323 324 323 305 298 303 321 322 320 322 322 321 322 323 324 323 323 323 323
321 322 323 321 321 321 321 321 323 325 324 324 325 324 324 323 321 320 319 319 319 319 321 324 320 308 293 293 295 299 316 323 321 321 321 319 320 323 322 322 323 321
316 314 314 315 317 317 317 317 317 318 320 323 324 324 324 325 324 322 322 323 324 324 322 319 313 296 292 293 293 293 299 320 322 322 321 321 320 319 320 321 322 323
312 311 310 310 311 313 315 315 315 315 316 317 319 323 325 325 324 324 325 325 322 320 317 315 310 293 293 292 293 293 292 303 321 321 320 320 322 322 322 323 323 323
311 309 308 308 310 311 311 311 310 311 313 315 317 320 322 323 324 323 321 319 318 315 311 309 305 295 292 292 293 291 291 297 323 322 321 321 321 321 322 323 323 323
306 306 306 306 307 306 306 306 308 310 309 311 313 315 316 318 318 318 317 316 314 312 309 306 302 291 292 291 292 292 292 296 326 324 323 323 324 324 324 323 324 323
307 306 306 306 306 307 306 306 306 307 307 307 309 311 313 312 311 312 313 314 313 311 308 305 302 291 291 292 292 292 293 321 324 325 324 324 325 326 325 325 325 326
304 304 303 304 305 305 304 304 304 305 306 307 306 307 306 307 307 308 309 310 311 311 309 306 304 295 291 291 292 291 305 322 323 321 322 324 325 326 326 327 329 328
304 303 303 304 305 304 305 305 306 306 305 306 306 306 305 305 305 305 305 306 307 309 310 308 304 296 291 291 292 291 299 317 317 319 320 320 321 323 323 324 318 307
304 304 303 304 304 304 305 305 306 306 307 308 307 306 305 305 304 304 304 305 305 306 304 308 307 300 291 291 291 291 301 314 313 315 316 316 316 317 319 320 322 312
301 301 301 303 304 304 304 303 304 305 306 307 306 306 305 304 304 305 304 304 305 306 306 307 307 305 297 290 291 292 291 306 311 310 311 310 312 312 313 316 317 318

ECMWFNIL_sfc_thetae_045.txt.gz
Theta_e
335 334 336 332 331 331 333 334 335 335 334 332 333 333 332 333 335 336 336 337 337 337 336 336 336 337 338 340 339 337 337 338 335 336 335 337 335 334 333 333 333 333
335 334 334 333 332 332 334 335 335 334 334 334 333 333 335 335 334 335 335 335 336 335 335 336 336 336 337 337 339 337 335 336 336 334 334 335 336 333 333 334 333 335
335 335 333 332 332 332 336 337 336 335 334 334 335 335 334 335 335 335 335 335 334 333 334 335 336 335 335 335 337 337 335 335 335 335 335 334 334 333 334 333 334 333
337 336 335 334 333 333 335 336 335 335 335 334 334 335 334 335 335 335 335 333 333 333 335 334 335 335 333 334 336 336 336 336 335 337 335 334 334 334 334 337 334 333
338 337 336 334 332 332 335 333 333 334 334 334 334 334 334 334 334 332 332 332 332 331 332 332 333 333 333 333 333 334 335 335 334 335 334 333 335 335 333 335 334 334
337 337 334 330 331 330 331 331 331 333 333 333 332 331 331 331 329 329 329 329 331 330 330 332 331 332 333 332 333 333 335 334 333 335 333 331 334 334 333 333 332 331
336 336 334 333 331 329 329 330 332 331 331 332 331 331 331 330 330 330 330 331 331 330 330 331 331 331 332 332 332 332 336 335 335 334 330 331 332 333 334 333 333 332
336 335 333 330 331 329 331 330 330 331 333 332 331 331 331 329 330 330 330 330 329 328 329 328 329 329 330 331 330 333 333 333 334 331 329 328 331 329 329 332 333 330
332 331 331 332 328 330 330 330 331 332 332 331 330 330 330 329 329 330 329 328 328 327 327 328 328 328 330 329 330 333 332 334 334 330 329 327 328 328 327 331 332 330
328 330 329 332 329 329 330 331 331 332 332 331 330 329 328 329 330 328 327 328 327 326 326 327 327 328 329 329 328 330 332 329 331 329 328 327 327 326 325 327 331 329
328 330 330 329 329 329 331 331 331 331 331 328 328 327 328 329 327 328 326 327 328 325 325 326 327 328 328 328 330 330 329 328 329 327 327 327 326 325 327 325 328 329
328 327 332 329 329 330 331 331 330 330 330 331 328 327 329 328 327 327 325 325 325 325 325 325 325 326 326 327 327 328 329 329 327 326 326 325 325 324 324 325 325 326
327 327 333 331 330 330 331 330 330 330 329 328 328 329 328 327 326 326 326 326 327 326 324 323 324 324 325 325 326 326 326 325 326 325 325 325 325 323 323 324 324 324
330 332 333 332 329 330 329 329 327 329 327 330 329 328 327 325 325 325 326 327 328 326 324 324 323 323 323 324 325 325 325 325 324 325 324 324 325 323 323 323 324 325
332 331 332 332 328 328 327 326 327 326 330 330 330 329 327 326 326 326 325 325 325 325 323 323 323 321 314 314 321 321 323 323 324 323 324 323 323 323 324 323 324 325
327 327 328 330 330 328 326 327 326 328 329 329 329 327 325 325 324 323 322 322 321 322 323 325 321 317 302 296 300 314 323 321 324 324 323 323 323 323 323 324 324 324
324 325 327 327 329 329 328 327 327 328 328 327 327 326 324 323 322 320 320 320 321 322 324 322 318 307 294 292 294 295 314 327 322 322 323 322 323 323 322 323 324 323
324 325 325 325 326 326 326 326 326 327 324 324 324 324 323 323 321 320 320 321 323 325 322 319 313 295 291 293 293 292 296 318 324 323 322 321 321 320 322 322 322 323
320 320 320 320 321 322 323 322 322 323 323 324 325 325 324 321 322 323 323 325 324 320 318 316 312 292 292 292 292 292 289 301 321 323 321 320 320 319 319 320 321 321
315 315 314 314 316 318 319 319 320 319 321 322 324 324 324 323 323 323 322 321 318 317 314 311 307 295 292 292 292 292 291 297 321 322 321 321 320 320 321 323 323 323
312 312 312 312 311 312 314 315 315 315 315 317 320 323 324 321 320 318 316 315 314 312 310 307 303 291 291 291 291 292 290 297 325 323 320 321 322 322 322 323 323 323
309 309 310 310 309 309 308 309 310 310 311 312 314 315 317 319 320 318 316 314 312 310 308 306 303 291 291 291 291 291 292 320 323 322 321 321 321 322 321 322 322 323
308 307 307 307 308 308 307 308 307 307 309 311 311 312 312 313 313 315 314 313 311 310 308 306 302 294 290 291 292 290 300 320 322 321 322 322 323 323 323 323 326 326
307 307 307 307 307 306 306 307 308 309 309 311 310 309 309 308 308 308 309 311 311 309 308 305 302 295 291 291 292 291 297 317 320 320 321 322 323 323 324 324 316 308
306 307 307 306 306 306 307 307 308 308 307 307 307 308 307 307 305 305 305 306 307 307 308 307 305 299 291 291 291 292 299 310 316 318 319 320 320 321 322 321 313 304
303 302 303 303 303 304 305 306 307 306 307 307 307 306 306 308 307 307 306 305 306 307 307 308 305 299 294 291 291 292 291 305 314 312 312 314 315 315 316 318 316 307

ECMWFNIL_sfc_thetae_048.txt.gz
Theta_e
335 334 332 331 331 332 333 331 331 331 332 335 335 335 335 337 337 338 338 338 340 339 339 338 338 338 340 340 339 338 335 336 334 336 334 335 334 335 335 334 333 332
334 333 332 331 330 331 333 333 331 333 334 334 336 336 336 335 337 337 337 337 337 338 338 337 337 336 338 337 338 335 336 334 333 334 334 334 333 334 333 333 333 333
333 332 329 328 328 328 329 330 331 331 330 333 335 336 336 336 335 337 337 336 335 335 337 337 337 337 337 336 335 334 334 334 333 333 333 333 333 333 333 334 332 332
333 331 329 330 329 329 331 330 331 330 331 334 335 336 335 335 336 336 337 336 336 334 336 337 337 336 334 335 336 335 333 333 332 333 332 333 332 333 332 332 332 332
332 332 332 332 332 331 332 331 331 332 333 337 336 335 333 334 335 334 335 335 336 333 334 335 335 335 336 334 334 334 334 334 334 334 333 332 333 331 332 332 331 331
333 332 332 333 330 330 330 331 331 333 333 334 334 333 333 333 333 333 333 333 334 333 331 333 333 332 333 333 334 333 334 333 334 333 331 331 332 333 332 333 330 329
333 331 332 331 331 330 330 330 331 332 333 334 333 333 333 332 332 330 329 330 330 331 330 332 332 333 334 335 333 333 334 333 332 332 330 329 330 330 332 332 331 330
333 333 331 331 330 330 329 330 332 332 333 332 331 331 330 328 328 328 329 329 328 329 332 329 331 330 332 334 333 332 334 334 333 333 328 328 329 328 331 329 332 328
333 332 331 331 330 329 329 328 331 331 331 331 330 330 330 329 329 330 330 329 330 330 328 329 328 329 331 331 332 332 331 332 333 330 328 328 328 327 326 328 328 328
332 331 331 330 329 327 327 329 330 331 331 330 329 329 329 331 331 328 329 330 329 329 328 329 329 330 329 328 328 329 330 332 331 329 330 330 328 327 325 327 328 328
333 332 331 329 327 327 330 330 330 330 330 329 331 329 328 330 328 329 329 327 330 325 326 328 330 327 328 329 332 331 330 329 329 328 329 329 329 328 328 325 329 327
331 331 331 328 327 329 330 330 331 331 330 331 328 327 328 330 327 328 325 325 325 325 324 327 328 326 326 327 327 330 331 330 329 327 327 326 326 327 326 326 327 328
329 329 330 329 329 329 330 329 328 329 329 327 327 328 328 328 326 327 326 325 324 326 324 324 326 325 327 325 325 327 328 326 329 328 328 328 326 324 324 325 325 327
327 328 328 330 330 329 328 328 328 328 329 328 329 329 327 326 323 326 326 326 329 329 329 325 320 317 317 321 324 328 325 328 327 328 324 326 325 325 326 324 326 326
327 327 328 328 329 328 327 327 327 328 328 327 328 328 328 329 327 325 327 326 329 328 321 319 315 310 306 306 316 316 329 324 327 326 326 323 325 324 326 323 323 322
326 327 327 327 327 326 326 326 326 326 326 326 327 325 325 325 326 326 324 326 327 323 320 317 313 309 300 295 297 310 318 321 326 325 325 323 323 324 321 324 324 320
326 326 325 325 324 323 325 325 325 326 326 327 327 326 326 325 326 325 326 325 323 321 318 313 308 300 294 292 293 295 312 319 324 324 325 323 325 323 324 323 324 323
325 324 324 323 324 323 323 325 326 326 325 325 325 325 324 324 323 322 323 322 320 318 314 311 304 295 292 293 293 293 296 309 320 325 325 324 323 322 321 323 324 323
324 323 322 322 323 325 325 325 324 323 324 324 324 324 322 321 321 323 321 320 317 314 311 307 303 293 292 292 293 292 292 301 315 320 325 322 322 323 321 322 320 321
315 315 317 319 320 321 321 321 321 322 323 323 322 321 319 316 315 315 314 314 313 309 306 302 299 293 291 292 292 292 291 296 316 318 321 323 321 322 324 321 321 323
311 311 312 313 313 314 315 315 315 316 317 318 319 318 317 315 312 311 310 310 309 307 303 302 297 291 291 291 291 292 292 298 318 321 323 320 324 323 321 322 324 323
309 309 309 310 310 310 309 309 310 311 313 314 314 314 315 315 314 312 310 309 308 306 303 301 298 291 291 291 292 291 294 315 320 322 321 322 321 322 321 321 323 324
307 307 307 306 307 307 306 307 306 307 308 311 309 309 309 309 309 311 310 309 308 306 303 300 298 294 291 292 292 291 297 311 318 320 320 324 322 323 318 311 314 320
304 305 305 306 306 305 305 305 305 306 306 307 307 306 306 306 306 306 307 308 307 306 304 302 300 296 291 291 292 292 296 307 312 316 321 321 321 322 313 305 301 304
303 304 304 304 304 304 306 306 305 305 306 306 306 306 305 306 306 305 305 306 306 306 306 303 300 296 292 291 291 292 297 307 311 307 313 315 317 318 310 305 299 296
303 303 303 303 302 303 304 305 306 306 305 305 306 307 307 306 306 305 305 305 305 304 303 304 302 298 294 291 291 292 293 305 305 303 303 305 306 308 311 307 304 299

ECMWFNIL_sfc_thetae_051.txt.gz
Theta_e
329 328 326 325 327 327 326 326 326 327 328 329 330 329 330 331 331 330 332 332 332 330 330 330 330 329 330 331 331 331 332 332 331 330 331 330 329 328 327 327 326 325
328 327 325 326 326 326 326 326 327 327 328 330 331 330 331 331 331 331 331 331 331 331 331 331 330 328 329 331 332 330 330 330 330 332 330 329 329 329 328 328 327 325
328 327 326 326 326 326 326 327 328 328 328 331 331 331 331 331 331 331 331 330 330 329 329 330 330 329 329 330 329 330 330 328 329 331 330 329 328 328 328 328 326 324
329 328 327 326 327 327 327 327 327 327 327 329 330 331 331 331 330 330 330 332 329 329 329 329 329 330 329 329 327 328 330 329 329 330 329 328 328 328 327 328 326 325
329 327 326 325 326 327 327 326 326 326 326 328 330 330 330 329 329 328 328 328 328 327 327 328 328 328 328 329 329 328 328 328 327 328 328 326 327 328 328 327 326 325
328 327 325 325 325 326 325 325 326 327 327 329 329 329 329 328 328 327 326 326 326 327 327 327 328 327 327 328 328 327 327 327 327 328 328 326 326 327 330 327 326 325
325 326 326 327 326 326 325 325 326 327 328 329 328 328 328 328 327 326 325 325 326 326 326 325 325 324 325 326 326 327 327 328 328 328 328 326 327 326 328 328 327 326
327 326 327 326 324 324 325 325 326 327 328 328 327 327 328 327 326 325 323 323 323 324 324 325 325 325 324 325 325 327 327 329 328 327 326 326 325 326 326 328 326 325
327 326 327 325 324 323 324 326 327 327 328 327 326 326 326 325 324 323 322 322 322 323 323 324 324 324 324 323 322 325 327 327 326 324 323 324 324 324 324 325 325 325
327 327 326 325 324 324 324 324 326 326 326 326 325 325 324 323 323 323 323 321 323 322 323 323 323 324 324 323 324 324 325 325 324 323 324 324 324 323 323 323 323 323
325 327 326 325 324 324 324 324 325 325 324 324 324 324 323 323 323 323 323 322 321 321 322 322 322 324 323 322 322 324 324 324 323 323 323 324 324 323 325 323 322 322
324 325 325 325 324 323 324 325 326 325 324 324 324 323 322 324 322 322 322 321 320 319 320 320 322 322 321 321 324 324 323 323 323 321 322 321 322 322 323 323 322 322
323 324 325 325 324 323 325 325 325 325 324 324 324 323 322 321 321 320 320 321 319 318 318 318 318 319 319 320 322 323 323 322 321 319 319 319 319 320 322 324 323 323
323 324 325 324 324 325 326 326 325 325 324 322 322 322 321 321 320 320 319 318 315 314 312 310 309 308 309 312 317 320 320 319 320 319 318 319 318 318 320 323 324 324
321 323 325 324 325 325 325 325 324 324 322 322 322 321 321 320 320 319 318 316 314 310 309 307 305 303 301 301 309 315 318 317 318 318 318 316 316 317 318 321 322 322
322 322 325 325 325 324 324 324 323 322 321 321 321 321 320 319 319 319 317 313 310 308 305 304 301 301 299 297 299 310 313 318 317 316 316 314 315 316 316 317 317 317
323 322 322 324 324 324 324 323 322 321 321 320 319 319 319 318 318 316 314 311 308 305 302 300 298 297 294 293 294 299 309 311 315 314 315 314 315 315 314 313 312 313
322 322 320 321 323 323 323 322 321 321 320 319 318 318 317 317 316 314 312 309 305 302 300 298 296 295 292 293 293 293 301 310 312 314 314 313 314 315 315 313 312 311
321 319 317 317 318 320 321 321 321 320 319 317 316 316 316 314 312 310 307 304 301 299 297 296 295 293 292 293 293 292 294 304 311 312 314 313 312 314 313 314 314 314
316 316 316 317 317 317 318 319 319 317 316 315 313 312 310 309 307 306 304 302 300 298 296 295 294 293 292 293 293 293 293 302 312 313 315 314 313 315 315 315 316 314
311 312 312 313 314 313 312 313 314 314 313 312 311 309 307 306 305 303 302 301 300 298 297 295 294 292 292 292 293 293 296 304 313 315 314 313 314 316 317 316 313 311
306 307 307 308 308 309 309 309 309 309 309 309 309 308 307 306 305 304 302 301 300 299 297 295 294 291 291 292 293 294 298 307 309 311 313 312 309 309 310 312 309 306
303 304 305 304 304 304 304 305 306 305 306 307 306 306 306 305 305 304 303 301 301 300 298 295 294 292 291 292 294 295 301 306 306 310 312 305 302 300 300 301 302 300
303 303 303 304 304 303 303 303 304 304 304 305 304 304 303 304 304 304 304 303 302 300 298 296 295 294 292 292 293 295 300 303 304 307 308 303 300 298 297 296 299 302
303 303 303 303 303 303 303 303 303 304 304 304 304 304 303 303 303 303 302 302 302 302 301 297 296 295 292 292 293 294 299 300 301 303 305 305 303 300 298 297 296 296
303 303 303 303 303 303 304 304 304 304 304 304 303 303 303 303 303 302 301 301 301 300 300 298 295 294 293 292 293 293 295 298 299 301 302 303 305 303 300 298 297 296

ECMWFNIL_sfc_thetae_054.txt.gz
Theta_e
325 326 326 326 326 326 327 328 328 328 327 327 328 329 329 329 328 329 328 329 329 328 327 327 328 328 329 329 328 328 328 327 327 327 327 326 324 325 325 323 321 322
325 325 324 324 324 325 327 328 328 327 326 327 329 329 329 330 329 330 330 329 328 327 327 327 327 327 328 328 328 327 327 328 327 330 327 326 325 325 325 324 323 321
325 324 323 322 324 325 325 326 326 326 325 326 327 327 330 330 329 330 330 329 328 327 327 327 327 327 328 328 327 327 328 327 328 328 328 327 326 326 325 324 323 322
326 325 323 323 324 326 325 324 324 325 325 326 327 326 328 330 329 329 329 332 328 327 327 327 327 327 329 328 327 326 327 328 328 329 328 327 326 326 325 325 323 322
326 325 324 324 325 324 324 324 324 325 326 327 328 329 327 329 328 328 328 327 327 327 328 327 326 326 327 327 326 326 326 326 326 328 327 326 326 326 326 325 323 322
327 327 326 325 324 324 323 324 326 326 325 324 325 328 329 329 328 328 327 326 326 327 327 327 326 326 327 326 325 326 326 326 326 327 326 325 325 325 328 326 324 322
327 326 325 325 324 325 325 326 326 326 326 327 327 326 328 328 327 327 327 326 326 326 326 325 325 325 325 325 325 325 325 326 326 327 325 323 325 324 325 325 324 323
326 325 324 324 324 324 323 324 326 326 327 327 327 328 329 328 327 326 326 326 325 325 325 325 324 325 324 325 325 324 324 325 325 325 324 323 323 324 324 326 324 323
326 324 324 324 323 323 323 324 325 326 328 328 328 328 328 328 326 325 326 325 325 324 324 323 323 323 323 324 324 324 324 324 325 324 323 322 323 324 325 325 323 323
325 325 324 324 322 323 323 324 325 326 328 328 328 327 327 326 325 324 324 324 323 323 323 323 322 322 322 323 324 324 324 324 324 324 323 323 324 324 325 324 323 322
322 324 324 324 323 323 323 324 324 326 327 327 327 326 326 324 323 323 322 322 322 322 322 323 322 322 322 321 322 324 325 324 324 323 323 323 324 324 326 324 323 322
322 323 323 324 323 323 323 324 325 325 326 324 324 324 323 323 323 322 322 321 321 322 322 322 322 322 321 320 321 323 324 324 323 322 322 323 322 322 323 322 323 323
323 324 324 324 323 323 323 324 324 325 325 324 324 323 322 322 322 321 321 321 319 319 320 321 322 321 320 319 321 322 322 322 321 321 321 321 322 321 322 322 322 322
323 322 323 323 323 323 323 323 323 323 323 324 324 323 323 322 321 320 316 313 311 311 310 311 310 308 309 314 321 321 320 320 320 319 319 318 319 320 321 321 321 321
321 321 321 321 321 322 323 323 322 322 323 322 322 321 323 322 318 314 311 309 307 306 305 304 304 302 301 301 308 318 318 319 318 318 316 316 315 317 319 320 320 320
321 321 320 321 321 322 323 323 323 322 322 321 321 322 320 317 314 311 309 307 305 303 302 301 300 300 300 298 298 308 314 317 316 315 314 313 314 314 315 319 320 319
321 321 321 320 322 322 323 323 322 321 320 320 320 318 316 314 311 308 306 305 304 302 300 299 298 297 295 293 295 303 311 312 312 312 312 313 313 314 316 317 314 315
320 320 319 320 322 322 322 322 321 320 319 318 317 315 313 310 308 305 304 302 301 300 298 297 296 295 292 293 294 296 304 310 311 312 312 312 313 313 314 315 314 312
318 319 319 318 319 321 320 319 319 318 317 315 314 312 309 306 304 302 301 300 300 298 297 297 296 294 293 294 295 296 300 308 311 311 311 309 310 312 312 312 310 310
311 316 316 316 316 317 317 318 316 315 314 313 311 308 305 302 301 300 300 299 298 297 296 296 295 294 293 294 295 297 300 306 313 313 313 313 312 312 312 311 309 307
304 311 311 312 312 312 312 311 311 310 310 309 306 304 302 301 300 299 299 299 298 297 296 295 295 293 293 294 295 297 300 304 311 310 308 307 307 307 306 305 302 300
303 304 307 308 309 309 308 307 307 306 305 305 304 303 302 301 300 300 298 298 298 297 296 295 295 292 293 294 296 299 302 308 306 304 302 300 300 300 299 298 298 296
303 303 303 304 305 306 305 305 304 304 304 305 303 302 302 301 301 300 299 298 297 296 295 294 294 293 293 294 296 299 302 305 302 300 298 297 297 297 298 298 297 296
303 303 302 303 303 303 303 303 303 303 303 303 303 302 301 301 301 300 299 298 297 296 296 295 294 294 292 294 295 297 302 303 301 299 297 297 296 296 296 296 299 302
302 303 303 302 302 302 303 302 302 302 302 303 302 302 301 301 300 298 298 298 297 298 299 296 295 295 293 292 294 296 302 305 304 301 299 298 297 296 296 295 295 296
302 302 302 302 302 303 303 303 303 303 302 302 302 301 300 299 298 297 296 296 297 297 297 296 295 295 294 292 293 294 298 305 305 303 302 301 301 299 297 296 296 295

ECMWFNIL_sfc_thetae_057.txt.gz
Theta_e
324 326 325 326 326 325 324 324 323 323 324 326 326 327 327 326 328 327 327 327 327 327 326 326 326 325 326 326 326 326 326 325 325 325 325 325 324 322 322 322 320 322
325 326 326 326 325 324 325 326 325 325 324 325 324 323 326 326 325 326 326 326 327 327 326 326 326 325 325 325 325 324 324 324 325 326 324 324 324 323 323 323 322 321
326 326 326 325 324 323 324 325 326 326 325 326 325 324 326 326 325 325 325 326 326 326 325 325 325 325 326 326 326 325 325 325 325 325 325 324 324 323 323 323 322 321
325 326 325 325 324 323 323 324 324 324 324 325 325 325 326 326 326 326 327 328 326 325 324 324 325 326 327 327 326 326 326 326 326 326 325 323 324 324 323 323 322 320
325 326 325 324 324 324 323 324 324 324 323 325 325 325 325 325 325 325 326 326 326 325 324 324 325 326 327 326 326 325 325 325 325 325 325 323 324 324 323 323 321 320
327 327 325 324 324 323 323 323 323 324 323 323 324 325 325 325 325 325 325 325 326 326 325 324 324 324 325 326 325 325 325 324 324 325 325 324 323 323 324 323 321 320
325 326 325 324 324 324 323 323 324 324 324 324 325 324 324 325 325 326 326 326 326 326 325 323 323 323 324 324 324 323 324 324 324 325 325 323 323 322 323 323 322 321
326 327 326 325 323 323 323 323 323 323 324 324 324 325 325 325 325 326 325 324 325 325 325 325 324 324 323 323 323 323 323 324 324 324 323 321 320 322 322 324 322 321
326 326 326 325 323 323 322 323 323 324 324 324 324 324 326 326 326 326 325 324 324 325 325 324 324 323 323 322 322 323 322 322 323 323 322 321 321 322 323 322 321 321
324 325 325 324 322 322 322 322 323 324 325 325 325 326 326 326 326 326 325 325 324 323 323 323 323 323 323 323 323 323 322 322 322 322 322 322 322 323 323 323 323 321
322 323 323 323 322 322 321 321 322 323 325 325 325 325 325 323 323 325 324 324 323 323 323 322 322 323 323 322 322 322 323 322 322 322 322 322 322 323 326 323 322 322
322 322 322 322 322 321 321 321 321 322 322 324 325 324 322 321 323 323 323 324 323 323 323 323 322 322 322 321 321 321 322 322 322 322 322 322 322 322 324 323 323 322
321 322 322 322 322 322 322 322 322 321 322 323 323 323 322 321 321 320 318 321 322 322 322 322 321 320 320 319 320 321 322 321 321 321 321 321 321 322 323 323 323 323
321 321 320 320 321 322 322 322 322 322 322 321 322 321 320 320 320 319 319 319 317 319 318 319 319 317 316 318 320 321 320 320 320 320 319 319 320 320 321 321 321 322
316 319 318 319 322 322 321 322 322 321 321 321 320 320 320 320 319 318 313 311 310 311 310 311 313 310 308 312 318 318 319 320 319 319 319 318 318 318 318 319 319 319
309 316 319 318 320 320 321 322 321 321 321 320 320 321 320 319 317 314 312 309 307 305 305 306 304 303 304 302 306 317 317 319 318 317 317 317 316 315 315 316 317 315
306 309 316 318 319 320 321 321 321 320 320 319 319 319 317 315 313 310 308 307 306 304 302 302 300 300 296 294 296 302 314 314 315 315 314 315 315 315 315 315 311 311
305 307 310 317 318 320 321 321 319 319 318 318 318 316 313 311 310 308 305 304 302 301 300 299 298 297 293 295 298 301 308 313 314 314 312 312 313 314 314 314 312 310
304 305 307 312 317 319 321 319 319 319 318 317 317 315 309 308 306 304 302 301 300 299 298 298 296 294 294 295 298 300 302 307 311 310 310 308 307 308 311 311 310 307
303 304 304 306 313 317 317 317 318 318 317 315 311 308 306 304 302 301 300 299 298 298 297 297 297 295 295 297 298 298 300 305 310 310 309 308 308 308 309 307 306 305
303 303 303 304 305 312 314 315 317 316 313 309 306 305 303 301 300 299 298 298 297 297 297 296 296 294 295 297 298 299 300 302 306 305 303 301 300 300 300 300 300 299
302 302 302 303 303 305 310 311 313 310 306 304 303 301 301 300 299 299 297 296 296 296 296 295 295 293 296 297 298 298 299 303 301 300 299 298 297 296 296 296 296 296
301 301 302 302 302 302 303 305 305 303 302 302 300 300 299 299 298 297 297 296 296 295 295 295 295 294 295 296 296 296 298 300 299 298 297 296 296 296 297 298 297 296
301 301 302 302 302 301 301 302 302 302 301 302 300 299 298 298 298 297 297 296 296 295 296 296 295 295 294 295 295 296 299 300 298 297 295 294 293 294 294 295 298 300
301 301 300 302 302 302 302 301 301 301 301 301 300 299 298 298 298 297 296 296 296 297 300 297 296 296 294 294 295 296 299 300 299 298 296 295 294 294 294 294 294 295
300 300 300 300 302 302 302 302 302 300 299 299 298 298 297 297 297 297 296 296 297 297 297 296 295 295 294 293 295 296 298 302 301 299 297 296 296 296 295 295 294 294

ECMWFNIL_sfc_thetae_060.txt.gz
Theta_e
324 324 324 324 324 325 325 326 326 326 326 326 326 325 325 325 328 328 327 327 327 327 327 327 328 328 328 326 327 327 327 327 327 327 326 326 325 324 324 323 323 324
323 324 324 325 325 325 325 326 326 325 325 326 326 326 326 326 327 328 327 326 327 327 327 327 327 327 326 326 327 326 326 326 326 327 326 325 325 325 324 324 324 324
323 324 323 323 324 325 326 327 327 326 325 326 326 326 326 326 327 328 327 327 327 327 327 326 326 326 327 326 326 327 326 326 325 326 326 326 325 324 324 324 324 323
323 324 324 324 325 326 326 326 326 326 325 325 325 325 326 326 327 326 326 328 326 326 326 326 325 325 327 326 326 326 326 326 326 326 325 325 325 324 323 324 324 323
324 324 325 326 326 326 326 326 326 325 324 325 325 325 326 325 325 326 326 326 326 325 325 325 325 325 326 326 326 325 325 325 325 326 325 324 324 324 324 324 323 323
325 325 326 326 326 325 324 325 326 325 324 324 324 325 325 326 325 325 325 325 325 325 325 324 324 325 325 326 326 325 325 324 324 325 324 324 324 324 324 324 324 322
325 325 325 325 324 324 324 325 326 325 324 324 324 324 325 325 325 325 325 325 325 325 324 324 324 324 325 326 325 325 325 325 325 325 325 324 324 323 324 324 324 323
325 326 326 327 325 324 324 324 324 324 323 323 324 324 325 325 325 325 325 325 325 325 324 324 324 324 324 325 324 324 324 325 325 326 325 324 324 323 323 324 324 323
324 324 326 326 325 324 323 324 323 323 323 323 324 324 325 325 325 325 325 325 325 325 325 324 324 323 324 324 324 324 324 323 325 325 325 324 323 324 324 324 323 323
322 322 322 322 324 325 324 323 323 323 323 323 324 324 324 324 325 326 325 324 324 324 324 324 324 323 323 324 324 324 323 322 323 325 325 325 325 325 325 324 323 322
317 322 322 321 321 322 323 323 322 323 323 324 324 324 324 324 324 325 324 324 323 323 324 324 324 323 323 323 324 324 324 323 323 324 325 325 325 325 326 325 324 323
309 311 317 322 321 320 321 322 322 322 323 324 325 324 324 324 324 324 324 324 324 324 324 324 324 323 323 323 323 323 324 324 324 324 324 325 324 325 326 326 325 325
307 309 310 315 321 321 320 321 321 321 323 323 324 324 323 322 323 322 321 322 321 322 323 323 323 323 323 323 323 323 323 323 323 323 322 323 323 324 325 325 326 325
305 307 309 312 317 321 321 321 321 321 322 322 323 323 323 322 322 322 321 320 320 321 321 322 322 322 322 322 323 323 323 323 323 322 322 322 322 323 324 324 324 324
305 306 308 311 315 319 320 320 321 321 321 321 322 322 322 322 322 321 320 319 319 319 319 320 320 320 321 321 322 322 322 322 322 322 322 322 321 322 323 323 324 324
304 305 306 308 312 317 320 321 321 320 321 321 321 322 321 321 320 320 319 318 317 315 315 316 318 317 315 312 313 321 322 322 322 321 321 321 321 320 320 321 322 321
304 304 305 306 308 313 318 321 321 320 320 320 320 320 320 319 319 317 315 316 316 314 312 312 311 310 304 302 305 309 319 321 320 320 320 320 320 320 319 318 318 318
303 303 304 305 306 308 314 320 321 320 319 319 319 318 318 318 317 316 314 312 312 311 311 309 307 302 295 296 299 302 309 319 319 319 318 319 319 319 319 317 316 314
302 303 303 303 304 306 309 316 320 320 319 318 318 318 315 315 315 312 310 308 308 307 306 305 304 296 294 294 295 297 302 311 317 317 317 315 315 316 316 316 314 311
302 302 302 302 303 304 307 312 318 318 318 317 316 313 312 311 309 308 306 305 305 305 303 301 301 297 294 294 295 296 298 306 313 312 311 310 311 313 314 314 313 311
301 301 301 302 302 302 303 303 307 315 315 313 312 310 308 306 306 303 302 302 302 301 301 300 299 296 295 294 295 296 299 303 309 306 304 302 302 304 306 307 307 307
300 301 301 301 301 301 300 300 301 301 304 305 305 302 302 301 301 301 300 299 299 300 300 299 298 295 294 294 296 297 299 306 304 302 301 300 299 299 299 299 300 301
300 300 300 300 300 299 299 298 298 299 299 300 301 301 300 299 298 298 298 298 298 299 300 299 299 296 295 295 296 296 300 303 301 300 299 298 298 299 299 299 298 298
300 300 300 300 300 299 298 298 299 299 298 299 298 297 297 297 298 297 298 298 298 298 300 299 297 295 294 295 295 296 300 302 300 298 297 296 295 296 297 298 301 300
298 300 300 300 300 299 299 298 298 298 298 298 298 298 297 298 298 297 297 297 298 298 300 298 298 296 293 293 294 296 300 300 299 297 296 295 295 295 296 296 295 296
297 299 300 300 300 300 300 299 299 299 298 298 298 298 297 297 297 297 296 296 297 297 297 297 296 296 295 293 294 295 296 300 300 298 296 296 296 296 296 296 295 295

ECMWFNIL_sfc_thetae_066.txt.gz
Theta_e
332 332 332 332 333 333 333 332 333 333 333 333 333 335 337 339 336 336 335 336 336 337 337 336 335 334 334 332 332 332 332 332 333 335 335 335 334 336 336 335 335 335
330 332 332 332 332 333 333 333 333 333 334 335 335 336 337 338 338 336 336 337 336 335 335 334 332 332 332 331 331 330 331 332 331 334 334 332 332 337 338 336 333 333
327 328 329 331 331 333 333 334 335 334 333 334 335 336 336 337 337 337 337 336 335 335 334 333 333 332 332 332 332 332 332 332 332 334 334 332 335 335 337 337 334 333
325 326 326 328 331 332 333 333 334 334 335 333 333 334 335 335 335 334 336 336 336 335 334 332 332 332 331 331 331 331 333 333 334 335 333 334 331 332 335 337 334 332
322 322 323 325 328 331 333 333 333 334 334 334 334 334 334 334 334 333 334 334 335 335 334 332 332 331 331 330 332 331 332 333 333 333 332 331 332 334 334 336 333 333
322 321 322 324 326 327 330 331 332 333 333 333 333 334 334 333 332 333 334 334 334 334 333 332 330 330 331 329 330 330 332 331 331 332 331 329 331 333 334 333 330 329
320 321 322 322 324 327 327 329 332 333 333 333 332 331 333 333 332 332 333 334 334 334 334 333 331 329 330 330 331 330 333 333 332 331 330 332 333 332 334 330 330 330
319 320 321 322 323 325 325 326 328 331 332 332 331 331 331 331 331 332 332 333 333 332 332 333 332 330 329 330 330 330 330 332 331 331 330 332 333 332 330 332 334 333
317 317 318 320 321 322 322 323 325 328 330 331 330 330 331 331 331 331 331 331 331 332 332 334 335 331 330 328 328 330 330 331 330 330 330 331 332 333 332 332 332 333
316 316 317 317 318 319 319 321 322 324 326 328 330 331 330 331 331 331 331 330 330 331 333 334 335 331 330 330 329 330 329 329 329 330 331 330 330 330 331 331 331 332
315 316 315 315 315 316 318 319 320 321 324 326 329 330 330 330 331 331 331 331 331 331 332 334 334 332 330 330 330 332 331 329 329 329 329 330 330 331 330 331 331 331
314 314 314 314 314 315 316 317 319 320 321 324 327 328 329 330 330 331 330 331 331 330 332 333 334 332 331 330 328 329 331 331 329 329 330 330 332 332 331 331 330 330
313 313 312 313 313 314 315 316 318 318 318 320 323 326 328 328 329 330 331 331 332 333 332 332 333 333 333 332 330 329 328 329 327 328 329 331 332 332 332 329 330 331
312 312 312 312 312 313 314 315 315 317 319 319 321 323 326 328 329 330 331 331 332 331 332 333 333 333 334 333 331 330 328 329 329 328 329 331 333 332 331 330 329 332
311 311 312 312 311 311 312 312 313 315 316 319 321 322 324 327 328 329 329 329 331 331 332 333 333 334 334 334 331 329 330 329 329 328 329 329 331 332 331 331 331 332
310 311 311 311 310 310 310 310 311 312 313 313 316 320 324 326 327 329 329 330 330 330 332 331 333 335 328 316 318 329 330 331 331 328 329 328 328 326 326 329 327 330
309 309 310 310 310 309 309 309 309 309 310 310 311 313 316 322 326 326 328 330 328 326 325 328 333 332 314 305 307 312 327 330 329 329 328 328 327 328 327 325 329 333
308 308 309 309 309 308 308 308 308 307 307 307 308 308 309 313 320 324 327 327 328 327 326 329 329 319 307 303 304 304 314 328 329 327 327 329 329 328 325 329 332 332
307 307 307 308 308 308 308 307 306 305 305 305 305 306 307 307 307 309 313 319 322 324 326 327 329 313 302 302 303 302 302 318 330 328 327 328 325 329 330 328 328 328
307 307 306 307 307 307 307 306 305 304 304 305 305 304 303 303 304 306 308 309 310 311 317 324 318 295 294 295 296 297 299 306 330 329 329 328 327 327 328 328 329 329
307 306 306 306 307 307 307 306 305 305 304 304 303 303 301 300 301 302 303 305 306 307 310 314 309 293 292 293 294 293 295 298 326 327 327 329 331 329 330 333 332 332
306 306 305 306 306 306 305 305 305 304 304 304 303 302 302 301 301 301 300 301 302 302 304 307 309 293 292 292 293 295 293 309 323 325 325 327 331 333 332 331 333 333
305 305 305 305 306 305 304 304 304 304 304 304 303 302 301 300 300 299 300 299 299 300 300 302 305 297 292 291 292 292 295 313 322 325 327 328 329 330 332 332 334 334
305 305 305 305 305 304 304 305 305 305 304 304 303 302 301 301 300 300 300 300 298 298 298 298 300 298 292 291 291 292 295 311 323 324 324 325 326 327 328 330 324 314
305 305 305 304 304 304 304 304 304 304 305 305 304 304 304 303 301 300 299 299 299 299 299 298 299 298 293 291 291 291 301 312 317 323 322 323 322 322 323 324 321 315
306 305 304 304 304 304 304 304 304 304 304 304 304 304 304 304 303 301 299 299 300 299 298 298 297 298 295 291 291 292 293 308 313 316 320 321 321 319 318 320 320 319

ECMWFNIL_sfc_thetae_069.txt.gz
Theta_e
329 329 330 331 332 333 333 333 334 334 334 334 335 336 336 338 338 341 341 340 340 340 340 339 338 339 337 336 338 338 337 336 336 334 334 333 334 335 333 332 332 333
327 328 329 330 329 332 334 335 334 334 334 335 335 336 337 338 339 337 338 340 340 339 339 339 339 339 338 337 337 336 336 337 332 334 332 332 334 334 334 334 333 333
325 326 327 328 329 330 332 335 335 335 335 335 336 336 336 337 337 337 335 333 333 340 339 335 336 340 336 337 336 334 333 334 333 335 332 335 334 332 335 335 334 332
324 325 326 327 328 329 331 332 335 335 335 335 335 336 337 337 337 337 337 335 333 333 335 334 334 334 336 336 335 335 333 332 333 335 333 333 332 334 334 335 335 332
324 324 324 325 326 327 329 331 333 334 334 335 336 336 336 335 337 337 336 337 336 335 333 334 336 336 336 334 334 333 334 334 334 335 334 332 332 330 331 335 333 330
322 322 323 323 324 324 325 328 330 332 333 335 335 335 336 336 336 335 334 335 336 335 336 337 336 336 336 334 334 333 333 334 333 333 333 331 332 332 333 330 331 330
321 321 322 322 322 323 323 325 326 326 328 331 332 334 334 334 334 334 334 335 334 333 334 334 333 333 334 335 333 332 333 333 332 331 330 329 329 330 334 331 331 330
320 321 320 320 321 321 320 321 322 323 325 326 328 330 332 333 332 334 334 334 333 333 332 332 333 333 332 334 334 333 331 331 330 328 327 329 332 331 333 332 331 330
319 319 319 319 318 319 319 319 320 322 323 323 324 327 329 331 332 333 333 333 333 333 333 333 333 334 335 334 333 331 331 331 329 328 328 330 331 332 331 332 331 330
318 318 318 317 317 317 317 318 320 321 322 322 322 323 324 328 330 332 332 332 333 332 333 331 333 334 333 332 331 330 332 331 329 329 329 328 328 329 330 330 329 330
316 316 316 317 316 316 316 317 318 318 319 320 321 321 323 324 326 330 331 332 331 332 331 332 333 333 331 330 332 333 333 332 331 331 331 330 329 331 329 328 328 329
315 315 315 316 315 316 316 316 316 316 316 318 319 321 323 324 324 327 330 330 332 330 333 332 333 333 330 330 331 333 334 333 333 333 332 332 331 332 330 328 329 330
314 314 314 314 314 314 315 314 315 315 314 314 316 317 318 320 323 325 328 330 331 331 330 332 333 332 330 330 329 332 335 334 334 333 332 331 331 332 332 330 330 331
313 313 313 314 314 314 313 313 313 313 313 313 314 314 314 314 315 319 325 328 330 329 330 330 329 332 330 331 330 333 333 333 333 333 332 330 331 332 332 333 329 328
312 313 313 313 313 312 312 312 312 312 312 311 311 311 311 311 312 314 317 323 327 329 330 329 330 329 328 328 331 330 330 331 332 330 331 330 330 331 332 332 331 331
311 312 311 312 311 311 311 311 311 311 310 309 309 309 309 308 309 310 312 315 318 321 324 326 327 326 317 312 313 324 329 330 329 329 329 329 329 329 329 329 331 331
310 310 310 310 310 310 310 310 310 310 309 308 308 308 307 307 306 306 308 310 312 315 318 320 313 300 294 294 302 307 321 329 328 329 330 330 330 329 328 329 330 330
309 309 308 308 309 309 309 309 309 308 308 307 307 307 306 306 304 304 304 306 307 310 313 313 304 297 292 293 293 294 299 317 328 328 330 330 330 331 331 330 328 328
309 308 308 308 308 308 308 308 308 307 306 306 306 306 306 304 303 303 303 303 303 303 306 311 303 294 292 292 292 292 293 300 317 327 331 331 329 326 327 326 326 328
308 307 307 307 308 308 308 307 307 306 306 306 306 306 305 304 303 302 302 301 301 301 302 306 302 295 292 292 292 292 292 295 312 319 325 329 329 327 326 327 327 326
307 307 306 306 306 306 307 306 306 306 306 306 306 305 304 303 303 302 302 301 301 300 301 301 303 293 292 291 291 292 291 295 312 317 322 326 327 330 330 329 329 328
306 306 306 306 306 305 305 305 305 305 305 305 306 306 306 305 304 303 302 301 301 300 299 298 301 294 292 291 291 291 291 306 314 318 321 324 326 327 327 329 327 325
306 305 305 305 305 304 304 304 304 304 304 305 304 305 304 304 304 304 303 302 301 300 298 298 299 296 292 291 291 291 294 306 312 318 321 322 324 325 328 329 329 328
305 305 305 305 305 304 303 304 304 304 304 304 303 303 303 303 303 304 305 304 302 300 300 298 298 297 293 292 291 291 293 304 311 315 319 323 323 324 325 326 327 322
305 305 305 304 304 304 304 303 303 303 304 304 303 303 303 303 303 303 303 303 303 302 302 299 298 297 294 292 291 291 293 302 311 314 314 317 321 323 323 324 321 319
304 304 304 304 304 304 304 304 304 304 303 303 303 302 302 302 302 302 301 301 302 302 302 301 299 298 297 292 292 292 291 298 310 308 308 310 315 321 321 322 323 321

ECMWFNIL_sfc_thetae_075.txt.gz
Theta_e
318 320 319 319 319 320 319 319 321 323 324 324 324 325 327 327 330 330 332 332 332 332 331 330 329 329 329 329 329 328 328 328 328 329 328 328 329 329 329 328 327 328
316 317 319 318 317 317 317 318 319 320 319 320 322 323 324 325 326 327 328 331 331 331 329 328 328 327 327 327 327 327 326 326 326 328 327 327 327 328 327 328 328 329
315 315 315 314 314 314 314 316 316 316 317 318 319 320 321 323 323 324 325 327 329 330 331 328 327 326 326 326 327 328 326 325 325 328 327 326 327 327 327 327 326 327
314 314 313 313 314 314 314 313 313 314 315 315 315 317 318 319 320 321 322 325 325 327 330 330 327 327 327 328 328 327 327 326 326 327 327 327 326 327 327 327 326 326
313 312 313 313 313 313 312 312 312 313 313 313 314 315 315 315 316 317 317 318 320 322 327 329 329 326 326 327 327 327 327 327 327 327 326 325 326 326 326 327 326 325
312 312 313 312 312 311 310 310 311 312 313 312 312 313 313 314 314 313 314 315 316 319 321 325 328 328 326 324 325 324 324 324 326 326 325 325 325 327 328 327 326 326
310 311 311 311 310 311 310 309 310 311 312 311 311 311 311 311 310 310 311 312 314 316 319 316 313 316 324 326 325 325 325 325 325 325 325 325 326 326 327 326 326 325
310 310 310 310 309 309 309 309 308 309 310 310 308 309 309 308 307 308 309 309 312 313 313 306 306 306 307 308 308 311 318 325 325 325 324 324 325 326 326 326 325 325
309 309 309 308 308 308 308 307 307 308 309 308 307 307 307 307 306 306 307 306 308 308 308 305 303 305 304 304 304 305 308 312 319 324 325 324 323 324 325 326 326 326
307 307 307 307 307 307 307 307 306 307 308 307 306 306 305 305 305 305 306 304 306 305 306 301 301 301 300 299 300 300 301 304 308 314 323 325 325 325 325 326 326 326
306 306 306 306 306 307 307 307 306 307 308 307 306 305 305 304 304 305 304 303 303 303 305 300 300 299 298 298 298 298 298 300 302 307 313 321 325 325 326 326 326 325
305 305 305 305 306 307 307 307 307 307 307 307 306 305 304 304 303 303 304 303 302 302 304 300 299 299 298 297 297 297 297 298 300 303 308 313 320 325 325 325 324 324
304 304 305 304 305 305 306 306 306 307 307 306 306 305 304 303 303 302 303 303 302 302 303 301 299 299 298 297 296 296 296 296 297 299 303 308 313 322 326 325 325 324
304 304 304 304 304 304 304 305 305 305 306 306 307 305 304 303 302 302 302 302 302 302 302 302 299 298 297 296 296 296 295 296 296 298 300 303 308 316 323 325 325 324
303 304 303 303 303 303 303 303 303 304 304 305 305 305 306 305 304 303 302 301 301 301 301 301 299 298 297 296 295 295 295 295 296 296 298 300 306 312 319 324 324 324
303 303 302 302 302 302 302 302 302 303 303 302 303 303 304 304 304 304 303 301 300 300 301 301 298 297 298 296 296 295 295 295 296 296 297 299 304 311 316 321 325 325
301 301 301 301 301 301 301 301 302 302 302 302 302 302 302 303 302 302 302 301 300 299 299 300 298 297 294 293 293 294 295 295 295 296 298 300 305 310 314 317 321 324
300 300 300 300 300 300 300 300 300 301 301 302 301 301 301 302 300 300 300 300 300 299 298 299 298 296 292 293 293 293 295 296 297 299 301 303 306 311 315 317 319 321
300 299 299 299 299 299 299 299 299 299 299 300 300 301 301 300 300 299 299 300 299 298 297 298 297 295 292 293 293 292 293 295 297 298 301 304 307 311 314 316 318 320
299 299 298 298 298 298 297 298 298 298 298 299 299 300 299 299 299 298 298 298 299 298 297 297 296 295 292 292 292 292 292 294 297 297 298 300 302 306 308 309 312 315
298 298 298 297 296 296 296 296 296 297 297 298 298 299 298 298 298 297 297 297 297 297 297 296 296 294 292 292 292 292 292 295 297 297 297 298 301 303 303 304 304 304
297 296 297 296 295 295 294 294 295 295 296 297 298 298 299 298 297 297 296 296 297 296 296 294 295 293 292 292 292 292 293 296 296 296 296 297 298 298 300 300 302 302
296 295 296 295 295 294 293 293 294 294 295 297 296 296 296 296 296 297 298 296 296 296 295 294 294 294 292 292 292 292 293 295 295 295 296 296 296 297 298 298 299 300
295 294 294 295 294 294 293 293 294 294 295 296 295 295 295 296 296 296 297 297 296 295 296 294 294 294 293 292 292 292 293 293 294 294 295 295 295 296 296 296 298 301
295 295 294 294 294 294 294 293 293 294 294 295 295 295 295 295 297 295 295 295 296 297 299 295 294 295 293 292 292 292 293 293 293 293 294 294 294 294 295 295 295 297
295 295 295 294 294 293 294 293 293 293 293 293 293 293 293 293 294 294 293 294 295 296 296 296 295 294 294 292 292 292 292 293 293 292 292 293 293 293 292 293 294 294

ECMWFNIL_sfc_thetae_078.txt.gz
Theta_e
314 315 314 313 313 314 312 312 313 314 314 315 314 315 316 317 319 319 320 322 323 325 327 329 329 328 328 327 327 327 327 327 328 329 329 328 327 327 327 326 325 325
312 313 313 312 312 312 312 312 311 311 312 312 313 313 314 315 315 315 315 317 319 320 323 322 322 324 326 326 324 323 323 325 325 328 327 327 327 327 326 326 326 326
310 310 310 309 309 309 309 311 311 311 310 310 311 311 311 312 311 311 312 314 315 318 312 311 312 313 314 320 324 324 324 325 326 327 327 326 327 326 326 326 325 325
310 309 309 309 308 308 308 309 310 309 309 308 308 309 309 308 308 308 309 312 313 309 307 308 308 308 309 310 312 317 321 325 326 327 326 327 327 327 327 327 326 326
308 308 308 308 308 308 307 308 308 307 306 306 306 307 306 306 306 307 307 308 310 306 306 306 305 306 306 305 306 308 310 314 318 321 323 325 326 326 326 326 325 325
308 308 308 308 307 306 306 307 307 306 305 305 304 305 305 306 305 305 305 307 307 304 302 303 302 303 303 302 303 303 304 306 308 310 312 316 323 326 327 326 326 325
306 306 306 307 306 306 305 306 306 306 305 304 304 303 304 304 304 304 304 305 306 304 301 300 300 300 300 300 300 299 300 301 303 306 307 310 314 320 325 326 326 325
305 305 306 306 305 305 305 305 305 305 304 304 303 303 303 303 303 303 303 303 304 303 300 300 300 299 299 299 298 298 298 299 300 300 302 305 309 313 318 324 326 325
305 305 305 305 305 305 305 306 306 305 305 303 303 302 303 303 302 302 302 302 302 303 301 300 299 299 298 298 297 297 297 297 298 298 299 301 304 308 312 316 321 324
303 303 303 303 304 305 305 306 306 306 306 303 303 302 302 302 302 301 301 301 301 301 301 299 298 298 298 297 296 296 296 296 297 297 298 299 300 304 308 311 316 320
302 302 302 302 302 303 303 304 305 305 307 306 304 303 302 302 302 302 300 300 300 300 299 298 297 297 297 296 296 296 296 296 296 297 297 297 298 300 306 308 312 317
301 301 301 301 302 301 302 303 303 303 303 304 305 304 303 302 301 301 301 299 300 300 299 298 297 297 296 295 295 295 295 296 296 296 297 298 298 299 301 304 309 315
301 301 300 300 300 301 301 302 301 301 302 302 303 302 302 302 301 300 300 299 300 300 299 298 297 296 295 295 295 295 295 295 296 296 297 298 299 300 301 303 307 313
300 300 300 301 300 300 300 300 301 301 301 301 302 300 300 300 300 300 299 299 299 299 299 298 296 295 295 295 294 295 295 295 296 297 297 299 300 301 303 305 309 313
300 300 300 300 300 299 299 299 300 300 300 300 300 300 301 299 299 299 298 298 297 297 297 297 296 295 295 294 294 294 295 295 296 297 298 299 301 303 305 307 311 314
298 298 298 298 298 298 298 298 299 299 299 298 299 299 298 299 298 298 298 297 296 296 297 297 295 295 297 295 295 294 294 295 296 297 298 298 300 301 304 305 306 306
296 296 296 296 296 297 297 298 298 298 298 298 298 298 298 298 297 297 297 297 296 296 296 296 295 295 294 292 292 293 295 295 296 296 297 298 299 299 300 301 301 303
295 294 294 294 295 295 296 296 297 297 297 297 297 297 297 297 296 296 296 296 296 295 295 295 295 295 292 292 292 292 294 296 296 296 297 297 298 298 299 298 299 300
294 294 293 293 293 294 295 295 295 295 296 296 296 297 296 296 295 295 295 296 295 294 294 294 294 294 292 292 292 292 292 294 296 296 296 296 296 297 297 297 298 299
294 293 293 292 293 293 294 294 294 294 294 295 296 295 295 295 294 294 295 295 295 294 294 294 294 294 292 292 292 291 291 293 295 295 296 296 296 296 296 296 297 297
294 293 292 292 292 292 292 292 293 293 293 294 294 294 293 293 293 293 294 294 294 294 293 293 294 293 292 292 291 291 292 293 294 295 295 295 295 295 296 295 295 297
293 292 291 291 292 292 292 291 291 291 291 292 293 292 293 293 293 293 293 292 293 293 293 292 293 293 291 291 291 291 292 294 293 293 294 295 294 295 294 295 295 296
293 292 291 291 291 291 290 290 290 291 291 292 290 291 291 292 292 292 292 292 293 293 292 291 292 293 291 291 291 291 292 292 293 292 293 293 294 294 294 294 294 296
292 292 291 291 290 290 290 290 290 290 291 292 290 290 290 290 292 291 291 291 291 291 293 291 291 292 292 291 291 291 293 291 292 291 291 293 293 293 293 293 294 298
292 292 291 290 290 289 290 289 289 290 291 290 290 289 290 289 293 290 290 290 290 291 295 291 290 292 292 291 291 291 292 292 291 291 290 291 292 292 293 292 292 294
293 293 291 290 290 289 290 290 290 289 289 289 289 289 288 288 289 289 289 289 289 289 290 290 290 290 292 291 291 291 291 292 292 291 290 290 291 292 291 291 291 291

ECMWFNIL_sfc_thetae_084.txt.gz
Theta_e
307 307 306 305 305 305 303 302 302 302 302 303 303 303 304 305 306 308 306 303 303 302 302 302 302 301 301 301 302 304 305 306 306 307 307 310 312 314 316 319 322 325
305 307 307 305 304 304 303 303 302 302 302 302 302 303 304 304 304 306 306 303 302 301 301 300 300 300 300 299 300 301 301 302 303 305 305 306 307 309 311 313 316 320
304 304 303 303 302 302 302 303 302 302 301 301 302 302 302 303 303 305 305 302 300 299 299 299 299 299 299 298 298 299 299 299 300 301 302 302 303 305 306 308 310 313
303 303 303 303 303 302 302 302 302 302 301 301 301 301 302 302 302 303 301 301 299 298 298 298 298 298 298 297 297 297 298 298 299 299 299 300 301 302 302 304 305 307
303 303 303 303 303 303 303 302 301 301 301 301 301 301 301 301 301 301 300 299 299 298 298 297 297 297 297 296 297 296 297 297 298 298 298 298 299 300 301 302 302 303
303 304 305 304 304 302 302 302 302 301 301 300 300 301 300 300 301 300 300 299 298 298 297 297 296 297 297 296 296 296 296 296 297 298 298 298 299 300 301 301 301 301
301 302 302 304 304 305 303 302 302 303 301 301 301 300 299 299 300 300 299 299 298 297 296 296 296 296 296 296 296 295 296 297 297 298 297 298 299 299 300 301 301 301
300 301 301 301 301 301 302 302 302 301 302 301 300 300 300 298 298 299 299 298 297 296 296 295 295 295 295 295 295 295 295 296 297 297 297 298 299 298 299 300 301 301
300 300 300 300 299 300 299 300 300 300 301 299 299 299 299 299 298 298 298 297 297 296 295 295 295 295 295 294 294 294 294 295 296 297 297 297 298 298 299 300 300 301
299 299 299 298 298 299 299 299 299 299 301 298 298 298 297 298 298 297 297 297 296 295 295 294 294 294 294 294 294 294 294 295 296 296 297 297 297 297 298 299 299 299
298 298 298 298 298 298 298 298 298 298 300 299 298 297 297 297 297 298 296 296 295 295 295 294 294 294 294 293 294 294 295 295 296 296 297 297 297 297 299 297 298 298
297 297 297 298 299 298 298 298 298 298 298 298 298 296 297 297 296 296 297 295 295 295 295 294 294 294 294 293 294 294 294 295 296 296 296 297 297 297 296 297 297 297
296 296 297 297 297 297 298 297 297 297 297 297 298 297 296 296 296 295 296 295 295 295 295 294 294 294 293 293 293 293 294 294 294 295 296 296 297 296 296 296 297 297
295 296 296 297 297 297 297 297 296 296 296 297 297 296 296 295 295 295 295 295 295 294 295 295 294 293 293 293 293 293 293 293 294 294 294 295 296 296 296 296 296 296
295 295 295 296 296 296 296 295 296 295 295 295 295 295 297 296 295 295 294 294 294 294 294 294 293 293 294 293 293 293 293 293 293 293 293 293 294 294 295 295 296 296
294 295 294 294 294 294 294 295 295 295 295 294 294 294 294 295 294 294 294 293 293 293 293 293 293 294 295 294 294 293 293 293 293 293 293 293 293 293 294 295 295 295
293 293 293 293 293 293 293 293 293 293 293 293 293 293 292 293 292 292 292 293 292 292 292 292 292 294 293 291 291 292 294 293 292 292 292 292 292 292 293 293 294 294
292 292 291 291 291 291 291 291 291 291 291 291 291 292 292 292 291 291 291 291 292 291 291 292 292 294 291 291 291 291 293 293 292 292 292 292 292 292 293 293 293 293
291 290 290 290 290 290 291 290 290 290 290 290 289 291 291 290 290 290 290 290 291 290 291 291 291 292 291 291 291 291 291 293 292 292 292 292 292 292 292 292 292 292
290 290 289 289 290 290 289 289 289 289 289 289 289 289 289 289 289 289 289 289 290 289 290 290 290 292 291 291 291 291 291 292 292 292 292 291 291 292 292 292 292 292
290 289 289 289 289 289 289 288 288 288 288 289 288 287 287 288 288 288 289 290 289 289 290 290 290 291 290 291 291 291 291 292 292 291 291 291 291 292 292 292 291 292
289 288 288 288 288 288 288 287 287 287 287 289 289 287 287 288 288 288 288 287 288 289 289 289 289 290 290 291 291 290 291 292 291 291 291 291 291 291 292 292 292 292
289 289 289 288 288 287 287 287 287 287 287 289 286 286 286 287 287 287 288 287 288 288 289 288 289 290 291 291 291 290 292 291 291 291 291 290 290 291 291 291 292 293
289 289 289 288 287 287 287 287 287 287 287 288 286 286 286 286 288 287 287 288 288 288 291 288 288 291 291 291 291 291 292 291 291 290 290 290 290 291 291 291 292 295
288 288 287 287 287 287 287 287 287 287 288 286 286 286 287 286 290 286 287 288 288 289 292 289 289 291 291 290 291 291 292 291 291 290 290 289 289 290 291 291 291 292
290 291 289 288 287 287 287 287 288 286 286 286 286 286 286 286 287 287 286 287 288 288 288 288 289 290 292 290 291 291 291 292 291 290 289 289 289 290 289 290 290 290

ECMWFNIL_sfc_thetae_087.txt.gz
Theta_e
311 311 309 309 308 308 308 307 307 307 307 307 307 307 307 308 307 307 307 306 306 306 305 306 306 306 306 306 306 307 307 306 307 306 306 307 307 308 308 308 309 310
310 310 309 309 308 308 308 308 307 307 306 307 307 307 307 307 306 306 306 305 305 305 305 305 305 304 304 304 305 305 304 304 304 304 304 305 305 306 306 306 307 308
310 309 308 308 307 307 307 307 307 306 306 306 307 307 306 307 306 306 305 305 304 304 304 304 304 304 304 304 305 303 303 303 302 303 304 304 304 304 305 306 306 307
309 309 308 308 307 306 307 306 306 306 306 305 305 306 306 306 305 305 304 304 303 303 303 303 303 303 303 304 303 303 303 303 303 304 304 304 304 304 305 305 306 306
309 309 309 308 307 307 306 305 304 304 304 304 304 305 305 305 304 303 303 303 303 302 302 302 302 302 302 302 302 302 302 302 303 303 303 303 304 304 305 305 305 305
310 309 309 308 307 307 306 305 304 304 304 303 303 304 304 304 303 302 302 302 302 302 301 302 301 301 302 302 302 302 302 301 301 302 302 302 303 304 304 304 304 304
308 308 307 306 306 305 305 304 304 304 304 304 304 303 303 303 303 302 302 302 301 301 301 301 300 300 301 301 301 301 301 301 301 301 301 301 302 302 303 303 303 303
306 306 305 305 305 305 304 303 303 303 304 303 303 303 303 302 302 302 302 301 301 300 300 300 300 300 300 301 300 300 301 301 301 300 300 300 301 301 302 303 303 302
305 305 304 304 304 304 303 303 303 303 304 303 302 302 303 302 302 302 301 301 300 300 300 300 300 300 300 300 300 300 299 300 301 301 300 300 300 300 301 302 301 301
304 304 304 304 303 303 303 303 304 303 303 302 302 302 302 302 302 301 301 301 300 299 299 299 299 299 299 300 299 299 299 299 300 300 300 300 300 300 300 300 300 300
304 304 303 303 303 303 303 303 303 303 303 302 302 301 301 302 301 301 300 300 299 299 299 299 299 299 298 299 299 300 300 299 299 300 300 300 300 300 300 300 299 299
303 304 303 303 303 303 302 302 302 302 302 302 302 301 301 301 301 301 300 299 299 299 299 299 299 299 298 298 298 299 299 299 300 300 300 299 299 299 299 300 299 299
303 303 303 302 302 302 302 301 301 301 301 301 301 301 300 300 300 300 300 299 299 299 299 299 298 298 298 298 298 298 298 298 298 299 299 299 299 299 299 299 299 299
302 303 302 302 301 301 301 301 300 300 300 300 301 300 300 299 299 299 300 299 299 299 299 299 298 298 297 297 297 297 298 298 298 298 298 298 299 299 299 299 299 298
302 302 301 301 300 300 299 299 299 300 299 299 299 299 300 299 299 299 299 299 299 299 299 299 298 298 297 296 296 296 297 297 297 297 297 297 297 298 298 298 298 298
300 300 299 299 298 298 298 298 298 299 299 298 298 298 299 299 298 299 298 298 298 298 299 299 298 298 295 293 294 295 297 297 297 297 297 297 297 297 297 298 297 297
299 298 298 297 297 297 297 297 297 297 297 297 298 298 298 298 298 298 298 298 298 298 298 298 298 297 292 291 292 292 296 297 297 297 297 297 297 296 296 296 296 296
298 297 297 296 296 296 296 296 296 296 296 296 297 297 297 298 298 298 298 298 298 298 298 298 298 294 291 292 292 291 293 297 297 297 297 296 296 296 295 295 295 295
297 296 296 296 296 296 296 296 296 296 295 295 296 297 298 297 297 298 298 298 298 298 298 298 297 293 291 292 291 291 291 295 297 297 296 296 296 295 295 295 294 294
296 296 295 296 296 296 296 295 295 295 296 296 296 297 297 297 297 297 298 298 298 298 297 297 297 293 291 291 291 291 291 293 298 297 297 296 296 295 295 295 295 294
296 296 295 295 295 296 295 295 295 295 296 296 296 296 296 296 296 297 297 298 298 298 297 296 297 292 291 291 291 291 291 294 298 298 297 297 297 297 296 296 296 295
296 296 295 295 295 295 295 294 295 295 295 296 296 296 297 297 297 297 297 297 298 298 296 295 296 292 291 291 291 290 292 298 298 297 297 297 297 297 297 297 296 296
296 295 295 295 295 295 294 295 294 295 295 296 296 296 296 296 296 296 297 297 297 297 296 295 296 294 291 291 291 290 294 298 297 297 297 296 297 297 297 297 297 296
296 296 295 295 295 294 294 295 295 295 295 296 295 295 295 296 296 296 297 297 296 296 296 296 296 295 291 291 290 290 293 297 297 296 296 296 296 297 297 297 297 296
297 297 296 295 295 295 295 295 294 295 295 296 296 296 296 296 296 296 296 296 297 297 295 296 297 296 292 290 290 290 293 297 296 296 295 295 295 295 296 296 296 296
298 297 297 296 295 295 295 295 295 295 295 295 295 296 295 295 295 295 295 295 296 297 297 297 296 297 296 290 291 291 290 295 297 295 294 295 295 295 294 295 295 296

ECMWFNIL_sfc_thetae_090.txt.gz
Theta_e
316 316 315 314 313 314 314 313 313 313 313 312 311 312 312 312 312 312 312 312 312 312 312 312 313 313 313 314 313 313 312 312 311 311 312 311 310 311 310 310 311 311
314 314 314 314 313 312 312 313 313 311 311 311 312 311 312 311 311 311 311 310 311 311 311 311 312 311 312 312 312 311 311 311 310 311 311 311 310 311 310 310 310 310
313 313 313 312 311 312 312 312 312 311 310 310 312 312 311 311 311 310 310 310 310 309 310 310 310 310 310 311 311 311 310 310 309 311 311 311 310 310 310 310 310 311
312 312 311 311 312 311 311 311 311 311 311 310 310 311 310 310 310 309 309 309 309 308 309 309 309 310 310 310 310 309 310 309 309 310 310 310 310 310 310 310 310 309
311 311 311 311 311 311 311 310 310 310 310 310 311 310 310 309 309 308 308 307 308 307 308 308 308 309 309 309 309 308 309 308 309 309 308 309 310 310 310 310 309 308
311 311 311 310 310 311 310 310 309 310 309 310 309 310 309 308 307 307 307 307 307 306 306 307 307 307 308 308 308 308 308 308 308 308 307 307 308 309 309 309 308 307
310 311 311 310 310 310 310 310 310 310 309 310 309 308 308 307 307 307 306 306 305 305 305 306 306 306 307 308 307 307 307 307 307 307 306 307 308 307 308 308 306 306
310 310 310 310 310 310 309 309 309 309 309 309 308 308 307 306 306 307 306 305 305 305 305 305 305 305 306 307 306 306 306 307 306 306 306 306 306 305 306 306 306 305
310 309 309 310 310 309 309 308 308 308 308 308 307 307 307 307 306 306 306 305 305 305 305 304 304 304 306 305 305 305 305 306 306 306 305 305 305 304 304 305 304 304
309 309 309 308 308 308 308 308 307 307 307 307 306 307 306 307 306 305 305 305 305 305 304 303 303 303 304 305 304 304 304 304 305 305 305 305 304 304 304 304 303 303
308 308 308 308 308 308 308 308 307 307 307 306 306 306 306 306 305 305 305 304 305 303 303 303 302 303 302 303 304 305 305 305 305 304 305 304 304 304 303 303 303 302
307 308 307 307 307 307 307 307 307 307 307 307 306 305 306 305 305 305 304 304 303 303 303 302 302 302 302 302 303 304 305 305 305 304 304 304 304 304 303 304 303 302
307 307 306 307 307 307 307 306 306 307 306 305 306 305 305 305 305 304 305 304 304 303 302 302 301 301 301 301 302 303 304 304 304 304 304 304 304 303 303 303 302 301
306 307 306 306 306 306 306 306 305 306 306 306 305 305 304 304 304 304 305 305 304 303 302 302 300 299 299 299 300 302 304 304 304 304 303 303 304 303 303 303 302 301
306 306 305 305 304 304 304 305 305 305 305 305 305 305 305 304 305 305 304 304 303 303 301 301 300 299 298 298 299 301 304 303 303 302 302 302 302 302 302 302 301 302
303 304 303 304 303 303 303 304 304 304 304 304 304 304 304 304 304 305 304 303 302 302 301 300 299 299 296 293 294 297 302 303 303 303 302 302 301 300 301 301 301 301
303 302 302 302 303 303 303 303 303 303 303 303 303 304 304 304 304 303 303 303 302 302 301 300 298 297 292 291 292 292 298 303 302 302 302 301 301 300 299 300 300 300
301 302 301 302 302 302 302 302 303 303 303 303 303 304 304 305 304 303 302 302 302 301 300 299 298 294 291 291 292 291 293 300 302 302 301 301 300 299 299 299 299 299
301 301 301 301 302 302 303 302 302 302 302 303 303 304 304 303 303 302 302 302 302 300 299 298 298 293 291 291 292 291 291 295 302 301 301 300 300 300 300 299 299 299
301 301 301 301 302 302 302 302 302 302 303 303 303 304 303 302 302 302 302 302 302 301 299 298 297 293 291 291 291 290 291 293 303 301 301 300 300 300 300 299 299 299
300 300 300 301 301 302 302 302 302 302 302 303 303 303 302 302 302 301 301 302 302 301 300 298 297 291 291 290 291 291 290 295 303 302 301 301 301 301 300 300 299 299
300 300 301 300 301 301 301 301 302 302 302 303 302 302 302 302 302 302 301 300 301 301 300 299 297 291 291 291 290 290 291 301 301 301 300 300 300 300 300 300 300 299
300 300 300 300 300 300 300 301 301 301 302 302 302 302 301 301 301 301 301 300 300 301 301 300 298 294 290 291 290 290 294 301 300 300 300 299 299 300 300 300 300 299
300 300 300 300 300 300 300 300 301 302 302 302 301 301 300 301 301 300 301 300 299 299 300 300 299 295 291 291 290 290 293 300 299 299 299 299 299 299 300 300 299 299
300 300 300 300 300 300 301 300 301 301 302 302 301 301 301 301 301 300 300 301 301 300 297 299 300 297 292 291 290 290 294 300 298 298 298 298 298 297 299 299 299 298
301 301 300 300 300 300 301 300 301 302 302 301 301 301 300 300 300 300 300 300 301 301 300 299 299 299 296 290 291 291 290 297 299 296 296 298 298 297 297 298 298 298

ECMWFNIL_sfc_thetae_093.txt.gz
Theta_e
319 319 317 316 316 316 315 315 314 314 314 315 314 314 312 314 315 314 314 313 313 314 314 314 314 315 315 315 315 315 313 314 314 315 314 313 313 313 312 313 313 312
317 316 316 315 315 314 314 314 314 313 314 314 314 313 314 313 313 313 312 311 312 312 313 313 314 313 314 314 314 313 312 312 313 314 314 312 312 313 312 313 312 312
315 315 315 314 313 313 314 314 314 314 314 314 314 314 313 313 312 312 312 312 312 312 312 313 313 313 313 313 312 312 311 311 311 312 312 312 311 312 312 312 311 312
314 314 314 314 314 314 314 314 314 314 314 313 312 312 311 312 312 311 311 311 311 310 311 311 312 312 311 311 312 311 312 310 311 312 311 312 311 311 310 311 310 310
314 314 314 314 314 314 314 313 313 313 313 312 312 312 311 311 310 309 310 310 310 309 309 310 311 311 311 311 310 309 310 309 310 311 309 309 310 310 310 310 309 308
314 313 313 313 313 313 313 312 311 312 312 311 311 311 311 310 309 308 308 308 308 308 308 308 309 309 310 310 310 309 309 309 309 309 308 308 308 309 309 309 308 306
312 312 312 313 313 313 313 312 312 312 311 311 310 310 310 309 309 308 308 308 307 307 307 307 307 308 309 309 309 308 308 309 308 308 307 307 308 308 308 308 306 305
312 313 313 313 313 312 312 311 311 310 311 310 310 309 309 308 308 309 308 307 306 306 306 306 307 307 308 308 307 307 308 308 307 307 307 307 307 305 306 306 307 305
312 312 312 313 312 311 310 310 310 310 310 309 308 308 309 308 308 308 308 307 306 305 305 305 306 306 307 307 307 307 306 307 307 307 306 306 305 305 305 306 305 304
312 312 312 311 311 310 310 310 309 309 309 309 309 309 307 309 308 307 307 307 306 305 304 304 304 305 306 307 307 307 306 306 306 307 306 306 305 305 305 304 304 303
311 311 310 310 310 310 310 310 310 309 309 308 308 308 308 308 307 307 306 306 305 304 304 303 303 304 304 305 307 307 307 307 306 306 306 305 306 305 305 304 303 302
310 310 309 309 309 310 310 309 310 309 309 308 308 308 308 307 307 307 306 304 304 304 303 302 302 303 303 304 306 307 307 307 307 306 306 305 305 305 304 304 303 302
309 309 309 309 309 309 309 309 309 309 308 307 307 307 307 307 306 306 306 305 303 303 302 302 301 301 301 302 304 306 306 306 306 305 305 305 304 304 303 304 303 302
309 309 309 309 309 308 308 308 308 308 308 308 308 307 307 306 306 306 306 305 304 302 302 302 300 299 299 300 302 304 306 306 306 305 305 304 304 304 304 303 303 302
307 308 308 308 307 308 307 307 307 307 307 307 307 307 307 307 307 306 305 304 303 302 301 300 299 299 298 298 299 300 303 305 305 304 304 303 303 303 303 302 302 302
306 307 306 307 306 306 306 307 306 307 307 306 306 307 307 306 306 306 305 304 303 301 301 300 298 299 296 293 294 297 301 304 305 304 303 303 302 302 302 302 302 302
305 305 305 305 305 306 306 306 306 307 306 306 307 307 306 306 306 305 304 303 302 301 300 299 298 297 292 291 292 292 298 302 304 303 303 302 302 301 301 301 301 301
303 304 304 304 305 304 305 305 305 305 306 306 306 306 306 306 305 305 304 303 302 301 300 298 298 294 291 292 291 291 293 298 304 304 303 302 302 301 301 301 300 300
303 303 304 304 304 304 305 305 304 304 305 305 305 305 305 305 305 305 304 304 302 300 299 298 297 293 291 291 291 291 291 295 303 304 303 302 302 301 301 300 300 299
303 303 303 303 304 304 304 304 304 304 305 305 305 305 305 305 305 304 304 303 303 301 300 298 297 294 291 291 291 290 291 292 303 303 303 302 302 301 301 301 300 299
302 302 302 303 303 303 303 303 304 305 305 305 305 304 304 303 303 303 304 304 303 302 301 298 297 291 291 290 291 291 290 294 305 304 303 303 302 302 301 301 301 300
302 302 302 302 302 303 303 303 304 304 304 303 303 303 304 304 303 303 303 304 304 303 301 298 297 290 291 291 291 290 291 302 302 303 302 302 301 301 301 301 301 300
302 301 301 301 302 302 302 303 303 303 303 304 303 303 302 302 302 302 302 302 303 303 302 299 298 293 290 291 291 290 294 302 301 301 301 301 301 300 301 301 301 300
302 301 301 301 301 301 303 303 304 304 304 304 303 302 302 302 302 302 302 301 301 301 302 301 298 294 290 291 291 290 294 300 300 299 301 301 300 300 301 300 300 297
302 302 301 301 301 301 303 302 303 303 303 304 303 303 303 302 302 302 302 302 301 300 300 301 300 297 291 291 291 291 294 300 299 298 299 299 300 298 300 300 299 300
302 302 302 302 301 302 303 302 303 304 304 303 303 302 301 301 301 301 301 302 302 302 300 300 300 299 295 291 291 292 291 297 299 297 296 297 299 298 298 299 298 298

ECMWFNIL_sfc_thetae_096.txt.gz
Theta_e
319 319 318 316 316 317 316 315 317 316 314 314 313 312 311 312 313 312 313 312 312 312 312 312 312 313 313 312 312 311 311 312 312 312 311 311 310 310 310 309 309 308
316 317 316 315 315 315 315 317 316 314 313 314 313 312 312 312 312 312 311 311 311 311 312 312 311 311 311 311 311 310 310 310 310 312 310 309 309 308 309 309 308 306
315 315 314 313 313 313 314 316 315 314 313 312 313 313 312 312 311 311 311 311 310 310 311 311 310 310 310 311 311 311 309 309 309 310 310 308 308 307 308 308 307 305
314 314 313 313 313 312 314 314 314 314 313 312 311 311 311 311 311 310 310 310 309 309 309 310 310 310 309 309 310 309 309 308 309 309 308 308 308 308 307 307 307 305
314 314 314 314 314 314 314 312 311 311 311 311 311 311 311 311 309 308 308 309 309 308 308 308 309 309 309 309 308 308 308 308 308 308 307 307 307 307 307 306 305 303
313 312 312 312 313 313 312 311 309 310 310 310 310 310 309 309 308 307 307 306 307 307 307 307 307 308 308 308 308 307 308 307 307 307 306 305 305 306 307 306 303 302
313 313 312 312 312 313 311 311 311 310 310 309 309 309 309 308 307 306 305 306 305 305 305 305 306 307 308 308 307 307 307 307 306 305 305 305 305 304 305 305 303 301
312 312 311 312 312 311 310 309 309 309 310 309 308 308 308 307 307 307 305 305 304 304 304 304 305 306 307 307 306 306 306 307 306 305 304 304 304 303 303 304 302 300
311 311 311 310 310 310 309 308 309 309 309 308 307 308 308 307 306 306 305 304 303 303 303 303 304 305 306 306 306 305 305 305 306 305 304 304 303 302 302 302 301 301
311 311 310 309 309 309 309 309 309 309 309 308 307 308 307 307 306 305 304 303 302 301 302 302 303 304 305 306 306 305 304 304 304 304 304 303 303 302 302 301 300 300
310 310 310 309 309 309 309 309 308 308 308 307 307 307 307 306 305 304 303 302 302 300 300 300 300 301 302 304 306 306 305 304 304 304 303 303 302 302 302 301 301 299
309 310 309 309 308 309 309 309 309 308 307 307 306 305 306 306 305 303 302 301 300 300 299 299 299 299 300 301 302 305 305 305 304 304 303 302 302 302 302 301 300 300
308 309 309 309 309 309 309 307 307 308 307 306 307 306 305 305 304 302 302 301 300 299 299 298 298 298 298 298 300 301 303 304 304 304 303 304 303 302 301 302 300 300
308 308 308 308 308 308 307 307 307 307 307 307 307 306 305 304 303 302 302 300 300 299 299 299 298 296 296 296 297 299 300 304 303 303 303 302 303 302 301 301 300 300
308 308 308 308 307 307 306 306 306 306 306 306 306 306 306 305 304 303 301 300 299 298 297 297 297 296 295 294 295 296 298 300 303 302 303 302 302 302 301 300 300 300
306 307 306 306 306 305 306 306 306 306 306 306 305 305 305 305 304 303 301 300 298 297 297 296 295 296 295 293 293 294 296 299 301 304 302 302 302 302 300 301 300 299
305 305 305 305 305 305 306 305 305 306 305 305 305 305 305 304 303 301 300 299 298 297 296 296 295 294 293 291 292 292 295 297 299 303 303 302 301 301 299 301 300 299
304 304 304 304 304 304 304 304 305 305 304 304 304 304 304 305 303 301 300 300 299 297 296 295 294 293 291 291 292 291 293 295 299 303 303 301 301 301 300 300 299 299
303 303 303 303 303 303 304 304 304 304 304 304 304 305 305 304 303 303 301 300 298 296 295 294 294 292 291 291 291 291 291 294 299 304 302 303 301 302 301 300 298 299
302 302 302 302 303 303 304 303 303 303 304 304 304 305 304 303 303 303 302 301 299 297 295 294 293 293 291 291 291 291 291 293 301 305 303 303 300 300 301 300 299 297
302 302 302 302 302 303 303 303 303 303 303 303 303 303 302 302 302 302 302 302 300 298 296 295 294 291 291 291 291 291 291 295 302 305 303 303 300 300 301 300 299 299
302 301 302 301 302 302 302 302 303 303 302 303 302 302 302 302 303 303 303 302 301 299 297 294 294 291 291 291 291 291 292 299 301 300 301 301 300 299 300 301 300 299
302 301 301 301 302 302 302 302 302 302 302 303 302 302 301 301 301 301 302 303 302 300 298 295 294 292 291 291 291 291 293 297 299 298 299 299 300 300 300 301 301 298
301 301 301 301 301 301 301 302 302 302 302 303 301 300 300 300 300 299 299 300 300 300 300 296 294 293 291 291 291 291 294 296 297 296 296 297 297 299 299 300 298 303
301 301 301 301 301 302 302 302 302 303 303 304 303 302 302 301 301 299 298 299 299 300 302 300 296 295 291 291 291 291 294 295 297 295 294 294 296 297 298 298 300 299
302 302 302 301 301 302 303 302 302 302 303 302 303 301 300 301 301 301 300 299 299 299 300 300 299 297 295 291 291 292 292 295 296 294 293 293 295 296 296 297 297 297

ECMWFNIL_sfc_thetae_099.txt.gz
Theta_e
314 314 313 313 314 314 313 312 310 308 307 307 306 306 306 307 309 307 307 308 309 307 307 307 307 307 309 306 306 306 307 307 307 305 304 305 304 304 302 301 301 301
313 314 314 313 312 313 313 312 310 309 307 306 307 306 307 307 307 307 306 306 307 306 306 306 306 306 306 306 306 305 304 305 305 308 304 303 303 303 302 301 300 300
312 312 312 311 311 311 312 311 309 308 307 307 307 307 308 307 306 306 306 305 305 305 305 306 305 305 305 305 305 304 304 303 303 304 304 303 302 302 301 300 300 300
311 311 311 311 311 311 311 309 308 307 306 306 305 307 308 308 305 305 305 308 304 304 304 305 305 305 304 304 304 303 304 303 303 303 303 303 304 302 301 300 300 299
311 311 311 311 312 312 309 307 306 305 305 305 305 307 307 303 303 303 303 303 303 303 303 304 304 304 304 304 303 302 303 302 303 302 301 301 302 303 301 300 298 297
312 312 312 312 310 308 306 305 306 305 304 304 304 306 303 303 302 302 301 301 302 302 302 302 303 303 303 303 303 302 302 301 301 301 301 300 300 301 301 299 298 297
309 310 310 310 308 307 306 305 306 306 304 305 304 303 303 302 301 301 301 301 301 302 301 301 302 302 303 302 302 302 302 301 301 301 300 299 300 299 300 298 298 297
308 308 308 306 305 305 305 305 304 304 304 303 302 303 302 302 301 301 300 300 300 300 300 300 301 302 302 302 301 301 301 303 302 301 300 299 298 297 298 299 297 296
308 307 307 305 304 304 304 304 304 304 304 303 302 302 302 301 300 300 299 299 298 298 298 299 299 299 300 301 301 300 300 300 301 300 299 298 298 297 297 297 296 296
307 306 305 305 304 304 303 303 303 303 304 303 303 302 301 300 300 299 298 297 297 297 297 297 297 297 298 298 300 300 300 299 299 299 298 297 297 297 297 297 295 295
305 304 304 304 303 303 303 303 303 303 304 302 302 301 300 300 300 299 297 297 296 296 296 295 295 296 296 296 298 299 299 299 298 298 298 298 298 298 302 296 296 295
304 304 304 303 303 303 303 303 303 302 302 302 302 300 299 299 298 298 297 296 296 296 295 294 294 294 294 294 295 297 297 299 299 299 299 298 297 297 297 297 296 295
304 304 303 303 303 303 303 303 302 302 302 301 302 300 299 298 297 296 297 296 296 295 294 294 293 293 292 293 294 294 296 297 298 298 298 298 297 297 296 296 296 296
304 304 303 303 303 303 302 302 302 302 302 302 302 299 298 297 296 296 296 295 295 294 294 294 292 292 292 292 292 293 294 296 297 298 297 297 296 296 296 295 295 296
303 303 303 303 302 302 301 301 301 301 301 302 302 301 300 298 297 296 294 294 293 293 292 293 292 292 293 292 291 292 293 294 296 297 296 297 296 295 295 295 294 295
303 303 302 302 301 301 301 301 301 301 301 300 300 300 299 298 297 296 295 294 293 292 291 292 292 293 294 293 294 292 292 294 296 297 296 296 297 295 295 295 295 294
302 302 302 301 301 301 300 301 301 301 300 300 300 299 298 298 296 295 294 293 292 291 290 291 291 292 293 291 292 293 294 292 294 296 296 295 295 295 294 295 295 294
301 301 301 301 301 300 301 301 301 300 300 299 299 298 298 297 295 295 294 293 292 290 290 291 290 293 291 292 292 292 294 294 293 296 297 295 295 295 295 294 294 294
301 301 300 300 299 300 301 300 300 300 299 299 299 299 297 296 295 294 293 292 291 290 289 289 289 292 291 292 291 291 292 295 295 295 296 295 293 294 294 293 293 295
300 300 299 299 299 300 300 299 299 299 299 299 299 299 298 297 296 295 293 292 291 290 289 288 289 292 291 291 291 291 292 294 296 297 296 293 293 294 295 293 293 293
299 298 298 299 299 299 299 298 298 298 298 298 298 298 297 297 296 294 294 294 292 290 289 289 290 292 291 291 291 292 293 294 295 296 295 295 294 294 295 294 293 293
298 298 298 298 299 298 298 298 297 297 297 297 297 296 297 297 297 296 294 292 292 290 288 287 288 291 291 291 291 291 293 295 293 293 293 293 293 294 294 294 293 291
298 298 298 298 298 298 297 297 296 296 296 297 296 295 295 294 295 296 295 293 292 291 288 287 287 290 291 291 291 291 293 292 291 291 291 291 292 293 294 294 293 292
298 298 298 298 298 297 296 296 296 296 296 297 295 294 293 293 294 294 295 295 293 290 290 288 287 291 291 291 291 291 293 291 290 290 289 290 291 292 293 293 294 301
298 298 298 298 297 296 297 296 296 296 297 296 295 294 294 293 294 292 292 292 293 293 297 291 288 291 291 291 291 291 292 290 291 289 289 289 290 291 292 292 292 297
298 298 298 298 297 297 297 296 297 297 296 296 295 295 294 294 293 293 292 292 293 294 296 292 290 289 290 291 291 291 292 291 291 289 289 288 289 292 291 290 291 291

ECMWFNIL_sfc_thetae_102.txt.gz
Theta_e
313 312 311 311 310 310 308 307 306 305 304 304 304 304 305 306 306 305 305 306 306 304 304 304 305 304 305 304 304 305 304 303 303 302 301 300 299 298 298 297 297 297
312 313 313 311 310 310 309 308 306 305 304 304 304 304 305 305 305 304 304 304 304 303 303 304 304 304 303 303 303 302 302 302 302 304 300 299 298 298 297 297 296 296
310 310 309 309 309 308 308 307 306 304 304 304 304 304 305 305 304 304 303 303 303 303 303 303 302 303 303 302 302 302 301 301 301 301 300 298 298 297 297 296 296 296
309 309 309 309 309 308 307 306 305 305 304 304 303 305 305 305 303 302 303 305 302 302 302 302 302 302 302 302 301 301 301 300 301 301 300 299 299 297 296 297 297 296
308 309 309 309 309 308 306 305 304 303 303 303 303 303 303 301 300 301 301 301 301 301 301 302 302 302 302 301 301 300 301 299 299 299 298 298 298 298 297 297 295 295
308 309 310 308 307 306 304 304 303 302 301 301 301 301 300 300 299 300 300 300 300 300 301 301 301 301 301 300 300 299 299 299 298 298 297 297 297 297 297 296 295 294
308 308 307 307 305 304 303 303 303 303 301 301 300 299 299 299 299 299 299 299 299 300 299 299 299 299 300 300 300 299 299 299 298 297 297 296 298 296 296 295 295 294
307 308 307 306 304 304 303 302 302 301 301 300 299 299 299 298 298 298 298 298 298 297 297 298 298 298 298 299 299 299 298 300 298 297 296 296 296 294 294 296 294 293
307 306 305 304 303 302 301 302 301 301 301 299 298 298 298 297 297 297 297 297 296 296 296 296 296 297 297 298 298 297 297 297 297 296 296 295 295 294 294 293 293 294
305 305 304 302 301 301 301 301 301 301 301 299 298 297 297 297 296 296 296 295 295 295 294 294 294 295 295 296 297 296 297 296 296 296 295 295 295 294 294 294 292 292
303 302 302 301 301 300 300 301 301 300 300 298 297 297 296 296 296 295 294 294 294 293 293 293 293 293 294 294 295 295 296 296 296 295 295 295 295 296 300 293 294 292
302 302 301 301 301 300 300 300 300 299 298 298 297 296 295 295 295 295 295 293 293 292 292 292 292 292 292 292 293 294 295 295 296 296 295 294 294 294 294 295 293 292
302 301 301 301 301 300 300 300 299 298 298 297 297 295 295 294 294 293 294 293 292 292 292 291 291 291 291 291 291 292 293 295 295 294 294 294 293 293 293 293 293 293
301 301 301 301 300 300 300 299 299 298 297 297 296 295 294 294 293 293 293 292 292 292 292 293 291 291 290 290 291 291 292 293 294 296 294 293 293 293 293 292 293 293
301 301 301 301 301 300 300 299 299 298 297 296 296 295 295 293 292 292 291 290 290 290 290 291 291 292 292 291 290 291 290 292 293 294 294 293 293 293 293 293 293 293
301 301 300 300 300 299 299 299 298 298 297 296 295 294 294 293 292 292 290 290 289 289 289 290 291 292 294 294 294 293 291 292 294 294 294 294 293 293 293 293 292 293
301 300 299 299 299 299 298 299 298 298 296 296 295 294 294 294 292 291 290 289 289 288 288 290 290 292 293 291 292 294 293 292 292 293 294 294 293 292 292 293 292 292
300 299 299 299 299 298 298 298 298 297 296 295 294 293 293 292 290 290 289 289 289 288 288 289 289 294 291 292 292 293 296 293 292 293 294 292 293 292 292 292 291 291
299 299 298 298 298 298 298 298 297 296 295 294 293 293 292 291 290 289 288 288 288 287 288 288 288 293 291 292 292 293 294 295 294 294 292 290 292 292 291 291 291 291
299 299 298 298 298 298 298 297 296 295 294 294 294 293 291 290 289 289 288 288 288 288 287 288 288 292 291 292 292 292 292 293 292 292 292 292 291 291 291 290 289 289
299 298 297 298 298 297 297 297 296 295 295 295 293 292 290 290 289 288 288 289 287 287 287 288 290 292 291 292 292 292 292 292 290 292 291 290 291 291 291 290 289 290
298 297 297 297 297 297 297 296 296 296 295 295 294 292 291 291 289 290 289 287 287 286 287 286 288 291 291 291 292 291 292 292 289 290 290 290 290 291 291 291 290 289
298 297 297 297 297 297 296 296 295 295 295 295 294 293 292 290 290 289 289 288 288 287 286 285 287 290 291 291 291 291 291 289 288 289 289 289 289 290 290 290 290 291
297 297 297 297 296 296 296 295 295 294 295 296 294 293 292 291 291 290 289 289 287 286 286 286 286 290 291 291 291 291 291 287 288 288 287 288 288 288 289 288 291 298
298 298 297 297 296 296 295 294 294 294 295 294 293 293 293 292 293 291 290 288 287 287 295 288 286 290 291 290 291 291 290 286 287 287 287 286 287 288 288 289 289 292
298 298 297 297 296 295 295 294 295 294 293 292 292 292 292 292 293 292 290 290 290 291 293 288 287 287 289 291 291 291 292 288 287 286 287 285 285 289 289 287 287 288

ECMWFNIL_sfc_thetae_108.txt.gz
Theta_e
313 312 310 308 308 307 306 305 304 304 303 304 304 303 304 305 306 304 304 304 304 303 303 303 302 301 301 300 299 299 299 298 298 297 297 297 295 295 294 294 294 294
312 312 311 309 308 307 306 306 305 305 304 304 304 303 304 303 304 304 303 303 303 302 302 302 301 300 299 298 298 298 297 297 297 299 296 295 295 295 294 294 293 294
312 310 308 307 306 306 306 307 307 306 305 303 303 303 303 303 302 302 302 302 302 301 301 301 301 300 299 298 298 297 297 296 296 297 297 295 296 295 295 294 294 293
310 309 308 308 307 306 307 306 306 305 304 303 302 303 304 304 303 303 303 304 301 301 301 300 300 299 298 298 298 297 297 297 297 297 296 297 297 295 295 295 295 293
309 309 308 307 307 307 307 306 304 304 303 302 302 304 303 301 301 301 301 301 301 300 300 300 300 299 299 298 298 297 297 296 296 296 296 295 296 296 295 295 293 292
309 309 308 307 307 306 306 305 304 303 302 301 300 302 300 300 300 300 300 300 300 300 299 299 299 299 298 298 297 297 297 296 296 296 295 295 295 295 295 294 293 292
307 307 307 307 306 306 305 304 303 302 300 300 300 299 300 300 300 299 300 300 300 301 299 299 298 298 298 298 297 296 296 296 296 296 295 295 296 294 295 294 294 292
305 305 305 306 305 304 303 303 301 300 300 299 299 299 299 299 299 299 299 299 299 298 298 298 298 298 298 297 297 296 296 296 295 295 294 294 294 293 294 294 293 292
304 304 304 304 303 302 301 300 300 299 300 298 298 298 299 298 298 298 298 298 298 298 298 298 298 297 297 297 297 296 296 296 296 295 294 294 293 293 293 293 292 293
303 303 303 303 302 301 300 299 299 298 299 298 297 297 297 298 297 297 297 297 297 297 297 297 297 296 296 296 296 296 295 295 295 295 294 294 294 293 292 292 292 291
302 302 301 301 300 299 299 298 297 297 298 297 296 296 296 297 297 297 296 297 296 296 296 296 296 296 296 296 296 296 295 295 295 294 294 294 294 294 297 293 293 291
301 300 300 299 299 298 297 297 297 297 297 297 297 295 295 295 295 296 296 295 295 295 295 295 295 295 295 295 295 296 295 295 295 295 295 295 295 294 293 294 292 292
300 299 299 298 298 297 297 297 296 296 296 296 296 295 295 294 294 294 295 294 293 294 294 294 293 294 294 295 295 295 295 295 294 294 294 295 294 294 294 293 293 293
300 299 299 298 297 297 296 296 295 295 295 296 296 294 294 293 293 293 294 293 293 293 293 294 293 293 293 294 295 295 295 294 294 294 294 293 294 294 295 294 293 293
299 299 298 298 297 296 295 295 294 294 294 295 295 294 294 293 293 293 292 292 292 293 293 293 293 293 293 294 294 294 294 294 294 294 293 293 293 293 293 294 295 295
299 299 298 297 296 295 294 294 294 294 293 293 292 292 292 292 292 292 292 292 292 291 292 293 293 295 298 297 297 295 294 294 294 294 294 294 294 294 294 294 294 292
299 298 297 296 295 294 294 293 293 293 292 291 291 291 291 293 291 291 291 291 292 291 291 292 293 295 295 293 294 295 295 295 295 294 294 294 294 293 293 295 294 292
299 297 296 295 295 294 293 293 293 292 291 291 291 290 291 291 290 290 290 290 290 291 291 292 293 295 292 293 293 294 296 296 295 295 295 293 293 293 294 294 293 293
299 297 296 295 294 294 293 293 292 291 291 290 290 291 290 289 289 289 289 289 290 291 291 293 292 293 292 293 294 294 294 295 295 295 295 293 293 293 293 293 294 294
299 298 296 295 295 294 293 292 291 291 291 291 291 290 289 288 288 288 288 289 290 291 290 290 292 294 292 293 293 292 292 293 293 294 294 293 293 293 293 292 292 293
299 298 296 295 294 293 292 291 291 290 290 291 289 289 288 288 288 287 288 291 290 289 290 291 292 292 291 292 291 291 291 292 293 293 293 292 292 292 293 292 291 291
299 297 296 295 294 293 292 291 291 290 290 290 289 288 288 288 287 289 289 288 288 289 290 289 291 291 291 291 291 291 292 293 292 292 292 292 292 292 292 292 292 291
299 298 296 295 294 293 292 291 291 290 290 290 288 287 287 287 287 288 288 287 288 289 289 289 290 291 290 291 291 291 292 291 292 292 291 291 291 291 291 291 291 294
299 298 297 296 294 293 293 292 292 291 290 291 288 287 287 287 287 287 287 288 289 288 289 289 289 291 291 291 291 291 292 291 291 291 290 291 290 290 290 290 292 297
300 299 297 296 295 294 293 292 291 290 291 290 288 288 287 287 290 286 286 287 287 288 294 290 289 291 291 290 290 291 292 290 290 290 289 288 289 290 290 289 289 292
300 299 298 296 295 294 294 292 292 291 290 289 288 288 288 288 289 287 287 287 289 292 293 289 290 290 292 290 291 290 290 290 289 290 289 288 288 292 291 289 288 289

ECMWFNIL_sfc_thetae_111.txt.gz
Theta_e
320 320 319 318 317 316 315 314 315 316 315 315 314 314 313 313 313 312 312 311 311 310 309 308 307 306 306 306 305 304 303 303 302 303 302 302 302 302 302 302 303 302
318 318 318 317 314 313 313 315 315 314 314 315 314 313 313 313 313 312 311 310 309 308 308 307 306 305 305 305 305 303 302 302 302 303 302 301 300 301 301 302 302 302
317 316 315 313 312 312 313 314 314 313 313 313 313 313 312 313 312 311 310 309 308 307 307 306 305 305 305 304 304 303 303 302 302 302 302 301 301 300 300 300 301 301
316 315 313 312 312 312 312 312 312 312 312 312 312 312 312 312 311 310 310 309 308 307 306 305 305 304 303 304 304 303 303 302 302 302 301 301 301 300 300 300 300 300
314 313 312 312 312 312 312 312 311 311 312 312 312 312 311 311 311 310 309 308 307 306 305 304 304 304 304 304 303 302 302 302 302 302 300 300 301 300 300 300 299 299
313 311 311 310 311 312 312 311 311 311 311 312 312 312 311 311 310 309 308 307 306 305 304 304 303 303 304 304 304 303 302 301 302 301 299 299 299 300 300 299 299 298
311 311 311 311 311 312 312 311 311 311 311 312 311 310 310 310 309 308 307 306 305 304 304 304 304 304 304 304 303 302 301 301 301 300 299 299 299 299 299 299 298 297
311 311 311 312 312 311 311 310 310 310 311 310 310 310 310 309 309 309 308 306 305 304 304 304 304 304 304 304 302 301 302 302 301 300 299 299 298 297 298 299 299 297
311 312 312 312 312 312 310 309 309 310 310 310 309 309 310 309 308 308 307 307 306 305 304 304 303 304 304 303 302 300 300 301 301 300 299 298 297 297 297 298 298 298
312 312 313 312 312 311 309 309 309 309 309 309 308 308 308 309 309 308 307 307 305 305 304 304 304 304 304 303 302 301 300 300 300 300 299 298 297 297 297 298 298 298
312 312 312 311 310 309 308 308 308 308 309 308 308 308 307 307 307 307 307 306 306 304 304 303 303 303 302 302 302 302 301 300 300 300 299 298 298 298 298 298 298 298
311 311 311 310 309 308 307 307 307 308 308 308 307 307 307 307 307 307 306 305 305 305 304 304 304 303 301 301 301 302 302 301 301 300 300 299 298 298 298 299 299 298
310 310 309 309 309 308 307 307 307 308 307 307 307 307 307 306 306 306 307 305 305 305 304 304 304 303 302 302 301 301 301 301 301 301 300 300 299 298 299 299 299 299
309 309 309 308 308 307 306 307 307 307 307 307 307 306 306 306 306 305 306 306 305 305 305 305 305 303 302 302 302 302 302 301 301 301 300 300 300 299 299 299 300 300
307 307 307 307 306 306 306 306 306 307 306 306 306 306 306 306 306 305 304 304 304 305 304 305 304 303 303 303 302 302 302 302 301 301 300 300 299 299 299 300 300 300
306 305 305 305 305 305 305 305 305 305 305 305 305 305 305 305 305 305 304 304 303 304 304 305 305 306 303 300 301 302 302 302 302 302 301 300 299 299 299 299 299 300
305 304 304 304 304 305 305 304 304 305 304 304 304 304 303 304 304 304 304 304 303 303 304 305 305 304 297 294 295 298 302 303 302 301 301 300 300 299 298 298 299 300
304 303 303 303 303 303 303 304 304 304 303 303 303 303 303 304 303 303 304 304 304 304 304 304 305 300 293 294 294 294 299 303 303 302 301 301 300 299 299 299 299 299
303 302 302 302 302 302 303 303 303 303 302 302 302 303 303 302 303 303 303 304 304 303 304 305 305 294 293 293 293 293 294 300 303 303 301 301 300 300 300 299 299 298
301 301 301 301 301 301 301 301 301 301 302 303 302 302 302 302 302 302 302 303 303 304 304 304 305 295 292 293 293 293 293 296 304 303 303 301 301 300 300 300 299 299
301 300 300 300 300 300 300 300 300 301 300 301 301 301 301 301 301 302 302 302 303 304 303 304 304 293 292 292 292 292 292 295 305 305 303 303 302 301 301 301 300 300
301 300 300 299 298 298 298 299 299 299 299 299 299 300 301 301 301 301 301 301 302 303 303 302 302 291 292 292 292 292 292 303 305 304 303 302 301 301 301 301 301 301
301 300 299 298 297 296 297 297 297 297 298 298 298 298 298 299 299 299 300 300 300 301 303 302 301 294 291 291 291 291 296 304 304 303 303 302 301 301 301 301 301 301
301 300 299 298 297 296 295 296 297 297 297 298 297 296 296 297 298 298 298 299 299 300 302 302 302 296 290 291 291 291 298 303 302 302 302 302 301 301 301 300 300 298
301 300 299 298 297 296 296 296 296 297 297 298 297 297 297 297 297 296 296 297 299 300 299 302 302 297 291 291 291 291 298 304 302 300 300 301 300 299 300 299 299 298
301 300 299 298 298 297 297 297 297 297 297 296 296 296 296 295 295 296 296 296 297 298 299 301 301 301 296 290 291 291 293 302 302 300 299 299 299 298 298 298 298 299

ECMWFNIL_sfc_thetae_114.txt.gz
Theta_e
329 330 330 330 328 329 327 325 325 324 324 324 323 322 320 320 319 318 317 316 315 314 313 312 311 311 311 311 310 310 309 310 309 310 310 309 309 310 309 309 309 308
329 330 329 330 328 327 325 325 325 324 323 323 322 321 320 318 317 317 316 315 314 313 312 311 310 310 310 309 309 308 307 308 307 308 308 308 308 309 309 309 308 308
330 330 329 329 326 324 323 323 323 323 322 322 322 321 319 318 317 316 315 314 313 311 311 310 310 310 309 309 309 308 308 307 307 308 308 307 307 307 307 307 307 307
330 329 328 328 325 321 321 321 322 322 322 321 320 320 319 318 316 315 314 313 312 311 310 310 309 309 309 309 309 308 308 307 307 308 307 307 307 307 307 307 307 306
329 327 326 325 322 321 321 321 321 321 321 320 320 319 317 316 315 313 313 312 311 309 309 308 309 309 309 309 309 307 308 307 307 307 306 306 307 307 306 306 305 305
325 325 324 322 321 321 321 320 319 321 320 319 318 318 317 315 314 312 311 310 309 308 308 308 307 308 308 308 308 308 307 306 306 306 304 304 305 306 305 305 305 305
322 323 323 320 320 322 321 320 320 321 320 319 318 317 316 315 313 312 310 309 308 307 307 307 307 308 308 308 307 307 306 306 305 304 303 304 305 305 305 305 304 303
322 321 320 319 319 320 320 319 320 320 320 318 318 317 316 314 312 312 310 309 307 306 307 306 307 307 307 307 306 306 306 306 305 304 303 303 304 303 304 304 304 303
322 319 317 319 319 320 319 318 320 320 319 317 316 315 315 314 313 312 310 308 307 307 306 306 306 307 307 306 306 305 305 305 305 304 303 303 303 303 302 304 303 304
321 318 318 319 320 319 319 320 319 319 317 316 315 315 314 315 313 311 310 309 308 307 307 306 307 307 306 305 305 305 304 304 304 304 303 303 302 302 303 303 303 303
318 318 318 320 320 320 319 319 319 318 317 315 315 315 314 314 312 312 311 309 309 307 307 307 307 307 305 305 305 306 305 304 303 303 303 303 304 303 303 303 303 303
318 318 319 319 319 319 319 319 318 318 316 315 314 314 314 313 312 312 310 309 309 308 308 307 307 307 305 305 304 305 305 305 304 304 303 303 303 303 304 304 304 304
318 320 319 319 318 319 319 318 317 317 315 314 314 314 313 312 312 311 311 310 309 309 308 308 307 306 305 305 305 305 305 305 305 304 303 303 303 303 303 304 304 305
319 321 319 317 318 318 317 317 317 316 315 314 314 313 313 312 311 311 311 310 310 309 308 308 307 305 305 305 305 306 306 305 305 305 304 303 304 304 304 304 304 305
321 320 319 317 316 316 316 317 316 316 314 314 313 313 313 312 312 311 310 310 309 309 308 308 307 306 305 306 306 305 306 305 305 304 304 303 303 303 303 303 304 304
320 319 317 316 315 314 315 316 315 315 314 313 312 312 312 312 312 311 310 310 309 308 309 308 307 307 305 302 302 306 306 306 306 305 305 304 304 303 303 303 303 302
317 316 315 314 314 313 314 314 314 314 313 311 312 312 312 311 311 310 310 310 309 308 308 308 307 306 298 296 296 299 306 307 306 305 305 304 304 304 302 303 304 303
314 314 313 313 312 312 312 313 313 312 311 311 311 311 311 312 311 310 310 310 309 309 309 308 308 302 295 295 296 296 300 307 307 306 306 305 304 304 303 303 303 303
313 312 312 312 312 312 312 311 311 310 310 310 311 312 311 310 310 309 309 309 309 308 308 307 308 296 294 294 294 294 295 301 307 306 305 305 305 304 304 303 304 304
311 311 310 311 311 311 310 310 309 309 310 311 311 311 310 310 310 310 310 309 309 308 308 308 308 296 294 293 294 293 294 296 308 306 306 305 304 304 304 303 303 304
310 310 310 310 310 309 309 309 309 309 310 310 310 309 309 308 309 309 309 309 309 309 308 307 309 294 293 293 293 292 293 294 308 307 307 306 306 305 305 305 303 303
310 310 309 309 308 308 308 308 309 309 309 309 309 309 309 309 309 309 308 308 308 308 308 306 309 292 293 292 292 292 292 302 306 307 306 306 306 305 305 304 303 304
310 309 308 307 306 306 306 307 308 308 309 309 308 308 307 307 308 307 308 307 307 307 307 307 307 295 292 292 292 291 295 303 305 306 306 306 306 305 305 305 303 303
310 309 307 306 306 305 305 306 307 307 308 308 307 307 306 306 307 307 308 308 307 307 307 306 307 298 291 292 292 291 298 304 305 305 306 305 305 305 305 305 304 302
309 308 307 306 305 306 306 306 306 306 306 306 305 304 304 305 305 306 307 307 308 307 306 307 306 300 291 292 291 291 298 305 305 304 303 303 303 303 304 304 303 299
307 306 305 304 304 305 306 306 306 306 305 304 303 303 303 304 304 305 305 305 306 306 306 307 307 305 298 291 292 291 293 304 305 303 302 302 302 302 302 303 302 302

ECMWFNIL_sfc_thetae_117.txt.gz
Theta_e
334 334 333 332 331 331 330 331 329 328 327 326 325 324 323 323 323 323 321 319 318 316 316 315 315 314 314 314 314 313 312 313 313 314 314 313 313 313 312 312 312 311
334 334 334 333 332 332 332 332 331 328 327 327 326 324 323 322 321 320 318 317 316 315 314 314 314 313 313 313 313 312 311 311 311 312 311 311 312 313 312 312 311 311
334 333 333 333 331 331 331 329 329 329 327 327 326 324 322 321 320 319 318 316 315 313 313 313 313 312 311 311 311 312 311 311 311 312 311 310 310 310 311 311 310 310
335 334 333 332 331 330 330 328 327 327 327 325 324 323 321 320 319 317 316 315 313 312 313 313 312 311 311 311 312 311 311 310 310 311 310 310 310 310 310 310 309 309
334 333 333 332 331 330 329 327 326 326 325 324 323 322 320 319 318 316 315 314 313 312 312 311 312 312 312 312 311 310 310 309 310 310 309 308 309 309 309 309 308 308
334 333 333 331 330 328 326 326 325 325 324 322 321 320 319 318 316 314 314 313 312 310 310 311 310 311 311 311 311 310 310 310 310 309 307 307 308 309 309 309 309 308
332 332 332 330 328 327 326 325 325 324 323 322 320 319 318 316 315 314 312 311 310 310 310 310 310 310 311 311 310 309 309 309 308 308 307 307 307 307 307 307 306 305
332 333 330 327 326 326 325 325 326 324 323 321 320 319 317 315 314 313 312 310 309 309 309 309 309 309 310 311 309 309 308 308 308 307 306 306 307 306 307 306 307 306
332 330 328 327 324 323 324 324 323 323 322 320 319 318 317 315 313 312 311 310 309 309 308 309 309 309 311 310 309 308 307 308 308 307 306 306 305 305 305 307 306 306
330 328 326 325 323 322 323 324 323 322 321 319 318 317 316 316 314 312 310 310 309 308 308 308 308 309 309 309 308 308 307 306 306 306 306 306 305 305 305 306 306 306
329 326 324 323 323 322 323 323 323 322 321 319 318 316 316 314 312 311 311 309 309 308 308 308 309 308 308 307 308 308 307 306 306 305 306 306 306 306 306 306 306 306
326 325 323 323 323 322 322 323 322 321 321 318 317 316 316 314 312 311 310 309 309 308 309 309 308 307 307 307 307 308 307 307 306 306 306 306 305 306 306 307 306 306
322 323 323 323 323 323 323 323 322 321 319 317 317 317 316 313 312 311 311 310 309 309 309 309 309 308 308 308 307 307 307 306 306 306 305 306 306 305 306 307 307 307
322 323 323 324 323 323 322 323 322 321 318 317 317 316 315 313 312 312 312 311 310 310 310 310 309 307 307 307 307 307 307 306 306 305 305 306 306 306 306 306 307 306
323 324 325 325 323 322 321 322 321 320 318 316 316 316 315 314 314 313 311 310 310 310 310 310 309 308 307 307 308 307 307 306 306 305 305 305 305 305 306 306 306 305
324 324 324 323 322 321 321 321 320 319 317 316 315 315 315 315 314 313 312 311 310 310 310 309 308 309 308 305 305 308 307 306 306 306 305 305 305 305 305 305 303 302
324 324 323 321 321 321 321 321 319 318 316 315 315 314 314 314 313 312 312 311 310 310 309 309 308 308 297 295 295 301 308 308 306 306 306 305 305 305 304 304 303 300
323 322 320 320 320 320 319 320 319 317 315 314 314 314 314 314 313 312 312 312 311 310 310 309 309 300 295 295 296 295 299 312 308 307 307 306 305 304 304 304 305 305
321 321 320 320 319 319 318 319 319 316 313 312 313 314 314 312 312 312 312 312 311 310 310 309 308 296 295 295 295 296 295 301 308 307 306 306 306 305 304 303 304 304
321 320 319 319 318 317 317 317 317 315 313 312 313 313 313 313 313 312 312 311 311 311 310 309 307 297 295 294 294 294 295 297 309 307 307 306 305 306 306 305 305 305
320 319 318 317 317 316 316 316 318 314 312 312 312 312 311 311 312 311 312 311 311 311 310 309 307 295 294 294 293 294 293 296 309 307 307 306 305 306 305 304 304 306
319 318 317 316 316 315 314 313 313 312 311 312 312 312 312 311 311 312 311 311 310 310 309 308 305 293 294 294 293 294 293 304 308 306 306 305 305 305 305 306 304 304
318 317 316 316 315 314 313 313 312 311 311 311 311 313 312 310 311 310 311 310 309 309 309 308 303 296 293 293 293 292 295 303 306 306 305 306 305 305 305 306 305 304
318 317 315 314 314 312 312 312 312 311 311 311 309 309 311 310 309 310 310 310 309 309 308 307 303 298 292 293 293 292 297 302 303 306 306 304 306 306 306 306 306 304
317 316 314 313 313 313 313 312 311 311 311 311 310 309 308 309 309 309 311 309 309 309 309 308 305 299 292 292 292 292 298 303 303 305 304 305 306 306 305 306 306 303
316 315 314 313 312 312 312 311 311 310 310 309 309 308 307 307 307 307 306 306 308 308 308 309 307 302 298 292 293 292 294 303 304 304 304 305 305 305 304 305 306 305

ECMWFNIL_sfc_thetae_120.txt.gz
Theta_e
336 335 333 333 332 332 331 329 329 329 328 328 327 325 326 325 322 325 322 320 318 317 317 316 316 315 315 314 314 313 313 313 314 314 314 314 313 312 312 311 311 310
335 335 334 334 332 332 331 331 330 330 329 328 328 327 325 323 322 321 319 317 317 316 315 315 315 314 314 313 314 313 312 311 311 314 312 312 311 312 311 311 310 310
335 334 334 333 331 331 331 332 331 331 329 327 328 326 325 323 322 320 319 317 315 315 315 314 314 314 313 312 312 311 311 311 311 312 312 310 311 310 310 310 309 309
334 335 333 333 332 332 332 331 330 330 328 326 325 324 324 322 320 318 317 316 313 313 314 313 312 311 310 312 312 312 311 310 310 311 310 311 311 310 310 310 309 309
334 334 334 333 332 332 330 330 328 327 326 325 325 324 323 320 318 316 315 314 313 312 312 312 312 312 311 311 311 310 310 309 311 310 309 308 309 309 309 309 308 307
334 334 333 332 332 330 329 328 327 326 326 326 323 322 320 319 317 315 314 312 312 311 311 311 311 311 311 310 311 310 310 310 310 309 308 307 308 310 311 310 308 308
333 333 332 331 330 328 327 327 326 325 325 323 322 321 319 317 315 314 312 311 310 310 310 310 310 311 311 310 310 310 310 309 308 307 306 307 308 308 308 307 306 305
333 333 332 329 328 327 326 326 325 325 324 322 321 319 318 316 314 313 312 310 309 309 309 309 309 309 310 310 309 308 308 310 309 307 305 306 307 305 306 308 307 304
332 332 330 328 327 326 326 325 324 324 323 321 320 318 317 315 313 312 311 309 309 309 309 308 308 309 311 310 308 307 306 308 308 306 306 306 305 305 305 306 305 306
331 330 328 326 325 325 325 325 324 323 322 320 319 317 315 315 313 311 310 309 308 308 308 308 308 310 309 308 307 307 306 306 306 307 306 306 305 304 305 306 305 305
330 328 326 325 325 324 325 325 323 322 321 319 318 316 315 313 312 310 309 308 309 307 307 308 308 308 307 307 308 308 307 306 305 305 306 305 306 306 307 306 306 306
328 326 325 325 324 324 324 323 323 321 320 320 317 315 314 313 310 309 308 307 307 307 307 307 307 307 307 306 306 307 306 306 306 306 306 305 305 306 306 307 306 305
327 325 324 324 324 324 324 323 322 321 319 318 317 315 313 311 310 309 309 307 307 307 307 307 307 307 307 306 306 305 305 305 306 306 305 305 305 305 306 307 306 306
325 326 325 324 324 324 323 322 321 320 319 318 316 315 313 311 309 309 309 308 308 308 308 308 307 306 306 307 306 306 305 305 305 305 304 306 306 306 306 306 306 304
325 325 325 323 323 322 322 322 321 321 318 317 316 315 314 311 311 310 309 308 308 309 308 308 307 307 307 306 306 305 305 304 304 304 305 304 304 305 306 305 302 300
325 325 324 323 322 322 322 321 320 320 317 316 315 315 313 312 311 310 309 309 308 308 308 309 308 308 309 306 306 306 305 304 305 305 304 304 304 304 305 304 301 298
324 323 323 322 322 322 321 320 319 319 316 315 315 314 313 313 312 310 309 309 308 308 308 308 309 308 299 298 299 302 306 305 304 304 304 304 304 304 302 300 298 297
324 323 322 321 321 321 321 320 318 318 315 314 315 314 314 313 312 310 310 310 309 308 308 308 306 300 295 295 296 298 304 306 305 305 305 304 304 304 303 300 297 296
323 322 321 320 320 320 321 320 317 317 314 314 313 314 314 312 312 311 311 310 310 308 307 307 302 296 295 295 295 295 295 304 305 306 304 304 304 304 303 303 302 302
322 321 321 320 320 320 320 318 316 316 314 314 314 313 313 312 312 312 311 310 310 308 308 305 302 297 295 295 295 294 294 300 307 306 306 305 304 304 304 303 304 303
322 322 320 320 320 320 320 319 317 317 314 313 313 312 312 311 312 311 311 310 310 309 308 304 303 295 294 294 294 294 293 298 310 307 307 306 306 306 305 305 305 306
323 322 321 320 319 319 319 318 317 316 312 312 312 312 312 312 312 311 311 310 311 310 308 303 301 293 294 294 294 293 295 306 309 306 307 305 305 306 306 304 305 306
322 321 320 319 318 317 317 318 314 314 312 312 311 311 311 311 311 310 311 310 310 310 306 301 299 295 294 294 294 293 298 307 309 305 306 304 305 304 304 305 304 304
322 320 318 317 317 316 316 317 315 314 311 312 311 311 310 310 312 311 310 310 309 309 304 301 299 297 293 294 294 293 299 305 307 305 304 304 304 304 304 305 305 308
320 319 318 316 316 315 316 316 314 311 311 313 311 310 310 311 310 310 311 310 308 309 306 303 301 297 293 294 294 293 298 304 304 304 303 304 304 303 304 304 303 304
320 317 317 316 315 314 314 314 312 311 311 310 309 308 309 309 310 309 307 307 308 309 304 304 301 298 296 293 293 293 295 302 303 304 303 303 303 303 303 302 303 301

ECMWFNIL_sfc_thetae_123.txt.gz
Theta_e
330 329 329 328 328 327 326 325 324 322 321 321 320 319 318 317 318 316 314 312 311 309 309 309 310 310 311 309 310 310 310 309 309 308 307 307 305 305 306 305 304 304
330 330 329 329 327 327 326 326 324 323 322 321 321 320 317 317 315 313 312 312 311 310 309 309 309 309 309 308 308 308 307 307 307 309 306 306 305 305 304 304 303 303
331 330 329 328 327 326 325 325 325 323 322 322 320 317 317 316 314 312 311 310 310 309 309 309 308 308 307 307 306 306 305 305 306 306 306 304 304 304 303 303 303 303
331 331 329 328 327 326 326 325 324 323 322 320 318 318 317 316 313 312 312 314 309 308 308 308 307 307 307 307 306 305 305 305 305 305 305 305 305 304 304 303 303 302
331 331 331 329 328 327 326 325 323 322 320 319 318 317 316 313 312 311 309 308 308 307 307 306 306 307 307 306 305 304 304 304 304 304 302 302 303 304 304 303 302 301
331 332 331 330 328 327 325 324 322 321 319 317 317 316 314 313 311 309 308 308 307 307 306 306 306 306 306 305 304 304 304 303 303 303 303 303 303 304 305 303 302 301
330 330 329 329 328 326 324 322 321 320 319 318 317 314 313 311 310 308 308 308 307 307 306 306 305 305 305 304 304 304 303 303 303 303 302 302 303 302 302 301 301 300
330 329 329 328 326 324 322 321 321 320 318 317 314 314 313 311 309 309 307 307 306 306 305 306 305 305 305 304 304 303 303 304 303 302 301 301 300 300 301 303 300 299
330 329 328 326 324 322 321 321 320 318 317 315 314 313 312 311 309 308 307 306 306 305 305 305 305 305 304 304 303 302 302 302 302 301 301 300 300 300 300 300 300 300
329 328 326 324 323 322 321 320 319 317 317 315 314 313 311 310 309 308 306 305 305 305 304 304 304 305 304 303 303 302 302 301 301 301 301 300 300 300 301 301 300 299
328 326 324 323 322 321 319 319 317 317 316 315 313 311 310 309 308 307 305 305 305 304 304 304 305 304 303 302 302 302 302 302 301 301 300 300 301 301 305 300 301 299
326 324 323 322 321 320 319 318 317 317 316 314 313 311 309 308 307 306 305 304 304 304 304 304 304 303 303 302 302 302 301 301 301 301 301 301 301 302 301 301 300 300
325 323 323 322 321 321 319 318 317 316 315 313 313 311 308 306 306 305 305 304 304 304 304 304 304 303 302 302 302 301 301 301 301 300 300 301 301 301 301 301 301 300
325 323 322 322 322 321 319 318 317 316 314 313 312 310 307 306 305 304 304 304 303 304 304 304 303 302 302 302 301 301 301 301 300 300 300 300 300 301 301 300 297 296
324 323 322 322 322 320 319 318 317 316 314 313 311 309 308 306 305 305 304 303 303 304 304 304 303 303 303 301 301 301 301 300 300 301 300 300 300 301 299 297 296 295
323 322 322 322 321 319 319 318 317 316 314 312 311 309 307 306 305 305 304 303 303 303 303 303 303 304 307 305 304 301 300 301 301 300 300 300 300 299 297 296 296 296
323 322 322 321 320 319 319 318 317 315 313 312 310 308 307 306 305 304 303 303 304 303 302 303 304 305 301 297 298 301 302 300 300 300 300 300 300 299 295 294 294 295
322 321 321 320 320 319 318 318 316 314 312 311 309 308 307 306 304 304 303 303 304 303 302 303 303 303 296 297 297 298 302 301 300 300 300 300 300 298 296 294 292 293
322 321 320 320 320 319 318 317 314 313 311 310 309 308 307 305 305 304 303 303 304 303 302 302 299 296 296 297 296 297 298 301 300 300 300 299 299 297 294 292 292 293
322 320 319 319 320 319 318 316 313 312 311 311 309 308 307 305 305 304 304 303 303 302 300 299 298 297 295 296 296 296 296 299 301 300 300 299 299 297 294 292 292 292
321 320 319 319 319 319 317 315 313 311 311 310 309 308 306 305 305 304 304 304 303 301 299 299 300 295 294 294 294 295 297 300 301 302 301 299 299 299 296 295 295 297
321 320 319 319 319 318 316 314 313 311 310 309 308 306 306 306 305 305 304 304 302 300 299 298 297 294 294 294 294 295 297 302 302 300 300 299 299 299 298 299 299 298
321 320 319 318 318 317 315 314 313 310 310 309 307 306 306 305 305 305 305 304 302 300 299 298 297 295 295 294 295 296 298 301 302 301 300 299 299 299 299 299 300 299
321 320 318 318 317 317 315 314 313 310 310 309 307 306 305 305 306 306 306 305 301 300 299 298 298 297 294 294 295 295 299 299 299 299 298 299 299 299 300 299 300 308
321 320 319 318 317 317 316 313 311 310 309 309 308 307 306 306 306 306 305 304 302 301 304 300 299 298 294 294 295 294 298 299 299 299 298 297 299 298 298 299 297 306
321 318 318 317 317 317 315 313 310 309 308 308 307 307 307 306 305 305 304 303 302 301 301 299 299 298 296 293 295 294 296 300 298 297 298 297 297 297 298 295 297 297

ECMWFNIL_sfc_thetae_126.txt.gz
Theta_e
330 330 329 328 327 327 326 325 324 321 319 318 317 316 316 314 315 312 311 310 309 309 309 309 309 309 310 308 309 308 307 306 306 304 304 304 303 303 303 301 301 301
330 329 329 328 327 326 326 325 323 321 319 318 317 317 315 315 313 311 309 309 310 308 308 308 308 308 308 308 307 307 305 305 304 306 303 303 302 302 301 301 300 300
329 329 328 326 326 325 325 324 322 320 319 318 318 316 315 314 311 310 309 309 308 307 307 307 307 307 307 306 306 306 304 304 304 303 304 302 301 301 301 300 300 300
330 329 328 327 326 325 325 323 321 320 320 318 317 316 315 313 311 309 309 312 307 307 307 307 307 306 306 305 305 304 304 303 303 303 302 302 302 301 300 301 301 300
329 329 328 327 326 326 324 323 321 320 319 319 316 315 313 311 309 309 309 307 307 306 306 306 305 305 305 305 304 303 303 303 302 302 302 301 301 301 300 301 299 298
330 329 328 328 326 325 324 323 322 321 319 317 315 314 312 310 309 309 308 306 306 306 305 305 305 305 305 304 303 303 303 302 301 301 301 300 300 301 301 299 298 297
329 329 328 328 327 326 325 323 322 320 318 317 315 313 311 310 309 308 307 307 306 306 305 305 304 304 303 303 303 302 301 301 301 301 301 300 301 300 299 299 299 298
329 329 328 328 327 326 325 323 321 319 317 316 314 312 311 310 308 308 307 306 305 305 304 304 304 304 303 302 302 301 301 302 301 301 300 300 299 299 298 300 298 298
330 329 329 328 326 325 324 322 321 318 317 314 313 311 310 309 308 307 306 306 305 304 304 304 304 303 302 302 301 301 301 301 301 300 300 299 299 298 298 298 297 298
330 329 328 327 326 325 323 321 320 317 316 314 312 311 309 308 307 307 306 305 305 304 304 303 303 303 302 302 301 301 301 300 300 299 299 299 299 298 298 298 298 297
329 329 327 327 325 324 322 320 319 316 315 313 312 310 309 307 307 306 305 305 304 304 303 303 303 302 302 301 301 301 300 300 299 299 299 299 299 298 303 298 299 298
329 328 327 326 324 323 321 319 317 315 314 313 312 310 308 307 306 305 305 304 304 304 303 303 303 302 301 301 301 300 300 300 300 299 299 299 299 300 299 299 298 297
328 327 326 325 324 322 320 318 317 315 314 312 311 310 308 306 305 305 305 304 304 303 303 303 302 301 301 300 300 300 300 299 299 299 299 299 299 299 299 298 298 298
328 327 326 324 323 321 320 318 317 315 314 312 311 309 308 306 305 304 304 304 303 303 303 303 302 301 300 300 300 300 300 299 299 299 299 299 298 298 298 297 296 296
328 326 325 324 322 320 319 318 317 315 314 312 310 308 308 306 305 304 303 303 303 303 303 303 302 301 301 300 299 299 299 299 299 299 299 298 298 297 295 295 294 294
327 325 324 323 321 319 318 317 316 315 313 311 309 308 307 306 304 304 303 302 302 302 302 302 302 302 305 304 303 300 299 299 299 299 299 299 297 295 294 294 294 293
326 324 323 321 320 319 318 317 316 314 312 311 308 307 305 305 304 302 302 302 302 302 301 302 302 303 302 297 297 300 300 298 298 298 298 298 296 295 293 294 293 295
324 323 322 321 320 319 318 317 315 313 312 310 308 306 305 304 302 302 301 301 302 302 301 301 301 303 297 296 296 297 301 300 298 299 299 297 296 294 294 293 293 294
324 322 321 320 319 319 318 316 314 312 311 309 307 306 304 303 302 301 301 301 301 301 300 301 301 299 295 296 296 296 297 300 299 299 299 298 295 294 293 292 293 293
323 322 321 320 319 318 317 316 313 312 311 310 308 306 304 303 302 301 301 301 301 301 300 300 300 298 295 295 296 295 295 298 299 300 300 299 298 294 293 291 291 291
322 321 320 319 318 317 316 315 313 311 311 309 307 306 304 302 301 300 301 301 301 300 300 299 300 296 294 295 295 295 295 298 300 301 301 300 298 296 293 290 290 291
322 321 320 319 318 317 316 314 312 311 310 309 307 306 304 303 301 301 301 301 300 299 299 298 298 294 294 295 295 295 296 301 300 300 300 299 298 295 292 290 290 291
322 320 319 318 317 316 315 313 311 310 310 309 307 305 304 303 301 301 301 300 299 299 298 297 297 295 294 295 295 294 298 300 300 301 299 298 297 295 293 291 291 292
321 320 318 318 316 315 314 314 312 311 310 309 307 305 304 303 302 302 301 301 299 298 299 298 297 296 294 294 295 295 300 301 300 299 297 297 296 296 294 294 295 301
320 319 319 318 317 316 316 314 312 310 310 309 308 307 306 305 304 302 301 300 300 299 303 299 298 298 294 294 295 296 300 300 299 297 296 296 296 295 295 295 296 303
319 318 318 317 317 316 316 314 312 310 309 309 308 308 306 305 305 304 302 300 299 299 301 300 299 298 296 293 295 296 297 299 298 297 296 295 295 296 295 293 295 298

ECMWFNIL_sfc_thetae_129.txt.gz
Theta_e
329 329 329 329 329 329 328 327 326 325 323 320 319 318 318 316 314 312 311 311 311 310 309 309 310 310 310 308 307 308 306 305 304 303 302 303 301 301 301 299 297 298
329 329 329 329 328 328 328 327 326 325 321 319 317 316 315 314 313 311 310 309 310 309 308 309 309 309 308 307 306 305 304 304 303 305 302 301 301 300 300 299 299 298
329 329 328 327 327 327 327 326 325 324 321 318 317 316 314 314 311 309 309 309 308 307 307 308 308 307 307 306 305 306 304 302 302 302 302 301 300 300 299 299 298 297
329 329 328 328 328 327 326 325 323 321 319 317 316 316 315 313 310 308 308 312 307 307 306 307 307 306 306 305 304 303 302 302 302 302 301 301 301 300 299 299 299 298
329 328 328 328 327 327 325 324 322 320 319 318 316 315 314 311 308 308 308 307 306 306 306 306 306 305 305 304 303 302 302 301 300 301 300 299 299 300 299 299 298 297
329 329 328 328 327 326 324 323 322 320 319 317 316 315 312 310 308 308 307 306 305 306 306 305 305 304 304 303 302 302 302 301 300 300 300 299 298 298 300 298 297 296
328 328 327 327 326 326 324 323 321 320 319 318 315 313 311 309 308 307 306 306 306 306 305 305 304 304 303 303 302 301 300 300 299 299 299 298 299 297 297 297 297 296
329 329 328 327 326 325 325 323 321 320 319 316 314 312 311 310 309 307 306 306 305 305 304 304 304 304 302 302 302 301 299 300 300 299 299 298 298 297 296 298 296 296
330 329 329 327 326 325 324 323 322 320 318 316 314 311 310 310 309 307 306 305 305 304 304 303 304 303 302 302 301 301 300 299 300 299 299 298 297 297 297 296 296 297
329 329 328 327 326 325 324 323 322 320 319 316 314 311 310 309 308 307 306 305 304 304 303 303 303 302 301 301 301 300 300 299 299 298 298 298 298 297 297 297 296 295
329 329 328 327 326 326 324 323 321 320 318 316 313 310 309 308 308 307 305 305 304 303 303 303 302 301 301 300 300 300 300 300 299 298 298 297 297 297 301 296 297 296
329 328 327 327 326 325 324 323 321 319 318 316 314 311 309 308 307 306 306 304 304 304 303 303 302 301 301 300 300 299 299 299 299 298 297 297 296 297 298 296 297 296
329 328 328 327 326 325 324 322 320 319 317 315 314 311 308 307 306 305 306 304 304 303 303 302 301 301 300 300 299 299 299 298 298 297 297 297 296 297 296 296 296 296
329 329 328 328 327 325 323 321 320 318 316 315 313 310 308 307 306 305 304 304 303 303 303 303 301 300 299 299 299 299 299 298 298 297 297 296 296 296 296 295 296 296
330 329 328 327 326 324 322 320 319 317 316 314 312 310 309 307 306 305 304 303 302 302 302 302 301 301 300 299 299 298 298 298 297 298 297 297 295 295 294 294 294 295
330 328 327 326 324 322 321 320 318 316 315 313 312 310 309 308 306 305 304 303 302 301 301 302 301 301 304 303 302 299 297 298 298 297 297 297 297 294 293 294 294 294
329 328 327 325 323 322 320 319 317 316 314 313 311 310 309 307 306 304 303 303 302 301 301 301 301 302 301 297 297 300 299 298 298 297 297 297 295 294 293 294 293 295
328 327 325 324 322 321 320 319 317 315 314 312 311 309 308 307 305 304 303 302 302 301 301 301 300 302 297 296 296 297 300 299 297 298 298 296 295 295 295 295 296 297
328 326 324 322 322 321 319 318 316 315 313 311 310 309 307 306 305 304 303 302 302 301 300 301 300 299 296 296 295 296 297 299 298 298 298 297 297 296 296 296 296 297
327 325 323 322 321 320 319 317 315 314 313 312 310 308 307 306 304 303 302 301 301 301 301 300 300 299 295 295 295 295 295 297 299 299 299 298 297 296 296 296 297 297
326 324 323 321 321 319 318 316 315 314 313 311 309 308 306 305 303 302 302 301 301 301 300 300 300 297 295 294 294 295 295 297 299 300 299 297 297 296 296 296 296 296
325 324 322 321 320 319 317 316 315 313 312 310 309 308 307 306 304 303 301 301 301 300 300 299 300 295 294 294 294 294 295 300 299 299 298 297 296 296 296 296 295 293
325 323 321 320 319 318 317 316 314 313 312 311 309 307 305 304 303 302 302 301 300 300 299 299 298 295 294 294 294 294 296 299 299 298 298 298 297 297 295 292 291 291
325 323 321 320 319 318 317 316 315 313 312 310 308 306 305 304 303 302 301 301 300 300 300 299 298 296 293 294 294 294 298 299 298 298 298 298 297 295 293 291 292 298
324 323 322 320 318 318 317 316 314 312 311 310 309 307 305 304 303 301 300 300 300 300 304 300 298 297 293 293 294 294 298 300 299 298 297 297 296 294 292 292 290 296
324 322 321 320 319 318 317 314 310 309 309 308 308 307 305 303 302 301 300 299 299 299 301 300 298 297 295 293 294 294 297 300 298 297 296 294 294 295 294 292 291 291

ECMWFNIL_sfc_thetae_132.txt.gz
Theta_e
330 330 330 330 330 329 328 327 326 326 325 324 323 322 321 321 318 317 316 316 316 315 313 313 313 313 312 311 311 311 310 309 308 306 308 308 307 306 306 304 304 306
330 330 330 330 329 329 329 329 327 326 325 324 323 321 320 319 316 316 314 314 315 313 312 312 312 312 311 310 309 308 307 307 306 307 305 305 304 304 304 303 303 302
329 329 329 329 329 328 328 328 327 327 325 323 321 320 319 318 315 314 313 313 313 311 311 311 311 311 310 309 308 309 306 305 305 305 305 304 303 303 302 302 301 302
329 330 330 329 329 328 328 327 326 325 323 320 320 319 318 317 314 312 312 315 311 310 310 310 310 310 309 308 308 306 305 305 304 304 304 303 304 302 301 302 302 302
329 329 330 330 329 329 328 327 325 323 322 321 319 318 317 315 312 311 311 311 310 309 309 309 309 308 308 307 307 305 305 304 303 303 303 302 302 302 302 302 301 300
329 329 330 329 329 328 327 326 325 323 322 319 318 317 316 314 312 310 310 309 309 309 308 308 308 307 307 306 305 305 304 303 303 303 302 302 301 302 302 301 300 299
329 329 329 329 328 328 327 326 325 323 322 321 318 316 315 312 311 310 309 309 308 309 308 307 307 306 306 305 305 303 303 303 302 302 302 301 302 301 300 300 300 299
330 330 330 329 328 327 326 325 324 323 321 319 318 316 314 312 311 310 309 308 308 308 307 307 307 306 305 305 304 303 302 302 302 302 301 301 301 300 299 299 299 298
330 330 329 328 327 327 326 324 323 322 321 319 318 315 314 312 310 309 308 308 307 307 306 306 306 305 305 304 304 303 302 302 302 301 301 300 300 299 298 299 298 299
330 329 329 328 327 326 325 324 323 321 320 319 317 314 312 312 310 309 308 307 307 306 306 306 305 305 304 304 304 303 302 302 301 301 301 301 300 299 298 299 298 298
329 329 328 327 327 326 325 324 322 321 320 319 316 314 312 311 310 308 307 307 307 306 305 305 305 304 304 303 303 303 302 302 301 300 300 300 300 299 301 299 299 298
329 329 328 327 327 326 326 324 323 321 320 319 317 314 312 311 310 308 308 306 306 306 305 305 304 304 304 303 303 302 302 302 301 300 300 299 299 300 300 299 299 298
329 329 329 328 327 327 326 325 323 321 320 318 317 315 312 311 310 308 308 307 306 306 305 305 304 303 303 302 302 301 301 301 300 300 299 299 299 299 299 299 298 298
329 329 329 329 328 327 326 324 323 321 320 319 317 314 312 311 309 308 308 307 306 305 305 305 304 303 302 302 301 301 301 300 300 300 299 299 299 299 299 299 298 299
330 330 329 328 327 327 325 324 322 321 319 318 316 314 313 312 310 309 307 306 305 305 304 304 303 303 302 301 301 300 301 300 300 300 299 299 298 298 298 298 298 299
330 329 329 328 327 326 325 323 322 320 319 317 316 314 313 312 310 309 307 306 304 304 304 303 303 303 304 303 302 301 300 300 300 300 299 299 299 298 297 298 298 298
329 329 328 327 327 326 324 323 321 320 318 316 315 314 312 311 309 307 307 306 305 304 303 303 303 303 301 297 297 300 301 300 300 299 300 299 299 298 297 297 297 299
329 329 328 327 326 325 323 322 321 319 317 316 314 312 311 310 308 308 307 306 305 304 303 303 303 302 297 296 296 297 300 301 300 299 299 299 299 298 298 298 298 299
329 328 327 327 326 324 323 322 320 318 316 315 313 312 311 309 308 307 306 306 305 303 303 303 303 299 295 296 295 296 297 300 300 300 300 299 299 299 299 299 300 300
329 328 327 326 325 324 322 321 318 317 316 315 314 312 310 309 308 307 306 305 305 304 303 303 302 299 295 295 295 295 295 297 300 300 300 299 299 299 299 299 300 300
329 328 327 326 325 323 322 320 318 317 316 314 313 311 310 309 307 306 305 305 305 304 303 302 302 297 295 295 294 294 294 297 300 301 300 299 299 299 299 299 300 301
328 327 326 324 323 322 321 319 318 317 315 314 312 311 310 310 308 307 305 305 304 304 303 302 302 295 294 294 294 294 294 301 300 300 299 299 299 298 298 299 300 300
328 327 325 323 323 321 320 318 317 316 315 314 312 311 309 308 307 306 305 305 304 303 302 302 301 296 294 294 294 293 296 300 300 300 299 299 299 298 299 299 299 299
328 327 324 323 322 321 320 318 318 317 316 313 312 310 309 308 307 306 305 305 303 302 303 301 301 297 294 294 294 293 298 300 300 299 299 299 299 298 298 298 298 301
328 326 325 323 322 321 320 318 317 317 315 312 312 310 309 306 305 305 304 304 303 303 305 302 300 298 294 293 293 293 298 300 300 299 298 298 298 298 297 296 296 301
327 325 324 323 322 321 320 319 318 315 312 312 310 309 306 305 305 305 304 303 302 302 303 302 300 299 296 293 294 294 296 300 300 299 298 298 298 298 296 295 295 295